GFSGBSN_con_sbcape_000.txt.gz
CAPE
40 81 24 28 41 33 38 21 1 1 6 5 7 2 0 0 0 0 0 0 0 21 36 52 61 70 59 42 18 34 0 0 0 5 13 1 58 85 193 112 34 0 0 0 0 0 0
33 68 48 26 33 32 18 57 34 0 3 4 13 7 0 1 1 0 0 0 3 2 46 72 79 77 41 24 1 0 3 0 0 1 6 8 43 68 49 181 84 5 0 0 0 0 0
23 44 66 37 27 21 15 27 38 2 2 3 17 13 0 0 0 6 0 4 17 42 35 66 82 73 45 1 0 0 0 0 0 0 2 4 5 268 105 240 182 71 26 27 0 0 0
36 51 65 51 32 26 28 21 29 13 1 3 10 29 21 5 0 0 0 6 52 119 60 56 54 51 15 0 0 0 0 0 0 0 0 5 20 62 278 248 219 192 84 59 0 8 0
37 68 58 46 50 39 37 35 55 38 20 1 7 25 12 36 32 33 10 33 70 93 91 61 37 44 15 0 0 0 0 0 0 0 0 10 86 115 357 207 155 178 59 21 15 3 0
26 38 77 69 49 42 31 44 37 16 36 1 13 36 46 62 45 54 33 44 67 57 45 31 40 37 0 0 0 0 0 0 74 232 148 145 92 189 286 108 98 40 44 23 24 1 0
53 34 72 75 69 53 39 37 30 0 25 12 18 38 45 70 57 22 26 34 9 37 14 0 0 0 0 0 0 5 2 0 65 238 102 121 76 34 130 60 74 23 31 33 10 0 0
74 51 44 71 71 68 41 30 22 0 3 1 10 35 50 67 64 32 37 40 0 0 10 0 1 0 24 8 30 35 75 16 48 62 128 62 46 38 21 136 80 53 11 14 18 0 0
70 81 55 71 104 76 51 44 22 3 0 4 9 27 46 49 31 22 31 16 0 1 3 8 1 12 18 15 90 131 122 16 11 16 38 17 13 26 60 106 96 52 14 9 7 0 0
81 83 96 84 86 83 76 69 42 15 2 3 12 19 48 15 15 31 45 2 0 0 3 7 20 7 35 75 36 76 140 17 98 42 30 5 9 95 92 62 80 55 40 9 0 25 43
102 108 103 82 67 68 70 67 56 47 26 6 13 16 44 28 31 21 5 1 0 0 6 0 12 4 3 15 57 68 165 30 49 48 8 0 29 3 92 25 42 53 19 17 11 15 3
96 87 110 111 88 69 66 60 52 55 50 21 22 25 42 53 50 16 1 3 3 5 3 20 15 25 34 28 49 142 116 39 64 16 6 0 35 25 95 18 51 1 1 0 0 0 18
101 90 119 108 84 64 62 53 57 52 51 33 35 37 24 17 19 9 9 10 17 20 3 30 28 33 14 9 12 40 52 40 36 59 25 0 5 65 139 42 0 40 46 36 55 27 8
36 89 117 122 79 61 58 60 58 60 53 30 21 26 15 17 30 43 11 17 26 2 14 10 23 27 18 28 25 44 31 22 18 40 0 16 29 12 43 13 0 6 42 20 15 1 1
22 127 91 89 76 67 67 62 57 48 30 16 3 6 10 9 73 8 5 11 7 22 2 17 32 39 32 25 7 42 19 8 23 3 0 18 3 5 28 0 0 0 3 2 0 0 0
31 13 103 91 79 72 74 60 54 45 18 3 0 0 7 0 59 25 7 20 10 10 4 21 5 11 14 12 22 57 13 1 8 1 22 0 4 0 0 9 0 0 0 1 0 2 1
50 30 112 103 76 65 63 53 56 36 28 1 3 5 1 16 23 13 10 14 18 8 0 2 0 2 3 3 8 23 2 3 0 13 2 2 1 0 0 3 0 3 4 0 0 0 2
77 59 54 106 75 57 57 43 58 36 0 0 4 9 18 16 18 24 20 10 6 22 4 0 0 0 0 0 1 12 0 3 0 39 1 0 6 2 0 0 0 5 5 2 17 0 0
80 29 30 105 63 48 41 36 47 39 0 0 3 5 21 5 11 12 25 17 12 30 4 1 8 5 0 0 1 15 6 0 1 5 14 0 13 11 0 0 0 0 0 1 0 0 0
63 51 25 39 71 40 28 16 28 30 9 0 1 14 34 38 12 18 12 15 25 18 14 33 9 2 0 0 0 0 6 11 15 0 0 0 0 0 0 0 0 0 0 0 0 1 0
77 35 42 9 83 52 31 8 20 26 4 0 0 3 1 4 6 6 19 16 4 41 48 37 4 0 0 0 11 5 5 4 4 0 2 0 3 0 0 0 0 0 0 0 0 0 0
75 53 53 15 9 67 40 5 19 21 6 0 0 0 0 2 0 8 2 20 6 10 4 0 2 0 0 0 0 3 0 1 7 3 21 1 4 0 0 0 0 0 0 0 0 0 0
56 59 58 23 4 62 38 2 13 17 0 1 0 0 0 0 0 4 0 11 1 7 1 0 1 0 2 0 0 2 0 0 0 0 4 0 0 0 0 0 0 0 0 0 0 0 0
56 78 53 26 16 50 26 3 3 21 0 0 0 0 0 0 0 0 0 2 1 3 10 0 0 3 0 0 0 0 0 0 0 0 1 1 0 0 0 0 0 0 0 0 0 0 0
56 66 53 52 12 39 7 3 6 23 7 0 0 0 0 0 0 0 0 0 0 0 0 0 0 0 0 0 0 0 0 0 0 0 0 0 0 0 0 1 0 0 0 0 0 0 0
73 78 35 17 11 14 0 1 5 13 23 0 0 0 0 0 0 0 0 0 0 0 0 0 0 0 0 0 10 0 6 3 0 0 0 0 0 0 0 0 0 0 0 0 0 0 0
75 67 47 30 22 10 0 0 2 13 11 0 0 0 0 0 0 0 0 0 0 0 0 0 0 0 0 0 0 0 0 0 0 0 0 0 0 4 0 0 0 0 0 0 0 0 0
61 61 58 47 31 10 0 0 1 18 12 0 0 0 0 0 0 0 0 0 0 0 0 0 0 0 0 0 0 0 0 0 0 0 0 0 0 0 0 1 0 0 0 0 0 0 0
60 52 52 42 16 10 0 0 4 21 10 0 0 0 0 0 0 0 0 0 0 0 0 0 0 0 0 0 0 0 0 0 0 0 0 0 0 0 0 0 0 0 0 0 0 0 0

GFSGBSN_con_sbcape_003.txt.gz
CAPE
27 40 56 55 32 24 37 35 6 0 0 1 5 14 9 4 13 8 0 0 0 0 0 26 53 53 59 51 23 40 0 0 0 7 19 4 0 0 64 43 46 31 15 3 2 12 0
41 36 44 63 53 27 22 21 46 11 0 1 4 12 10 2 8 9 0 0 0 0 0 14 70 84 54 32 4 28 20 0 0 6 31 31 3 0 10 93 90 48 64 23 15 16 0
61 33 39 65 69 59 26 22 25 40 7 0 2 7 18 0 10 37 25 1 2 0 0 0 41 53 49 4 2 3 0 0 0 0 10 33 49 36 28 96 38 158 109 57 17 35 4
47 45 55 51 72 69 61 54 44 34 8 0 1 9 24 17 19 43 39 16 2 0 0 0 18 50 55 0 6 2 0 0 0 0 0 5 83 24 30 85 75 135 189 70 20 44 9
32 66 69 68 46 63 71 70 65 37 26 15 7 6 11 27 27 70 65 47 44 37 27 14 30 54 23 0 0 0 1 0 3 0 0 4 85 51 53 91 185 202 158 52 74 46 9
24 55 82 83 70 44 36 62 79 73 52 53 36 26 20 31 38 87 87 58 61 54 37 37 34 51 1 0 0 0 0 1 6 23 46 27 75 70 71 192 109 153 91 98 127 32 20
32 49 78 80 84 73 39 58 74 77 50 62 48 35 32 27 51 64 34 46 14 10 19 1 1 0 1 0 0 0 0 8 9 28 48 61 99 86 10 0 114 123 229 170 150 53 50
71 73 69 80 92 78 76 66 57 70 40 58 44 34 36 21 31 66 55 29 5 3 15 2 7 8 13 4 2 0 4 20 27 35 33 144 221 63 43 17 191 192 202 230 107 8 0
128 96 82 91 86 99 98 86 46 42 41 33 36 22 15 13 41 79 49 0 0 0 6 2 4 10 4 19 16 35 27 46 41 42 57 226 115 121 109 1 273 204 184 179 92 37 0
157 157 113 93 107 80 83 78 69 51 54 41 26 9 12 30 14 23 36 1 0 0 1 8 14 3 5 36 29 20 66 71 37 98 145 140 138 214 149 83 9 251 95 36 60 62 39
24 44 102 93 92 87 73 76 68 71 52 45 31 4 29 15 34 50 4 2 0 0 13 7 24 4 18 16 12 2 56 147 111 151 109 0 104 99 104 2 5 110 22 41 103 149 100
77 21 94 104 102 112 87 77 73 59 53 45 34 21 26 48 40 32 1 0 6 7 10 8 12 18 24 40 19 42 43 149 138 57 97 0 24 57 31 46 0 70 101 110 104 90 26
19 41 47 125 97 112 87 73 66 64 41 40 31 32 8 11 27 2 0 12 17 23 1 22 23 24 28 28 48 57 53 85 93 75 123 10 6 12 4 8 18 32 51 104 39 80 19
46 61 71 16 105 89 77 86 73 75 62 29 20 23 2 2 71 16 12 7 18 2 0 10 15 23 60 16 38 50 47 92 31 6 2 6 14 3 1 40 22 8 39 4 13 12 14
43 22 28 28 7 101 93 86 78 65 44 8 13 11 20 1 55 22 7 7 13 16 8 24 37 40 78 11 8 17 14 89 4 0 38 6 7 1 2 44 0 0 79 2 13 0 59
52 77 47 45 42 114 110 111 84 61 30 1 0 0 0 8 46 22 4 18 23 20 5 17 27 31 55 42 31 35 13 3 5 1 5 8 18 4 27 5 0 15 52 13 24 5 32
80 68 63 61 33 102 98 106 92 73 35 2 0 3 11 4 79 14 2 15 21 24 0 17 33 7 25 15 7 13 7 0 0 1 1 24 5 1 2 24 10 4 35 26 28 15 76
126 74 108 60 28 10 111 95 88 86 31 1 2 10 31 24 25 15 9 9 11 15 1 28 11 17 14 4 4 26 13 0 0 0 12 20 15 9 2 0 2 32 18 41 101 1 1
104 78 79 36 24 14 56 83 78 81 0 0 4 22 27 6 13 11 9 15 16 9 42 6 14 14 2 9 9 10 7 0 0 0 35 37 7 19 16 0 0 0 3 54 55 1 9
81 78 68 55 39 14 15 48 52 61 0 0 8 40 19 22 11 16 11 13 16 2 17 1 8 33 6 4 0 0 6 0 0 0 3 6 2 5 14 0 0 1 0 0 0 0 0
83 81 66 68 42 20 22 33 28 55 4 0 1 24 18 16 11 6 20 12 11 20 8 0 26 36 5 0 1 6 0 13 0 3 0 9 17 1 1 1 0 0 9 0 2 6 0
115 76 63 69 25 21 24 19 16 27 13 0 0 0 28 30 0 7 7 9 16 2 27 18 49 15 10 1 0 0 1 11 21 5 20 3 20 0 0 0 0 0 0 0 0 0 0
91 93 75 28 39 38 23 23 11 18 1 1 0 0 0 14 36 4 10 0 2 7 7 11 28 21 21 6 1 1 1 7 20 6 31 22 19 6 7 0 0 0 0 0 0 0 0
81 80 75 56 27 31 19 16 7 17 0 0 0 0 2 0 1 8 5 10 5 5 4 4 2 2 11 0 0 39 28 0 18 6 7 4 9 1 0 0 2 0 0 0 0 0 0
81 78 74 86 33 23 20 9 0 10 15 0 0 0 10 4 0 1 0 12 0 2 2 0 0 0 0 0 30 22 1 0 0 0 6 15 6 10 5 2 1 0 0 0 0 0 0
86 78 73 88 45 26 28 15 6 5 22 0 0 0 0 4 0 0 0 3 0 0 0 0 0 0 0 0 35 23 10 4 1 0 0 5 5 27 0 0 0 0 0 0 0 0 0
55 78 71 81 37 27 15 14 3 2 10 0 0 0 1 5 0 0 0 0 0 0 0 0 0 0 0 0 3 54 20 3 2 5 1 0 10 2 3 7 1 0 0 0 0 0 0
42 77 63 72 54 24 23 10 14 0 14 0 0 0 1 14 1 0 0 0 0 0 0 0 1 2 4 10 0 0 2 0 3 1 0 1 1 6 6 16 0 0 0 0 0 0 0
48 75 64 59 60 23 12 16 15 4 14 1 1 0 1 11 3 0 0 0 0 0 0 0 0 0 0 0 0 0 0 0 0 0 0 5 0 0 0 0 0 0 0 0 0 0 0

GFSGBSN_con_sbcape_006.txt.gz
CAPE
23 46 61 45 37 59 42 50 55 22 11 5 1 3 4 3 6 9 0 0 0 2 17 12 36 50 9 9 5 11 0 0 0 0 2 1 6 0 0 20 43 20 15 10 1 0 0
20 43 71 49 51 80 60 17 43 42 29 23 12 4 5 4 7 10 7 0 2 32 23 39 48 66 17 5 0 0 15 2 0 3 24 36 30 6 0 11 22 50 38 23 10 1 1
21 15 48 59 54 70 85 52 38 35 24 38 22 2 20 19 6 10 7 9 4 28 34 47 53 27 21 0 0 0 15 0 0 0 0 15 20 45 27 11 30 50 48 70 13 4 6
16 16 12 48 59 78 82 79 60 43 16 24 22 20 22 38 27 23 6 0 16 40 57 50 52 41 11 0 0 0 0 0 0 0 0 0 1 40 39 26 36 49 57 7 0 10 8
21 7 23 39 49 81 94 98 84 62 20 20 17 33 27 49 52 59 46 7 16 24 50 56 36 51 2 0 0 0 0 0 0 0 0 0 0 18 49 31 36 47 9 1 0 16 7
48 10 46 52 68 69 93 101 91 86 73 55 58 56 51 44 66 67 55 0 4 24 32 39 24 34 0 0 0 0 0 1 0 0 0 17 21 26 27 40 5 4 32 1 7 4 44
60 91 100 93 90 97 86 100 89 92 87 69 61 51 46 67 66 65 36 0 0 2 2 0 0 0 4 0 0 0 0 1 1 4 2 9 41 10 1 0 0 7 21 155 25 71 78
40 61 115 131 121 109 102 93 101 98 94 76 61 32 40 66 74 65 49 6 0 0 6 3 0 1 3 7 1 0 0 9 13 12 2 25 16 0 0 1 15 2 26 25 56 154 69
23 25 87 124 140 121 138 87 98 101 93 70 49 24 30 35 53 53 17 2 0 0 5 7 0 0 1 7 9 6 0 0 1 9 10 7 0 0 9 13 25 26 23 88 60 147 46
57 19 33 19 62 123 99 89 73 92 84 65 42 26 21 33 24 8 38 36 2 0 0 1 3 5 0 3 7 1 13 9 11 7 13 39 0 3 8 10 4 13 0 25 4 110 5
80 74 18 20 15 13 130 100 83 76 71 60 38 39 21 6 46 30 2 0 0 0 0 0 18 0 6 3 5 0 0 27 24 3 33 0 0 8 23 0 4 1 7 31 20 2 25
106 98 44 64 19 10 63 118 94 85 72 53 25 19 35 42 21 16 5 1 0 3 0 1 10 19 32 12 12 0 8 44 26 39 22 12 40 73 48 13 0 17 21 3 71 0 31
140 121 96 75 10 21 25 122 117 90 78 57 28 10 13 5 3 1 0 1 4 18 0 13 12 16 7 29 33 12 24 36 31 32 31 10 12 43 11 44 121 151 94 52 37 6 5
183 179 131 86 20 15 22 72 121 108 91 54 24 19 2 0 0 0 7 7 7 4 0 3 9 13 40 34 34 14 14 44 46 24 18 6 7 2 0 2 98 71 24 1 26 2 2
177 169 138 106 33 19 48 131 149 110 66 48 15 7 6 2 0 0 9 2 5 16 10 13 13 27 39 51 17 16 24 7 0 4 9 177 5 7 0 0 75 28 0 0 10 0 0
182 177 136 99 56 34 77 12 186 132 43 39 1 2 7 0 2 5 15 4 9 9 2 10 26 2 9 9 3 11 16 0 4 11 0 0 6 15 28 22 14 15 0 10 12 1 11
153 160 109 114 66 58 58 13 51 154 86 1 0 2 0 1 4 20 10 3 7 5 6 8 0 3 5 0 0 0 0 0 0 0 0 4 28 1 0 69 29 44 42 24 7 4 3
124 144 68 80 82 70 66 16 9 134 46 0 0 3 5 20 21 22 13 4 22 17 4 17 3 9 1 2 0 6 0 0 0 0 2 19 16 3 1 0 8 22 17 1 7 0 0
95 80 84 70 69 75 27 31 9 147 4 0 1 11 14 14 10 13 3 12 10 21 30 18 3 0 8 2 0 0 9 3 1 0 0 10 13 2 0 6 2 33 1 0 0 0 0
36 83 83 74 71 68 43 25 11 135 4 0 0 16 30 17 5 20 8 17 10 8 3 10 0 2 4 3 0 0 0 7 14 0 64 26 15 5 0 0 0 2 0 0 0 2 0
29 70 76 87 78 38 56 57 11 123 5 0 0 7 5 8 5 4 9 8 11 12 7 0 1 0 12 6 3 0 0 1 2 0 25 16 16 5 0 0 0 4 5 0 0 0 0
20 36 80 85 74 56 45 16 14 55 3 0 0 0 9 33 0 5 4 14 6 8 17 7 0 16 19 0 0 0 0 0 0 1 2 0 2 0 0 0 2 3 3 0 0 0 0
27 21 83 75 74 57 31 32 22 65 0 1 0 0 0 8 14 22 16 1 4 5 11 0 0 0 29 11 1 0 0 0 0 0 0 3 0 1 0 0 0 0 0 0 0 0 0
48 26 69 74 75 46 29 55 30 68 1 0 0 0 8 2 0 13 28 22 10 16 10 15 5 12 32 1 30 13 0 1 8 4 6 0 5 1 0 0 0 0 0 0 0 0 0
49 27 48 57 56 65 26 35 34 11 34 0 0 0 0 2 0 0 0 32 12 5 17 16 1 0 0 0 26 35 19 2 0 0 0 0 18 8 0 0 0 0 0 0 0 0 0
40 22 41 52 49 65 23 8 27 10 42 0 0 0 0 0 0 0 0 0 10 3 9 3 0 0 0 0 19 25 1 5 1 0 0 1 7 2 0 0 0 0 0 0 0 0 0
48 28 48 67 58 67 22 21 32 16 27 0 0 0 0 2 0 0 0 0 27 0 0 0 0 0 0 0 11 13 21 0 3 1 0 0 1 1 1 1 0 0 0 0 0 0 0
33 31 31 64 54 52 32 21 25 14 14 4 0 0 0 1 0 0 0 0 7 0 1 0 0 4 4 0 4 0 0 0 0 0 0 0 0 3 0 0 0 0 0 0 0 0 0
31 44 28 64 59 57 34 25 33 16 10 9 1 0 0 0 0 0 0 0 0 0 0 0 0 0 14 8 0 0 0 0 0 2 0 0 0 0 0 0 0 0 0 0 0 0 0

GFSGBSN_con_sbcape_009.txt.gz
CAPE
25 12 19 5 44 59 69 75 68 75 31 14 1 1 4 6 7 0 2 0 0 0 0 14 26 58 48 31 1 3 0 0 0 0 0 11 3 0 0 0 0 0 0 0 0 0 0
81 66 23 14 10 61 58 68 71 75 51 36 22 10 1 2 9 0 4 1 0 0 1 0 9 45 35 4 0 0 0 0 0 0 0 1 3 0 4 0 0 0 0 0 0 0 0
25 91 56 13 38 57 56 76 81 62 41 34 44 25 17 0 8 0 3 18 17 2 0 0 0 10 12 0 0 0 18 0 0 0 0 2 21 36 20 1 0 9 6 0 0 0 0
27 27 93 41 51 45 58 73 86 99 55 28 49 44 24 16 1 18 10 18 21 30 9 19 4 19 2 0 0 0 0 0 0 0 0 0 0 0 13 9 0 1 17 13 0 0 0
16 19 37 66 61 68 70 77 83 100 106 47 51 52 40 29 32 38 39 28 19 32 31 30 13 14 0 0 0 0 0 0 0 0 0 0 0 0 0 16 6 9 4 17 11 0 13
33 23 39 18 114 90 71 95 92 104 106 90 78 65 53 42 29 41 42 5 7 17 27 33 13 16 0 0 0 0 0 0 0 0 0 0 0 0 0 32 14 21 14 1 6 0 18
21 24 30 28 127 131 76 131 149 96 90 95 82 64 53 40 37 41 5 0 0 0 18 0 0 0 0 0 0 0 0 0 0 0 0 0 4 8 0 0 0 0 0 14 5 0 11
56 32 24 40 37 31 147 149 108 126 98 96 89 65 69 58 46 65 2 1 0 0 3 2 0 1 0 1 3 0 0 1 5 1 0 1 3 0 0 0 0 4 6 0 0 0 31
60 62 67 51 40 24 19 132 145 104 165 104 93 72 63 55 67 24 0 2 0 0 0 6 2 1 0 2 4 6 0 0 1 5 1 0 0 0 0 0 11 12 3 0 0 0 7
85 64 94 65 70 23 22 28 73 127 89 92 78 80 57 58 13 0 3 0 0 0 4 0 1 9 8 1 4 5 8 0 18 2 0 0 0 0 2 5 0 4 0 2 7 31 18
88 92 105 86 91 44 52 39 7 111 108 93 88 83 47 0 0 2 0 0 2 6 0 0 4 1 13 2 3 0 0 16 13 4 10 0 0 0 0 0 5 0 0 0 27 47 39
72 112 116 120 144 83 99 12 23 11 142 86 92 57 53 17 0 0 0 0 0 0 0 1 1 5 15 25 13 5 0 5 9 18 10 0 0 4 0 0 0 1 6 16 51 40 53
81 102 137 159 177 112 78 3 36 3 140 121 49 45 23 0 1 0 0 0 5 1 0 1 6 6 2 10 18 23 22 23 46 9 4 1 0 0 14 2 7 37 21 52 61 42 7
80 117 183 177 158 167 114 1 31 15 150 143 12 24 8 0 0 0 0 13 3 0 0 2 1 4 19 2 23 16 7 35 19 2 3 0 0 0 0 1 0 0 9 32 4 0 0
106 126 193 151 105 103 109 34 5 2 111 160 12 8 10 0 0 0 0 4 0 0 0 7 6 13 22 22 14 35 14 6 0 0 0 13 0 2 2 38 63 0 39 0 14 36 37
76 91 119 86 132 138 13 6 5 18 70 168 12 3 8 1 0 0 3 0 0 0 0 6 17 7 0 2 33 12 1 0 0 0 0 0 5 0 8 9 39 102 10 44 13 17 47
81 66 72 104 92 89 44 45 61 52 11 107 0 3 8 2 5 6 12 0 0 0 0 18 19 5 0 0 0 0 0 0 0 0 0 6 3 0 3 11 14 3 10 38 26 9 4
70 102 71 103 71 105 70 76 73 29 3 7 0 13 9 2 20 20 14 0 9 1 12 6 19 10 0 0 0 0 0 0 0 0 0 3 28 21 0 17 0 30 13 8 2 0 3
92 100 50 110 71 91 61 42 39 21 20 0 3 19 10 3 2 10 6 5 11 13 20 27 10 4 11 0 0 0 0 0 0 0 3 16 23 8 10 14 6 6 34 34 2 0 0
93 87 46 114 82 78 58 53 8 22 45 1 0 18 29 21 6 7 6 9 17 6 10 27 14 2 9 1 0 4 0 3 0 0 20 13 13 10 8 3 1 18 14 7 12 3 0
102 74 43 37 76 72 50 61 41 43 9 0 0 6 2 5 6 13 10 12 8 9 3 5 10 1 0 0 0 3 0 6 0 32 0 1 3 1 0 0 0 0 1 7 3 0 0
89 57 43 28 84 68 68 43 36 17 6 0 0 1 5 1 1 4 9 21 16 5 10 12 0 0 0 0 0 0 0 0 0 1 0 2 5 12 1 0 21 6 0 3 0 0 0
93 50 54 32 48 74 78 46 20 14 6 0 0 0 1 6 0 4 0 0 0 4 5 4 5 1 7 0 4 0 0 0 0 0 0 1 7 3 0 0 2 0 1 0 0 0 0
82 38 49 30 62 70 88 43 30 24 34 6 0 0 0 2 1 4 2 0 1 3 0 0 7 1 0 22 0 8 23 0 5 0 0 0 0 0 0 0 0 0 0 0 0 0 0
86 45 42 31 66 65 69 53 34 30 16 0 0 0 0 6 0 0 1 0 2 5 22 5 11 0 0 5 10 37 12 20 4 0 0 0 0 6 0 0 0 0 0 0 0 0 0
85 48 34 37 59 55 53 67 36 32 17 2 0 0 0 0 1 0 0 0 0 0 3 9 0 0 0 3 34 21 21 6 1 0 0 1 0 9 0 0 0 0 0 0 0 0 0
88 77 28 32 40 47 53 64 45 27 9 2 0 0 0 0 0 1 1 4 0 0 10 2 0 0 0 0 8 3 0 0 1 0 0 2 5 1 0 0 0 0 0 0 0 0 0
84 76 27 31 23 55 52 54 42 32 12 6 0 0 0 0 0 0 0 0 0 2 13 0 0 1 0 3 10 3 2 0 0 0 2 1 0 0 2 5 0 0 0 0 0 0 0
93 63 34 28 19 37 48 54 40 25 22 12 0 0 0 0 0 0 0 0 0 0 15 0 1 0 0 3 1 1 0 0 0 0 0 0 0 0 0 0 0 0 0 0 0 0 0

GFSGBSN_con_sbcape_012.txt.gz
CAPE
25 38 76 85 6 14 30 101 118 103 59 65 31 17 4 4 6 1 0 0 0 0 0 0 0 25 2 10 0 0 0 0 0 1 7 0 0 0 0 0 0 0 0 0 0 0 0
14 12 23 39 114 70 2 26 73 107 98 76 56 30 20 1 7 4 0 0 0 0 0 0 1 6 0 0 0 0 0 0 0 0 0 1 0 0 0 0 0 0 0 0 0 0 0
18 21 10 16 37 60 66 67 60 125 122 69 73 61 58 15 5 7 0 0 8 0 0 0 0 5 10 0 0 0 0 0 0 1 1 16 0 22 11 0 0 0 0 0 0 0 0
34 33 26 10 21 54 79 104 114 123 150 117 70 97 64 42 15 26 5 21 0 15 0 14 15 6 0 0 0 0 0 0 0 0 0 0 0 0 0 8 0 0 0 3 0 0 0
20 28 34 28 18 23 117 132 121 121 141 124 106 95 84 48 52 54 53 29 11 14 10 25 0 0 0 0 0 0 0 0 0 0 0 0 0 0 0 38 15 2 3 0 3 0 0
29 27 26 40 35 9 30 16 92 139 120 126 108 100 89 67 64 73 59 30 12 16 30 29 16 9 0 0 0 0 0 0 0 0 0 0 0 0 0 15 7 4 2 0 0 0 0
50 32 56 37 42 45 15 22 26 130 128 136 96 90 80 81 54 65 19 0 0 0 18 0 0 0 0 0 0 0 0 0 0 0 0 0 3 2 0 0 0 0 0 0 0 0 0
49 45 63 66 58 59 34 24 31 42 133 111 91 84 92 91 71 68 0 0 0 0 0 0 0 0 0 0 0 0 0 0 1 2 0 2 5 2 0 0 0 0 0 0 0 0 0
40 40 53 92 64 41 62 37 20 30 156 97 96 96 82 94 78 42 0 0 0 0 0 0 0 1 1 8 5 7 0 0 0 6 2 5 0 0 0 0 3 0 0 0 0 0 0
81 78 66 87 83 100 68 66 35 59 13 84 119 114 98 77 20 0 9 0 0 0 0 0 0 8 15 31 12 7 3 0 6 5 0 1 0 0 0 9 0 4 1 1 11 27 5
105 115 77 80 117 107 115 101 49 46 1 78 95 138 97 5 0 1 0 0 0 2 0 0 0 0 7 14 1 0 1 10 6 0 0 2 0 0 0 0 1 3 0 0 14 20 32
106 86 116 100 183 160 119 145 91 75 45 56 79 137 42 1 0 0 0 0 0 0 0 1 0 5 10 14 6 5 2 23 11 16 10 0 0 0 0 0 0 5 23 27 27 33 11
103 65 58 108 108 189 148 149 120 82 90 74 53 107 4 0 1 0 0 0 0 0 0 1 3 4 0 7 7 10 12 13 16 9 2 6 0 0 1 10 10 13 28 11 15 18 5
114 108 77 64 94 128 66 185 137 65 25 21 34 55 1 0 0 0 0 0 0 0 0 0 0 1 3 0 12 6 26 15 15 12 13 2 0 3 0 0 0 12 3 2 5 7 0
122 122 62 61 70 67 66 209 88 84 21 46 31 14 3 3 0 0 3 4 0 0 0 0 4 8 11 5 8 15 33 11 0 1 1 3 0 0 0 0 7 8 27 0 0 9 21
119 111 70 68 46 85 71 93 100 78 29 62 27 3 6 0 0 0 2 0 0 0 0 0 1 2 0 1 9 7 3 0 0 0 0 0 0 0 0 1 5 12 5 5 19 7 1
120 118 93 48 38 96 66 98 57 61 29 42 35 6 14 1 1 8 6 0 0 0 0 0 14 21 0 0 0 0 0 0 0 0 0 0 0 0 0 0 12 10 24 30 0 4 55
103 103 83 42 38 86 64 91 55 70 41 10 39 5 15 9 13 8 32 3 0 0 0 6 1 18 2 0 0 0 0 0 0 0 0 0 24 3 0 0 14 1 0 1 27 0 2
137 113 86 35 49 121 74 103 58 63 10 39 28 44 12 6 2 6 9 5 7 13 13 19 18 12 0 0 0 0 0 0 0 0 0 17 12 1 0 6 8 32 0 2 0 23 10
105 107 84 42 66 95 111 81 52 29 66 8 1 10 25 18 22 7 9 9 9 5 9 19 21 4 5 8 0 0 0 0 0 0 3 15 13 5 0 16 2 32 13 0 0 20 2
97 89 95 41 49 62 122 102 38 33 27 5 33 22 7 4 13 1 3 5 3 11 6 9 12 9 5 0 0 0 0 0 0 10 15 10 6 0 3 3 13 14 7 9 7 0 0
93 85 90 46 48 34 79 83 38 54 23 41 24 17 9 0 7 6 2 3 17 8 12 15 6 5 0 0 0 0 0 1 0 1 0 13 4 4 8 1 7 7 0 8 23 0 1
93 83 84 40 32 38 62 76 52 39 27 22 5 0 0 1 0 3 7 2 4 1 2 2 5 13 0 0 0 1 0 1 0 0 2 9 5 9 5 3 12 11 5 6 1 1 0
85 81 79 51 36 39 58 68 61 34 28 19 3 0 12 11 2 6 2 1 0 0 0 1 2 9 0 2 6 1 15 13 0 0 0 0 3 1 4 7 0 0 0 0 1 1 0
100 82 79 66 31 30 45 53 79 33 20 11 0 0 0 3 10 1 0 0 0 0 0 14 2 6 0 1 26 16 0 2 0 0 0 0 5 0 0 0 0 0 0 0 0 0 0
92 87 71 53 30 30 36 61 74 33 33 14 0 0 0 0 1 6 0 1 0 0 0 0 0 0 0 22 26 4 9 0 0 4 0 0 0 0 0 0 0 0 0 0 0 0 0
94 85 69 35 33 26 27 56 64 46 45 16 0 0 0 8 0 0 0 1 0 0 2 0 3 4 0 9 6 1 2 0 1 0 4 15 7 1 0 0 0 0 0 0 0 0 0
90 83 69 25 35 33 15 48 56 45 38 20 3 0 0 0 0 0 0 0 0 0 1 0 21 7 3 8 6 1 0 0 0 0 0 0 0 1 0 0 0 0 0 0 0 0 0
88 83 75 27 23 28 14 34 51 39 29 19 1 0 0 0 0 0 0 0 0 0 0 0 1 2 3 4 0 2 0 0 0 0 0 0 0 0 0 0 0 0 0 0 0 0 0

GFSGBSN_con_sbcape_015.txt.gz
CAPE
21 13 13 12 9 20 21 105 121 106 61 95 101 61 28 14 16 27 15 12 0 0 0 0 0 9 1 2 0 0 0 0 0 7 0 0 0 0 0 0 0 0 0 0 0 0 0
19 17 18 16 19 13 18 35 134 124 74 64 168 88 55 24 15 24 22 16 6 0 0 0 0 5 0 0 0 0 0 0 0 0 0 0 0 0 1 0 0 0 0 0 0 0 0
17 25 19 17 24 19 4 17 35 118 100 67 110 132 88 70 17 18 26 25 28 10 1 0 0 0 1 0 0 0 0 0 0 0 0 0 3 26 19 9 0 0 0 0 0 0 0
26 27 24 33 21 28 22 9 20 18 97 107 142 146 114 101 56 29 34 29 33 43 18 1 0 1 0 0 0 0 0 0 0 0 0 0 20 0 1 5 4 8 0 0 0 0 0
19 22 26 23 39 33 31 27 28 19 26 105 124 105 151 96 71 53 72 46 27 25 32 31 0 0 0 0 0 0 0 0 0 0 0 0 0 0 1 34 24 12 2 0 0 0 0
28 21 21 23 36 54 50 47 29 16 14 27 126 118 101 104 90 70 72 65 35 27 41 47 7 0 0 0 0 0 0 0 0 0 0 0 0 0 0 13 0 0 5 1 0 1 0
31 30 32 20 28 47 62 44 37 28 13 18 47 104 113 96 101 96 50 0 0 0 5 2 0 0 0 0 0 0 0 0 0 0 0 0 0 2 0 0 0 0 0 0 0 0 0
70 70 57 69 34 84 75 70 55 35 19 10 13 99 131 157 120 105 0 0 0 0 0 0 0 0 0 0 0 0 0 0 0 0 0 0 0 0 0 0 0 0 0 1 0 0 0
75 93 86 76 73 92 88 100 71 60 40 22 0 74 120 147 138 43 1 0 0 0 0 0 0 2 0 3 5 4 0 0 0 0 0 0 0 0 0 0 0 0 1 1 0 0 0
65 85 84 78 63 96 72 117 100 102 70 74 3 39 82 138 37 1 9 0 0 0 0 0 0 0 5 20 9 1 2 0 0 0 0 11 4 0 0 0 0 3 0 0 0 2 0
75 85 91 83 88 79 109 128 101 93 96 43 41 33 70 41 0 3 0 0 0 0 0 0 0 0 17 9 1 0 0 5 2 1 0 1 0 0 0 0 0 5 1 2 14 25 9
100 97 102 105 70 102 135 118 118 99 155 92 64 26 109 0 0 0 0 0 0 0 0 0 0 6 10 12 11 2 5 27 6 19 2 0 0 0 0 0 0 5 4 8 13 4 6
87 113 131 126 103 102 100 56 74 165 136 116 58 20 37 0 0 0 0 0 0 0 0 1 4 7 1 1 7 11 0 20 27 22 3 9 13 0 0 0 0 1 13 16 18 26 2
94 111 149 157 112 99 53 68 74 169 134 95 50 47 22 0 0 0 0 0 0 0 0 0 0 2 1 0 5 8 16 5 13 6 8 1 3 9 0 0 0 0 0 3 0 0 0
117 133 111 139 85 58 43 89 75 71 91 63 63 4 55 3 0 0 0 0 0 0 0 0 4 8 8 5 4 9 8 0 1 0 0 0 0 0 0 0 1 14 11 0 2 0 25
115 124 139 115 75 45 47 94 106 69 88 67 38 20 69 2 1 5 0 0 0 0 0 0 0 0 0 0 2 4 0 0 1 0 1 0 0 0 0 0 0 0 0 18 13 13 3
106 123 134 100 63 39 26 74 72 83 75 64 58 25 50 4 9 3 1 0 0 0 0 0 0 0 0 0 0 1 0 0 0 0 0 2 0 0 0 2 0 1 12 23 1 0 5
111 119 126 91 47 41 26 62 99 61 73 33 36 7 53 10 13 5 11 0 0 0 0 0 0 3 2 0 0 0 0 0 0 0 3 2 1 0 0 0 0 1 0 0 88 0 0
104 115 127 90 30 45 28 46 65 48 75 16 71 20 17 7 1 2 6 3 0 0 0 3 3 8 2 0 0 0 0 0 0 0 0 1 12 0 9 4 5 15 1 0 0 0 0
101 106 128 98 34 53 63 39 44 30 59 14 45 2 50 36 27 0 7 2 8 1 0 13 7 16 7 1 0 0 0 0 0 0 1 1 9 2 0 5 2 12 4 2 0 0 0
107 105 123 106 45 30 30 47 36 43 24 18 13 9 3 1 10 0 0 5 0 21 1 5 14 10 12 0 1 0 0 0 0 22 21 9 2 0 1 3 5 16 1 2 1 0 0
100 86 129 98 82 22 30 39 61 31 18 13 23 21 6 1 3 6 5 2 6 0 11 9 13 7 5 19 0 0 0 0 0 0 4 12 1 4 1 1 5 28 10 5 0 0 0
104 120 122 97 75 20 25 67 96 41 41 36 6 0 0 1 10 17 9 0 0 11 3 0 4 6 13 8 0 0 0 0 0 0 6 7 7 10 6 7 7 17 3 10 1 3 0
106 110 132 93 74 31 21 29 71 59 46 23 12 4 31 9 6 0 7 2 1 3 3 1 0 13 1 0 0 0 0 0 0 0 0 3 6 5 1 3 0 0 10 1 4 2 0
102 108 109 92 52 28 22 20 47 55 32 16 11 10 0 16 3 5 3 0 0 0 0 0 3 2 6 4 13 20 10 0 0 0 0 0 2 2 1 0 0 0 5 7 0 0 0
100 102 93 73 35 30 27 18 39 48 26 11 1 1 0 0 10 3 0 0 0 0 0 1 0 0 1 23 47 22 2 0 0 0 0 0 0 0 0 0 0 0 0 0 0 0 0
101 104 90 67 50 16 37 17 30 40 26 22 3 3 0 6 0 0 0 0 0 0 0 0 0 7 4 18 39 8 1 0 0 0 1 1 3 1 0 0 0 0 0 0 0 0 0
89 101 77 58 55 16 24 16 27 35 29 25 3 0 1 3 0 0 0 0 0 0 0 0 5 15 14 30 28 5 0 0 0 0 0 0 0 0 0 0 0 0 0 0 0 0 0
73 93 52 59 39 27 23 10 32 35 30 29 17 0 0 0 0 0 0 0 0 0 0 0 3 9 20 8 0 0 0 0 0 0 0 0 0 0 0 0 0 0 0 0 0 0 0

GFSGBSN_con_sbcape_018.txt.gz
CAPE
23 29 22 23 19 11 12 9 10 11 57 86 112 123 109 60 33 4 25 12 15 3 2 3 19 21 10 2 0 0 0 0 0 25 1 4 0 0 0 0 0 0 0 0 0 0 0
21 22 28 22 16 29 19 19 17 4 13 55 102 131 124 93 44 19 31 19 23 9 6 8 13 27 1 0 0 0 0 0 0 24 8 5 0 0 0 0 0 0 0 0 0 0 0
17 20 17 19 25 25 29 28 31 22 14 13 59 134 122 112 67 32 28 27 32 17 1 0 16 5 0 0 0 0 0 0 0 0 0 3 0 3 3 0 0 0 0 0 0 0 0
18 24 21 26 17 25 38 40 28 37 24 15 36 48 131 118 126 81 44 44 39 38 31 17 22 4 0 0 0 0 0 0 0 0 0 0 15 31 2 0 0 7 6 2 0 0 0
28 24 25 34 36 46 31 60 67 38 30 19 22 17 90 109 128 94 79 74 55 28 55 42 0 0 0 0 0 0 0 0 0 0 0 0 0 0 0 4 1 1 0 1 1 0 0
26 27 29 44 64 34 40 76 79 78 47 31 22 10 19 103 146 108 117 83 65 41 41 49 1 0 0 0 0 0 0 0 0 0 0 0 0 0 5 5 0 0 1 2 1 0 0
60 59 65 44 54 58 57 76 76 78 76 42 37 22 18 73 149 131 69 0 0 0 14 4 0 0 0 0 0 0 0 0 0 0 0 0 1 9 2 0 0 0 0 0 0 0 0
64 81 97 83 101 73 55 79 101 94 88 48 65 63 24 9 167 149 0 0 0 0 0 0 0 0 0 0 0 0 0 0 0 0 0 0 0 0 0 0 0 0 0 0 0 0 0
65 80 90 83 108 79 53 80 108 116 120 91 56 40 21 8 86 24 0 0 0 0 0 0 0 1 0 0 0 0 0 0 0 0 0 0 0 0 0 0 0 0 0 0 0 0 0
62 69 77 94 105 106 61 101 138 123 119 74 75 58 34 1 39 3 9 0 0 0 0 0 0 0 2 5 11 1 0 0 0 0 1 0 0 0 0 0 0 0 0 0 1 1 1
43 69 83 117 115 145 129 150 132 99 47 127 109 73 56 69 8 1 0 0 0 0 0 0 4 0 21 0 0 0 0 8 11 0 0 0 0 0 0 0 0 0 0 0 1 8 3
71 86 104 135 136 128 158 117 63 62 88 149 117 88 64 8 15 0 0 0 0 0 0 0 3 18 36 21 13 0 13 18 3 11 4 0 0 0 0 0 0 0 0 1 4 11 10
87 85 105 127 174 122 105 65 56 116 168 159 101 75 3 9 13 0 0 0 0 0 0 2 3 8 6 6 7 11 11 30 18 7 5 2 6 0 0 0 0 2 34 6 9 10 0
86 92 108 127 156 112 57 55 38 114 99 119 96 96 57 67 3 0 0 0 0 0 0 0 0 3 0 0 2 7 17 14 10 12 15 3 0 0 0 0 0 0 0 1 0 0 0
98 98 112 122 134 101 40 37 43 181 89 82 104 4 12 26 6 0 0 0 0 0 0 0 3 0 6 0 1 4 16 7 0 17 7 0 0 0 0 0 1 30 1 0 4 0 6
89 106 113 126 134 103 31 46 49 163 69 77 43 0 0 1 26 7 0 0 0 0 0 0 0 0 0 1 4 9 0 0 0 0 0 0 2 0 0 0 0 1 0 20 2 0 0
76 120 119 127 126 107 42 38 58 89 76 57 53 2 1 5 69 15 1 0 0 0 0 0 0 0 0 0 0 0 0 0 0 0 0 0 0 0 1 0 0 5 16 8 1 5 0
85 118 126 130 134 120 46 37 69 88 82 29 24 0 25 70 10 20 4 0 0 0 0 0 0 0 0 0 0 0 0 0 0 0 0 2 29 1 0 0 0 0 0 0 3 0 0
98 119 118 125 139 121 39 46 58 63 77 24 31 10 56 26 3 5 3 0 0 0 0 0 0 0 3 0 0 0 0 0 0 0 0 0 15 3 0 0 4 9 0 2 0 9 0
103 124 115 120 133 114 44 50 52 59 65 34 29 2 16 36 18 1 1 5 0 0 0 0 9 14 1 8 0 0 0 0 0 0 0 0 13 0 0 0 2 15 21 8 6 1 0
99 119 111 118 123 90 38 22 41 56 39 15 8 5 3 3 3 0 0 0 3 4 0 1 14 0 15 11 2 0 0 0 0 0 6 16 2 1 2 3 1 13 3 9 9 0 0
108 121 106 115 102 73 40 22 63 66 40 10 10 23 1 1 5 0 1 0 0 0 0 5 2 3 11 20 0 0 0 0 0 0 0 12 1 1 2 1 1 9 33 11 9 1 3
110 120 112 95 106 57 27 44 75 51 43 11 14 4 12 6 14 0 0 0 0 0 1 2 0 6 13 8 0 0 0 0 0 2 0 6 6 12 0 1 8 7 2 11 5 1 0
95 111 126 93 80 53 24 31 31 45 52 36 21 16 34 12 5 4 4 0 0 2 2 0 1 11 9 2 4 0 0 0 0 0 0 1 5 8 1 2 0 7 3 0 0 0 0
90 100 107 70 64 57 12 34 25 43 40 18 10 19 7 3 1 8 19 0 0 7 6 0 0 1 17 4 10 1 5 0 0 0 0 0 2 15 7 0 0 0 4 1 5 0 0
69 88 88 66 67 47 19 37 33 45 32 12 2 2 4 10 0 0 2 8 1 2 8 0 0 0 25 29 16 8 0 0 0 0 0 0 0 5 0 0 0 0 0 0 0 0 0
59 66 70 66 53 53 39 27 16 45 32 11 5 2 6 1 0 0 0 1 0 0 0 0 0 0 15 10 15 8 6 0 0 0 5 3 2 3 0 0 0 0 0 0 0 0 0
66 62 64 59 55 53 42 31 12 44 33 17 1 0 5 0 0 0 0 0 0 0 0 0 1 6 9 21 16 11 9 0 0 0 0 0 0 0 0 0 0 0 0 0 0 0 0
61 62 71 64 56 50 34 26 13 41 41 24 10 0 5 1 0 0 0 0 0 0 0 0 0 10 10 41 8 4 5 0 0 0 0 0 0 0 0 0 0 0 0 0 0 0 0

GFSGBSN_con_sbcape_021.txt.gz
CAPE
27 30 27 25 20 16 18 13 15 17 20 23 22 38 116 125 117 52 9 4 4 4 4 3 8 8 1 13 3 0 0 0 0 0 12 0 0 0 0 0 0 0 0 0 0 0 0
24 24 22 21 31 30 21 27 18 19 18 20 24 30 35 99 136 110 32 8 12 20 0 11 0 10 0 0 0 0 0 0 0 36 14 8 0 0 0 0 0 0 0 0 0 0 0
34 20 23 28 30 42 43 36 24 26 30 23 19 23 28 46 85 133 43 17 25 41 16 1 13 0 0 0 0 0 0 0 0 7 14 12 0 3 0 0 0 0 0 0 0 0 0
31 33 24 30 27 32 38 37 28 61 59 46 34 25 24 26 70 143 103 42 38 68 56 15 31 0 0 0 0 0 0 0 0 0 0 1 3 14 4 0 0 7 1 0 0 0 0
25 46 37 31 39 48 43 53 39 73 65 67 71 23 24 24 23 109 104 127 76 45 79 70 0 0 0 0 0 0 0 0 0 0 0 20 0 0 0 0 0 0 0 0 0 0 0
43 62 55 83 75 51 47 42 34 72 76 89 69 36 22 21 16 77 129 120 85 24 42 46 2 0 0 0 0 0 0 0 0 0 0 0 0 1 9 4 0 0 0 0 0 0 0
85 98 87 89 87 74 88 61 49 67 86 99 91 67 46 23 41 42 75 15 0 11 13 0 0 0 0 0 0 0 0 0 0 0 0 0 4 8 4 0 0 0 0 0 0 0 0
79 82 76 74 83 88 91 84 60 81 112 101 116 60 28 11 56 9 9 0 0 0 0 0 0 0 0 0 0 0 0 0 0 0 0 0 5 1 0 2 2 5 5 6 0 0 0
64 64 73 83 95 82 85 92 102 153 157 89 85 77 23 17 29 21 8 0 0 0 0 0 0 5 0 0 0 0 0 0 0 0 0 0 0 0 0 0 1 1 1 0 1 0 0
72 68 74 79 84 104 109 128 116 141 98 93 68 98 81 64 44 31 5 0 0 0 0 0 0 0 11 16 1 0 0 0 0 0 2 0 0 0 0 0 0 3 0 0 0 2 0
73 69 73 76 86 106 119 131 118 76 32 63 69 168 80 95 53 57 3 0 0 0 0 0 5 1 11 4 0 0 0 4 1 0 0 0 0 0 2 0 0 0 0 0 0 6 4
45 59 71 81 92 107 114 107 57 43 159 99 192 170 117 83 38 7 0 0 0 0 0 2 8 21 27 21 18 0 12 29 5 10 8 0 0 0 0 0 0 0 0 1 6 13 17
56 74 75 83 104 115 114 84 39 50 144 144 134 175 96 38 0 45 0 1 0 0 0 3 6 27 22 11 20 6 26 26 14 8 8 7 5 0 0 0 0 1 37 17 12 24 1
39 47 73 101 118 124 113 72 45 46 128 112 82 114 68 1 1 20 20 2 0 0 0 0 1 9 3 8 6 17 12 18 20 10 15 0 0 3 5 2 0 5 1 1 0 0 0
45 58 84 115 127 132 107 80 27 59 189 100 49 64 18 18 48 44 11 0 0 0 0 1 6 4 3 0 0 5 8 7 6 10 1 1 0 0 0 0 1 28 6 0 3 0 12
50 70 104 126 129 147 110 81 34 79 172 94 20 17 1 5 62 17 0 0 0 0 0 0 0 0 1 0 0 4 1 0 0 4 1 0 2 0 0 1 0 13 0 6 15 1 9
76 84 111 127 132 131 101 71 59 65 128 64 36 21 22 67 18 5 1 0 0 0 0 0 0 0 0 1 0 2 0 0 0 0 0 0 1 0 0 11 1 7 29 31 5 20 5
74 81 106 123 131 113 107 63 35 40 111 3 16 12 17 49 0 1 0 0 0 0 0 0 0 0 0 0 0 0 0 0 0 0 0 1 1 0 0 0 0 0 1 5 16 0 1
69 81 110 116 112 100 84 41 23 44 88 26 10 21 75 1 3 3 0 0 0 0 0 0 0 0 0 0 0 0 0 0 0 0 0 0 10 0 0 0 0 4 1 2 1 2 2
64 84 104 113 109 94 77 31 13 41 47 42 16 3 2 21 2 3 0 0 0 0 0 0 0 0 0 5 0 0 0 0 0 0 0 0 0 0 0 0 0 4 5 6 5 3 0
69 81 102 112 89 79 53 33 18 35 54 11 17 9 3 4 3 0 0 0 0 0 0 0 0 1 4 13 9 2 0 0 0 0 0 0 13 3 1 0 0 0 3 11 6 0 0
65 73 84 105 62 58 48 22 25 26 68 14 8 11 1 0 0 0 0 0 0 1 0 0 0 0 0 20 2 0 0 0 0 0 0 6 3 7 4 4 2 1 4 4 6 4 1
57 61 71 90 57 59 43 23 33 52 55 18 12 8 9 13 0 0 0 0 0 0 0 1 0 0 8 3 11 0 0 0 0 3 2 10 4 8 0 0 1 10 6 3 9 8 0
27 44 67 71 42 57 57 21 33 30 62 35 14 18 9 15 2 0 0 0 0 0 3 2 1 11 13 2 4 2 0 0 0 0 0 5 6 7 0 2 2 0 3 0 1 2 0
41 50 59 62 42 28 39 24 26 13 55 12 13 20 8 7 7 0 0 0 0 1 16 9 4 1 2 19 17 8 0 1 0 0 0 0 4 19 22 3 0 0 0 0 0 0 0
40 49 59 58 39 38 25 15 22 5 37 5 2 5 7 10 0 0 5 0 0 1 12 4 0 0 5 31 31 31 0 0 0 0 0 0 0 8 2 3 0 0 0 0 0 0 0
28 42 52 66 48 49 30 10 12 2 24 16 3 6 6 13 0 0 1 4 3 1 2 1 0 12 3 24 39 12 0 0 0 0 0 3 5 3 4 5 0 0 0 0 0 0 0
14 30 43 52 44 44 37 19 2 3 25 30 3 1 9 10 0 2 0 0 0 0 0 0 4 3 17 19 27 13 1 0 0 0 0 0 0 0 0 0 0 0 0 0 0 0 0
8 12 27 42 61 33 54 23 3 12 20 50 7 0 2 5 0 0 0 0 0 0 0 0 1 0 6 11 7 8 0 0 0 0 0 0 0 0 0 0 0 0 0 0 0 0 0

GFSGBSN_con_sbcape_024.txt.gz
CAPE
21 21 22 21 31 31 33 25 16 17 18 15 17 11 13 20 40 100 122 13 6 0 0 0 0 0 18 24 11 0 0 0 2 61 28 3 1 2 0 0 0 0 0 0 0 0 0
21 18 20 18 27 34 38 44 34 19 26 37 29 30 13 21 24 98 129 76 14 5 0 9 0 5 0 3 0 0 0 0 16 47 44 4 4 0 1 0 0 0 0 0 0 0 0
10 14 30 31 32 41 54 49 38 36 27 60 54 34 34 10 23 44 120 88 57 28 0 1 2 5 6 0 0 0 0 0 1 72 38 19 0 0 13 15 6 1 0 0 0 0 0
24 32 33 48 38 39 38 26 17 29 28 61 69 63 49 15 29 26 74 148 166 108 48 0 15 1 0 0 0 0 0 0 0 0 59 43 6 1 3 0 2 0 0 0 0 0 0
42 61 72 67 70 66 47 58 49 26 38 55 83 69 60 46 23 23 37 161 153 96 84 40 4 0 0 0 0 0 0 0 0 0 7 53 19 0 0 1 4 2 0 0 0 0 0
57 42 70 74 74 95 86 84 96 77 55 57 86 89 72 46 27 13 11 107 88 77 95 3 1 1 0 0 0 0 0 0 0 0 4 8 3 7 2 6 0 0 1 0 0 0 0
46 58 61 70 79 85 86 88 92 107 86 90 124 107 105 44 15 6 22 18 15 46 57 9 1 0 0 0 0 0 0 0 0 14 13 6 13 3 0 0 0 0 0 2 0 0 0
56 70 64 64 74 75 88 97 108 97 128 140 144 103 95 48 18 15 34 40 0 0 6 0 7 0 0 0 0 0 0 0 7 16 14 8 12 0 1 1 2 4 4 3 1 1 0
71 80 66 83 78 84 95 108 130 109 88 84 82 103 45 28 49 49 79 39 0 0 0 0 2 1 3 0 0 0 0 2 2 10 7 1 0 0 3 6 9 5 5 4 2 4 4
52 57 70 89 85 104 124 129 122 110 56 61 101 63 62 77 54 43 84 43 0 0 4 0 4 2 12 7 0 0 0 0 0 4 8 5 4 0 0 5 4 6 2 3 6 3 2
35 75 80 74 104 128 144 138 116 79 50 64 101 225 58 117 44 75 16 1 0 0 11 0 9 12 13 0 0 3 0 1 12 0 0 0 0 6 1 2 3 1 0 0 5 7 3
69 86 81 86 109 149 139 128 111 71 88 89 110 97 75 130 117 23 12 0 0 8 1 15 18 39 24 21 7 14 16 21 10 12 11 3 0 1 4 1 1 3 7 13 11 24 27
52 61 87 94 130 132 128 128 89 41 52 158 116 86 49 135 51 93 24 0 7 17 0 11 11 36 11 14 30 22 28 30 15 23 22 12 10 1 0 5 5 17 25 16 8 30 1
58 86 90 104 138 121 129 123 69 29 52 110 185 24 147 111 122 105 54 2 11 0 4 3 16 26 23 10 13 12 24 25 23 15 8 3 2 5 5 3 8 17 13 14 0 0 0
65 85 97 108 114 124 134 120 76 37 150 166 56 46 134 82 66 25 4 11 1 0 1 4 12 9 10 5 3 9 12 4 2 9 3 8 1 0 2 3 2 14 19 1 23 17 37
60 83 86 103 108 124 116 105 51 36 117 129 20 30 75 52 63 27 1 10 0 0 0 1 2 1 4 6 4 1 3 0 2 8 6 0 6 0 1 6 10 18 4 8 35 12 14
57 76 88 96 110 120 105 93 30 40 96 98 10 12 43 47 94 9 25 4 7 0 0 0 0 4 3 3 5 3 0 0 0 0 21 4 0 1 15 11 0 7 28 57 16 29 10
55 76 87 96 106 106 98 28 33 22 99 16 18 19 6 7 0 3 27 1 8 0 0 0 0 0 1 1 3 0 0 0 0 0 6 2 9 5 3 0 0 1 3 4 29 3 15
57 73 79 90 99 80 75 21 33 30 43 15 16 11 68 58 15 13 7 9 1 1 0 0 0 0 0 0 0 0 0 0 0 0 0 4 21 5 0 1 0 8 0 0 17 19 24
56 68 67 72 74 86 64 16 22 38 35 38 4 9 2 23 9 4 12 8 9 0 0 0 0 0 0 0 0 0 0 0 0 0 0 3 10 0 0 0 6 14 2 4 10 17 6
50 66 63 56 65 43 62 10 14 42 43 5 13 12 4 16 35 4 0 0 0 0 0 0 0 0 0 3 1 0 0 0 0 0 1 2 15 4 1 0 2 5 10 13 3 5 7
49 30 57 57 57 36 40 20 15 26 32 13 14 14 8 4 1 0 0 0 0 0 0 0 0 0 1 5 0 2 3 3 0 0 5 14 12 22 8 2 5 5 8 6 8 13 12
48 59 60 59 51 20 29 25 13 18 25 22 13 10 8 2 9 4 0 0 0 1 0 0 0 0 0 0 0 8 1 0 2 1 3 14 10 15 13 0 6 7 8 6 4 5 5
39 40 47 57 52 11 29 26 13 7 34 25 21 12 6 17 12 8 0 0 0 0 10 5 1 7 20 6 12 13 11 17 9 10 14 11 17 15 6 7 14 6 6 2 7 1 6
33 31 42 47 58 24 21 19 21 10 34 25 10 10 9 18 9 4 0 0 1 0 4 3 8 4 1 12 15 6 6 12 3 5 23 19 24 48 43 25 0 1 0 6 2 0 0
18 22 24 25 36 24 21 20 18 11 24 15 4 21 26 23 3 0 2 0 3 0 0 2 2 0 21 34 30 38 9 0 0 0 0 1 4 10 21 7 4 0 0 0 0 0 0
11 14 13 11 26 28 14 28 4 6 25 21 11 5 11 12 5 0 6 11 12 1 13 7 3 14 15 22 24 45 8 0 0 0 2 5 8 12 15 16 0 0 0 0 0 0 0
8 11 17 10 10 31 30 10 4 4 17 30 7 11 9 6 0 0 0 0 0 11 9 2 8 9 24 29 34 35 30 0 1 0 0 1 4 7 11 6 0 0 0 0 0 0 0
8 10 12 8 3 8 7 3 2 7 14 20 16 5 3 7 4 0 0 0 0 1 4 0 0 11 19 11 9 24 28 6 1 5 0 1 0 0 0 0 0 0 0 0 0 0 0

GFSGBSN_con_sbcape_027.txt.gz
CAPE
9 11 16 23 23 25 24 26 30 27 19 19 20 33 34 24 10 22 21 100 99 37 7 1 0 0 1 24 21 1 0 0 23 67 36 10 17 6 3 0 0 0 0 0 0 0 0
16 20 25 25 26 32 31 25 20 16 24 25 23 36 42 42 16 6 25 83 125 58 14 3 0 0 11 6 4 0 0 0 5 62 46 19 17 25 20 10 0 4 1 0 0 0 0
30 35 55 36 40 35 34 42 31 21 21 25 25 38 50 51 35 18 17 10 141 66 31 29 0 0 10 0 0 0 0 1 37 37 61 17 4 5 29 15 9 1 1 0 0 0 0
43 60 50 48 54 59 72 73 80 68 51 32 36 48 61 58 55 38 16 10 39 93 78 39 6 7 10 0 0 0 0 5 16 55 71 52 3 6 4 0 0 0 1 0 0 0 0
42 43 60 59 69 69 69 80 76 114 126 113 31 49 81 88 67 39 10 13 14 127 82 49 14 8 5 0 0 0 0 26 0 20 85 11 14 0 0 5 9 6 0 0 0 0 0
36 41 60 63 85 78 80 88 92 102 100 107 102 84 86 106 88 48 11 16 3 99 73 44 19 5 0 0 0 0 0 15 5 8 23 23 0 0 0 3 10 1 1 0 0 0 0
55 67 73 64 90 77 95 114 115 144 138 127 133 160 135 131 117 82 53 8 73 41 56 11 0 1 1 0 0 0 0 11 11 22 6 6 11 6 1 17 6 0 0 0 0 0 0
48 47 49 57 83 88 105 134 146 158 166 138 94 91 140 125 79 43 64 13 35 8 25 21 0 2 3 0 1 2 8 8 8 8 1 9 9 0 1 0 0 0 1 0 0 0 0
39 62 78 89 79 93 121 138 145 158 149 124 38 84 97 91 19 113 69 13 0 2 17 17 6 6 1 0 6 5 2 6 11 1 11 12 0 0 0 1 1 0 0 0 0 0 0
56 60 67 67 88 112 124 142 142 144 131 86 30 70 86 105 75 48 24 9 14 11 28 7 20 13 5 5 8 4 1 7 6 1 5 11 1 0 0 1 0 1 0 2 4 1 0
53 64 68 83 99 118 133 125 143 145 110 48 49 85 151 160 61 82 56 86 11 18 30 7 14 14 10 1 3 9 9 15 8 12 0 1 0 4 2 0 2 1 1 0 4 3 0
51 64 81 93 103 114 121 136 132 122 81 84 64 102 135 133 184 97 117 15 6 12 17 11 14 14 18 14 10 15 16 15 5 1 7 7 0 3 4 2 5 1 2 0 5 2 3
43 66 71 91 104 109 118 132 138 125 63 65 99 209 79 57 112 176 112 19 22 14 1 19 16 19 13 8 13 19 22 23 9 14 14 2 4 4 2 5 5 11 12 4 11 18 0
51 62 74 92 99 107 116 118 115 73 50 71 180 124 110 139 187 184 0 13 50 6 2 4 22 32 25 11 20 12 15 23 11 5 0 2 6 4 2 5 5 12 14 0 0 0 0
48 61 80 94 93 104 99 94 60 30 74 100 47 22 168 172 168 16 8 35 66 6 3 15 35 30 36 8 11 21 12 17 7 7 3 3 1 0 4 6 3 9 12 1 10 3 3
53 61 76 87 94 85 84 78 32 28 94 85 22 34 87 154 101 44 7 14 3 2 0 16 9 2 11 14 14 6 18 4 0 7 5 4 4 0 7 5 1 3 4 2 15 6 1
44 64 78 87 81 60 68 46 23 30 53 54 18 7 113 103 81 21 79 30 10 4 6 8 2 2 1 11 3 2 4 0 4 3 4 0 1 2 2 2 0 4 8 8 6 37 9
45 52 74 70 63 40 52 28 25 47 47 15 13 9 86 90 3 5 36 7 5 7 3 1 6 3 5 7 7 7 0 0 0 0 2 2 2 6 0 0 0 1 0 6 28 0 5
52 56 58 56 52 30 51 20 20 28 61 14 9 10 40 32 56 45 14 29 15 13 2 0 1 0 1 2 1 1 0 0 0 0 5 2 13 2 0 0 0 2 0 0 13 15 18
45 48 63 59 52 45 21 31 22 12 19 9 9 29 14 11 47 28 31 23 17 7 5 0 0 0 0 1 0 2 1 0 0 0 0 10 7 0 0 0 9 17 3 4 7 15 8
35 47 56 47 51 17 28 30 22 18 3 6 7 19 5 24 17 24 10 7 0 0 0 0 0 0 1 0 1 2 2 0 0 0 0 7 31 10 8 2 3 9 10 5 5 6 6
31 43 38 40 48 10 29 27 25 21 0 11 9 14 2 7 10 14 0 6 10 1 1 0 3 0 3 7 7 5 5 5 5 1 1 8 24 34 10 0 1 13 3 3 6 5 6
23 25 41 29 41 21 32 26 28 13 12 12 12 6 7 11 7 7 3 5 11 2 2 6 5 6 6 9 0 4 0 0 0 4 3 13 24 19 2 0 1 5 0 8 10 11 4
14 15 23 28 21 18 22 27 16 9 37 36 18 11 7 14 6 6 1 0 1 0 16 0 2 9 19 5 6 3 1 4 4 0 12 14 28 22 20 1 6 5 3 0 2 3 3
9 9 11 13 12 11 11 35 12 6 20 13 13 8 8 19 0 10 1 0 0 0 4 5 11 2 1 14 11 11 10 12 4 16 25 8 21 47 35 11 0 0 2 0 7 2 0
12 6 8 16 13 22 23 31 12 3 12 14 17 6 11 9 3 4 2 2 5 8 8 5 7 12 5 16 24 2 7 2 9 4 0 0 12 24 22 18 5 2 0 0 0 2 0
17 8 4 8 5 4 5 6 6 4 10 25 26 2 6 7 11 14 7 12 7 8 16 12 11 16 14 31 30 18 10 5 7 3 2 11 10 11 12 22 1 0 0 0 0 0 0
19 11 5 6 6 7 8 7 6 5 8 20 22 13 6 5 0 3 11 22 24 31 15 6 3 3 9 22 37 16 6 15 3 2 4 2 2 3 14 12 0 0 0 0 0 0 0
18 16 10 7 7 8 12 16 15 16 8 6 12 7 9 8 0 2 16 6 2 12 39 8 4 10 24 23 18 14 28 11 7 6 0 1 2 9 6 6 0 0 0 0 0 0 0

GFSGBSN_con_sbcape_030.txt.gz
CAPE
19 22 21 24 25 25 22 33 24 26 38 44 42 35 30 42 57 40 18 6 35 113 77 8 1 0 0 13 3 18 18 10 48 73 41 14 1 0 0 0 0 0 0 0 0 0 0
36 33 54 43 41 45 54 62 61 48 47 58 51 40 26 51 68 60 40 20 28 78 126 10 0 0 0 5 14 0 0 0 0 67 62 40 7 1 3 0 1 0 0 0 0 0 0
47 41 49 57 62 69 76 47 63 66 85 111 97 81 53 44 54 68 57 35 21 13 123 51 2 0 0 0 0 0 0 0 6 40 64 68 14 18 23 17 7 4 0 0 0 0 0
59 24 52 56 84 86 68 71 68 82 92 119 140 150 84 54 78 94 73 37 11 16 7 64 50 0 13 0 0 0 0 0 3 16 77 66 1 0 13 1 6 0 0 0 0 0 0
33 50 41 58 54 73 72 84 87 103 125 148 133 158 148 90 93 113 93 46 13 0 3 81 51 21 1 0 0 0 0 0 1 72 102 25 12 0 0 0 3 4 0 0 0 0 0
66 29 36 58 91 98 78 84 108 126 151 169 166 167 149 130 162 128 108 51 6 0 61 64 43 50 2 0 0 0 0 10 0 82 52 26 0 0 0 1 2 0 1 0 0 0 0
32 42 55 57 70 74 92 115 133 149 152 150 154 184 94 124 173 141 100 62 46 132 133 10 28 3 0 0 0 0 0 4 5 20 4 15 3 2 0 0 0 1 0 0 0 0 0
36 55 60 63 80 88 109 132 143 136 146 141 159 132 57 111 107 121 105 13 2 16 24 30 16 17 0 0 0 0 5 9 11 25 15 1 1 0 1 2 1 0 0 0 0 0 0
41 60 65 78 85 102 115 130 137 137 153 143 116 51 62 159 197 56 36 2 2 0 24 28 27 16 0 0 0 0 8 0 0 4 4 1 0 0 0 0 0 0 0 0 0 0 0
53 71 70 72 80 95 112 124 143 155 145 114 63 65 93 156 94 65 59 36 6 17 5 25 18 16 4 6 7 0 3 3 2 3 3 4 0 0 0 0 0 0 0 0 0 0 0
49 59 66 72 84 96 100 128 132 133 149 121 68 72 102 116 45 6 78 7 10 24 7 17 3 12 5 0 1 9 3 5 1 0 1 0 0 0 0 0 0 0 0 0 0 0 0
42 47 64 74 85 90 93 93 104 111 72 74 59 63 145 74 152 68 73 20 19 2 2 18 1 15 28 34 11 1 5 4 1 5 3 2 0 0 0 0 0 0 0 0 0 1 0
45 49 63 75 76 80 76 75 72 42 44 43 41 56 37 55 55 131 15 0 31 19 2 20 6 22 11 23 20 7 13 2 0 0 4 0 0 1 0 0 0 3 1 0 0 2 0
50 50 65 72 67 69 68 62 64 28 31 119 69 68 5 101 118 1 13 5 4 47 7 0 18 16 17 13 19 19 22 16 12 0 4 0 0 1 0 0 2 7 2 0 0 0 0
41 56 62 59 60 64 52 68 31 18 89 89 57 19 37 210 148 14 20 1 13 2 1 13 32 9 19 15 5 21 10 11 5 4 0 0 0 0 0 1 1 2 0 0 1 0 0
31 65 58 59 58 57 47 60 25 46 94 106 29 0 60 130 51 7 12 28 4 1 7 20 5 10 8 16 6 10 17 4 0 5 0 0 2 0 7 1 0 0 0 0 3 0 0
53 54 52 58 51 41 38 37 16 40 84 51 0 9 55 58 42 30 11 2 1 20 10 2 2 2 2 8 7 6 0 0 2 1 1 1 0 0 0 0 0 1 2 1 1 2 0
50 50 52 44 53 19 29 31 14 36 84 21 11 1 65 55 1 4 6 12 3 10 2 8 3 0 0 3 4 0 0 0 0 0 0 0 0 0 0 0 0 0 0 0 2 0 0
49 47 62 31 55 21 26 30 12 23 41 18 6 2 32 3 7 22 2 19 5 11 3 0 2 3 0 0 0 4 1 0 0 1 3 0 2 0 0 0 0 0 0 0 0 0 0
46 43 45 38 56 23 34 21 21 7 22 23 17 6 8 25 30 3 15 17 8 14 6 0 0 0 0 0 3 1 0 0 0 0 0 0 3 0 0 0 0 0 0 0 2 1 0
41 30 33 44 44 27 22 25 11 10 34 8 1 9 4 25 19 16 11 14 7 4 1 1 0 3 3 1 2 0 0 0 0 0 0 1 1 0 0 0 0 0 0 0 1 1 4
29 22 21 31 35 23 14 30 4 18 9 5 6 4 2 0 9 6 5 1 10 2 8 1 0 0 1 0 0 0 0 0 0 0 0 0 1 1 0 0 0 0 0 0 2 5 7
25 18 16 15 19 27 11 26 5 10 10 13 5 6 5 0 0 12 15 5 6 3 0 1 2 2 5 3 0 0 0 0 0 0 0 16 2 0 0 0 0 1 0 1 1 4 10
21 15 18 18 24 33 29 27 6 3 14 7 14 9 3 9 0 4 2 0 1 14 5 0 0 9 2 0 0 0 0 0 2 2 0 2 5 14 0 0 0 0 0 0 0 0 3
22 19 18 17 8 10 11 11 9 2 2 3 11 9 8 5 3 1 0 1 0 9 1 3 0 0 0 0 3 2 0 9 0 0 2 0 13 15 7 0 0 0 0 0 0 0 0
33 17 15 20 11 7 9 3 3 5 4 0 9 2 6 4 6 12 4 0 1 1 2 9 4 0 0 4 2 0 3 4 3 1 0 12 0 7 0 2 0 0 0 0 0 0 0
41 13 18 18 19 12 10 15 7 4 6 0 10 0 5 6 1 1 6 14 1 2 13 11 8 11 3 10 2 1 1 2 1 3 6 10 10 4 3 11 0 0 0 0 0 0 0
44 17 9 17 21 20 12 15 16 12 6 2 0 2 9 6 0 0 20 19 3 21 17 2 2 2 1 12 3 10 0 0 0 0 0 0 0 1 9 12 0 0 0 0 0 0 0
49 17 15 9 24 19 20 17 19 12 15 6 7 11 10 11 0 0 0 0 0 0 16 4 3 3 12 11 6 1 8 1 1 1 0 1 2 0 0 0 0 0 0 0 0 0 0

GFSGBSN_con_sbcape_033.txt.gz
CAPE
35 47 33 49 45 39 67 74 64 61 74 90 74 72 78 56 32 56 61 69 41 44 58 118 72 30 17 16 0 6 189 218 64 56 7 0 1 0 0 0 0 0 0 0 0 0 0
53 65 40 46 62 80 57 50 66 79 78 83 105 108 89 96 60 22 47 60 63 58 21 35 109 80 17 2 0 0 0 22 56 64 48 44 0 0 0 0 0 0 0 0 0 0 0
38 25 73 44 58 41 61 60 71 78 93 114 114 141 154 116 87 55 64 86 66 44 10 6 132 36 0 0 0 0 0 0 0 76 35 61 26 8 0 3 0 0 0 0 0 0 0
26 62 35 43 61 66 74 81 87 100 126 141 142 150 194 158 150 117 94 89 66 25 0 0 97 24 3 0 0 0 0 0 0 7 71 72 1 0 0 0 0 0 0 0 0 0 0
69 38 54 52 57 76 80 93 107 124 142 159 158 167 174 173 151 150 118 104 52 14 3 2 78 23 3 0 0 0 0 0 0 54 48 25 5 0 0 0 1 1 0 0 0 0 0
36 49 49 48 78 85 99 105 113 125 143 142 168 187 203 194 140 164 141 113 30 9 0 3 39 18 3 0 0 0 0 0 6 59 16 1 0 0 0 1 0 0 0 0 0 0 0
43 60 52 68 84 90 107 124 109 120 146 145 154 195 169 107 137 127 20 0 2 45 22 57 15 0 0 0 0 0 0 0 44 24 28 4 0 2 1 0 0 0 0 0 0 0 0
55 59 61 74 78 94 107 101 93 108 140 140 126 103 74 87 193 191 98 9 1 3 5 16 0 1 0 0 0 0 0 0 9 4 0 0 0 0 0 0 3 0 0 0 0 0 0
47 47 49 75 85 99 84 84 80 92 105 130 128 69 94 130 191 28 4 3 30 7 5 19 15 6 0 0 0 0 2 0 1 3 0 0 0 0 0 0 0 0 0 0 0 0 0
46 45 51 79 89 84 70 74 70 71 75 75 63 62 97 144 90 30 0 18 4 0 1 23 34 10 3 13 0 0 9 0 3 0 0 0 0 0 0 0 0 0 0 0 0 0 0
28 32 55 78 93 75 63 69 60 66 41 53 48 40 41 76 24 16 27 0 0 0 3 17 25 10 10 0 0 8 0 0 0 0 0 0 0 0 0 0 0 0 0 0 0 0 0
33 31 54 81 76 61 61 46 65 37 25 88 59 67 86 13 46 36 3 0 0 0 0 11 6 22 23 12 4 0 0 0 0 3 0 0 0 0 0 0 0 0 0 0 0 0 0
30 44 59 75 74 64 46 55 67 32 28 77 81 107 66 52 52 6 0 0 0 0 6 5 13 13 8 24 1 3 0 0 0 0 0 0 0 0 0 0 0 0 0 0 0 0 0
27 47 60 60 68 70 40 48 50 38 61 99 91 88 5 55 35 0 1 1 0 5 12 7 5 10 9 16 7 10 1 0 0 0 0 0 0 0 0 0 0 0 0 0 0 0 0
30 44 69 64 63 55 26 46 42 64 100 101 18 2 10 18 0 6 32 0 1 20 4 11 10 0 18 13 9 8 4 0 0 0 0 0 0 0 0 0 0 0 1 0 0 0 0
17 43 54 58 65 36 27 46 25 71 96 7 0 2 18 31 0 0 6 30 5 9 3 0 0 3 8 17 8 8 12 1 0 0 0 0 0 0 1 0 0 0 0 0 0 0 0
24 30 45 47 54 33 22 34 21 37 65 12 0 11 2 10 18 8 3 2 6 8 0 4 0 4 3 10 5 9 0 0 0 0 0 0 0 0 0 0 0 0 0 0 0 0 0
27 27 29 51 38 32 19 26 20 30 40 0 0 7 0 0 0 3 0 3 11 0 0 5 0 0 0 1 1 0 0 0 0 0 0 0 0 0 0 0 0 0 0 0 0 0 0
27 17 30 44 38 26 11 17 16 22 31 0 0 0 0 0 0 0 4 1 11 16 15 9 4 0 0 0 0 0 0 0 0 0 5 0 0 0 0 0 0 0 0 0 0 0 0
22 12 22 27 29 29 8 16 9 7 2 0 0 0 0 0 0 0 5 0 8 3 1 0 0 0 0 4 0 0 0 0 0 0 6 0 0 0 0 0 0 0 0 0 0 0 0
19 11 14 19 33 30 10 13 6 13 0 0 0 0 1 0 0 0 0 0 0 0 0 0 10 0 0 0 0 1 0 0 0 0 0 0 0 0 0 0 0 0 0 0 0 0 0
21 16 14 20 25 29 36 12 7 13 0 0 1 2 0 0 0 0 0 0 3 0 0 0 0 1 0 0 1 0 0 0 0 0 0 0 0 0 0 0 0 0 0 0 0 0 0
25 15 16 21 17 10 11 14 6 6 0 1 1 1 5 0 0 0 0 1 0 0 0 0 1 2 7 3 0 0 0 0 0 0 0 2 0 0 0 0 0 0 0 0 0 0 1
17 19 16 27 19 10 9 8 7 3 1 1 9 6 4 0 0 0 0 0 0 0 0 0 0 4 1 0 0 0 0 0 0 0 0 1 1 1 0 0 0 0 0 0 0 0 0
13 15 19 28 29 13 10 14 11 6 2 0 5 3 7 0 0 0 0 0 2 0 1 0 0 0 0 0 0 1 0 5 0 0 1 2 3 0 1 0 0 0 0 0 0 0 0
13 29 11 19 27 24 10 14 16 11 4 0 6 0 3 6 0 0 5 0 0 3 1 7 1 0 0 0 0 0 2 1 2 2 2 0 0 10 0 0 0 0 0 0 0 0 0
15 38 6 17 17 27 12 15 11 12 7 0 2 0 2 7 0 0 0 0 1 0 6 9 5 5 0 0 0 0 0 0 0 1 6 4 12 2 9 8 0 0 0 0 0 0 0
8 31 12 12 20 25 25 20 11 17 11 1 0 0 0 5 1 0 0 5 2 4 12 0 0 0 0 0 0 0 0 0 0 0 0 0 1 6 19 6 0 0 0 0 0 0 0
4 28 10 3 14 28 8 16 12 10 10 8 0 0 8 3 1 0 0 0 0 0 0 2 0 0 7 4 3 0 0 0 0 0 0 0 0 0 0 0 0 0 0 0 0 0 0

GFSGBSN_con_sbcape_036.txt.gz
CAPE
34 40 38 51 34 40 53 34 59 68 77 98 120 114 117 130 89 98 51 42 43 47 30 47 50 63 21 10 0 0 114 121 31 19 0 0 0 0 0 0 0 0 0 0 0 0 0
30 33 52 37 41 37 63 64 70 88 106 114 126 145 161 178 140 122 96 49 65 62 38 25 4 85 2 0 0 0 55 107 18 32 0 7 0 0 0 0 0 0 0 0 0 0 0
37 34 41 44 31 61 68 86 87 91 104 111 135 160 194 213 162 158 165 122 90 91 37 2 0 30 6 0 0 0 50 86 60 47 16 17 18 0 0 0 0 0 0 0 0 0 0
41 38 40 40 67 64 82 86 79 95 95 99 126 160 176 195 186 154 143 144 95 89 56 11 0 23 1 0 0 0 0 0 0 43 51 60 27 0 0 0 0 0 0 0 0 0 0
29 47 39 32 58 65 82 86 83 81 85 104 126 161 169 186 203 158 152 197 186 122 62 24 0 25 0 11 0 0 0 0 0 29 40 42 11 1 0 0 0 0 0 0 0 0 0
40 25 45 53 64 80 81 90 80 82 83 99 138 159 162 166 137 139 139 162 77 73 30 28 0 8 1 0 0 0 0 0 29 91 33 2 1 1 0 0 0 0 0 0 0 0 0
36 49 44 58 61 74 88 71 89 72 72 102 108 110 117 100 147 178 130 8 0 32 67 0 7 0 0 0 0 0 0 0 87 38 28 0 2 3 8 0 0 0 0 0 0 0 0
37 31 24 62 60 71 70 77 80 73 65 74 81 55 76 90 160 189 57 16 0 9 1 1 0 0 0 0 0 0 0 4 33 9 1 0 4 3 4 0 0 1 0 0 0 0 0
25 23 25 70 61 72 68 73 73 71 66 32 34 60 65 89 103 23 0 3 15 5 3 0 0 2 0 0 0 0 0 2 0 0 0 1 0 0 2 0 0 0 0 0 0 0 0
17 25 26 61 65 61 58 54 52 70 28 27 11 35 60 92 37 10 0 28 8 1 0 5 29 31 6 0 0 0 4 0 1 2 0 0 0 0 0 0 0 0 0 0 0 0 0
31 32 56 52 54 57 65 49 59 65 55 43 33 50 141 121 24 35 10 4 1 0 0 9 28 14 1 0 0 0 0 0 0 0 0 0 0 0 0 0 0 0 0 0 0 0 0
20 33 45 34 54 59 47 40 52 53 66 86 121 143 141 72 25 38 0 0 0 0 0 1 5 3 10 0 0 5 8 0 1 0 0 0 0 0 0 0 0 0 0 0 0 0 0
23 31 39 48 47 67 21 45 38 52 122 110 106 34 29 60 58 10 0 0 0 0 2 4 16 27 2 6 1 1 1 0 0 0 2 0 0 0 0 0 0 0 0 0 0 0 0
14 30 41 30 41 60 26 31 27 34 70 83 5 2 39 58 2 0 0 0 0 0 0 4 8 9 12 8 18 4 1 0 0 0 0 0 0 0 0 0 0 0 0 0 0 0 0
14 22 29 37 37 54 29 39 22 30 90 56 0 0 2 20 0 2 5 0 0 6 4 12 9 5 8 8 9 2 0 0 0 0 0 0 0 0 0 0 0 0 0 0 0 0 0
19 20 20 36 34 36 28 32 16 41 52 0 0 0 9 15 0 1 5 7 4 9 1 0 1 0 0 6 3 0 0 0 0 0 0 0 0 0 0 0 0 0 0 0 0 0 0
24 13 14 23 23 15 19 28 10 21 40 0 0 0 0 0 1 9 5 1 9 3 0 0 0 0 0 2 0 0 0 0 0 0 0 0 0 0 0 0 0 0 0 0 0 0 0
23 11 11 12 8 15 18 17 5 18 26 0 0 0 0 0 0 2 0 4 4 0 0 0 0 0 0 4 1 1 0 0 0 0 0 0 0 0 0 0 0 0 0 0 0 0 0
23 10 7 9 16 16 28 20 5 7 17 0 0 0 0 0 0 0 0 0 12 1 0 0 0 0 0 0 0 0 0 0 0 0 0 0 0 0 0 0 0 0 0 0 0 0 0
31 10 7 5 4 6 12 14 5 0 1 0 0 0 0 0 0 0 0 0 3 0 0 0 0 0 0 0 0 0 0 0 0 0 11 0 0 0 0 0 0 0 0 0 0 0 0
33 18 6 5 5 2 5 5 3 0 0 0 0 2 2 0 0 0 0 0 0 0 0 0 0 0 7 5 0 0 0 0 0 5 0 0 0 0 0 0 0 0 0 0 0 0 0
9 34 10 7 4 2 3 4 3 3 0 0 0 2 0 0 0 0 0 0 0 0 0 1 0 3 0 2 0 0 0 0 0 0 0 0 0 0 0 0 0 0 0 0 0 0 0
1 34 10 9 5 3 2 6 3 3 0 0 1 0 5 0 0 0 0 0 0 0 0 0 0 8 8 5 0 0 0 0 0 0 0 0 0 0 0 0 0 0 0 0 0 0 0
0 25 10 19 6 2 5 4 10 4 1 0 6 7 2 0 0 0 0 0 0 0 0 0 0 2 1 0 0 0 0 0 0 0 0 0 0 0 1 0 0 0 0 0 0 0 0
0 8 8 13 17 4 1 8 6 5 4 0 5 3 4 0 0 0 0 0 0 0 0 0 0 0 0 0 1 0 2 12 4 0 0 1 8 1 0 0 0 0 0 0 0 0 0
0 1 23 4 16 14 7 8 9 7 2 0 4 0 4 1 0 0 0 0 0 0 0 0 0 0 0 0 0 0 7 0 6 10 1 0 7 0 2 0 0 0 0 0 0 0 0
0 0 22 3 9 12 16 12 10 5 7 0 0 0 5 6 0 0 0 0 0 0 0 5 6 1 0 0 0 0 0 0 3 2 28 23 33 12 1 5 0 0 0 0 0 0 0
0 2 20 7 0 8 14 10 25 23 10 0 0 0 5 7 0 0 0 7 1 0 2 0 0 0 0 0 0 0 0 0 0 0 0 0 1 9 6 18 0 0 0 0 0 0 0
0 7 13 19 8 8 13 15 17 25 9 5 0 0 10 11 0 0 0 0 0 0 2 0 0 0 1 0 0 0 0 0 0 0 0 0 0 0 0 0 0 0 0 0 0 0 0

GFSGBSN_con_sbcape_039.txt.gz
CAPE
19 41 35 31 18 27 58 65 75 71 77 81 85 89 102 128 152 144 186 139 93 36 24 34 35 48 27 10 0 0 8 80 48 55 14 0 0 0 0 0 0 0 0 0 0 0 0
28 32 32 37 20 55 69 73 69 74 74 78 83 80 98 135 182 187 209 158 124 57 57 59 38 21 35 1 0 0 0 55 64 29 10 0 0 0 0 0 0 0 0 0 0 0 0
54 37 47 33 32 58 61 66 79 67 76 82 83 83 84 148 226 207 200 199 158 141 88 69 32 12 39 0 0 0 52 196 160 52 5 0 0 0 0 0 0 0 0 0 0 0 0
45 48 38 38 39 61 72 74 70 73 77 81 90 97 112 156 203 217 206 200 197 153 121 83 41 24 26 0 0 0 10 98 50 47 75 70 48 3 0 0 0 0 0 0 0 0 0
39 36 38 31 63 74 81 78 62 75 74 76 83 107 121 171 170 209 164 169 225 192 157 101 44 26 4 0 0 0 0 6 20 47 103 95 6 10 0 0 0 0 0 0 0 0 0
47 39 38 38 63 74 75 72 69 76 79 80 81 91 74 73 136 184 207 244 215 96 68 71 42 59 6 0 0 0 0 0 72 133 108 88 32 2 0 0 0 0 0 0 0 0 0
38 44 38 30 73 71 64 62 61 61 91 82 54 38 41 78 144 230 149 0 0 23 76 0 0 0 0 0 0 0 0 10 109 65 107 16 54 2 0 0 0 0 0 0 0 0 0
30 33 29 59 79 79 62 66 35 55 87 56 35 32 48 112 145 169 37 3 2 15 20 15 3 3 0 2 11 0 0 11 60 73 4 7 9 0 6 5 3 5 0 0 0 0 0
33 27 47 46 78 82 71 63 35 55 79 88 88 71 82 127 163 15 3 0 13 0 3 0 0 0 0 8 7 1 0 14 29 54 8 5 0 12 0 5 4 4 0 0 0 0 0
33 25 34 52 66 69 59 26 51 75 92 127 213 229 177 153 88 23 0 9 10 0 0 1 1 0 10 12 5 0 0 8 4 2 1 0 0 3 13 11 0 0 0 0 0 0 0
18 27 32 60 46 57 39 34 53 63 77 92 93 136 168 152 51 5 39 9 0 4 2 7 13 18 12 2 0 22 7 0 0 0 0 1 0 0 0 0 0 0 0 0 0 0 0
21 23 37 33 36 52 38 39 35 40 83 111 40 107 73 0 13 17 0 3 0 0 0 1 27 6 20 2 12 36 10 0 0 0 0 0 0 0 0 0 0 0 0 0 0 0 0
16 19 22 38 39 50 31 26 31 36 71 104 8 51 12 4 0 0 0 0 0 0 3 2 9 7 6 27 33 11 0 5 5 0 2 0 0 0 0 0 0 0 0 0 0 0 0
18 10 16 30 31 30 19 20 22 25 21 70 12 0 7 0 0 0 0 0 0 3 1 1 10 8 7 30 12 3 0 0 0 0 0 0 0 0 0 0 0 0 0 0 0 0 0
17 11 16 22 25 15 15 23 20 29 24 29 0 0 8 1 1 0 0 0 3 2 2 12 8 1 1 1 21 6 0 0 0 0 0 0 0 0 0 0 0 0 0 0 0 0 0
12 8 11 15 29 19 19 17 19 26 22 0 0 0 0 0 0 0 0 4 4 3 3 0 0 0 1 0 1 4 0 0 0 0 0 0 0 0 0 0 0 0 0 0 0 0 0
17 6 8 9 27 15 16 12 12 18 6 0 0 0 0 0 0 2 1 0 6 0 0 0 0 0 0 0 0 0 0 0 0 0 0 0 0 0 0 0 0 0 0 0 0 0 0
8 9 6 4 12 11 5 5 4 12 13 0 0 0 0 0 0 1 0 1 0 0 0 0 0 0 0 0 0 0 0 0 0 0 0 0 0 0 0 0 0 0 0 0 0 0 0
9 7 3 5 6 10 3 2 1 3 8 0 0 0 0 0 0 0 0 0 0 0 0 0 0 0 0 0 0 0 0 0 0 0 0 0 0 0 0 0 0 0 0 0 0 0 0
8 11 1 5 3 9 6 1 1 0 0 0 0 0 0 0 0 0 0 0 1 0 0 0 0 0 0 0 0 0 0 0 0 0 0 0 0 0 0 0 0 0 0 0 0 0 0
4 13 1 4 8 3 9 3 0 0 0 0 0 1 1 0 0 0 0 0 0 0 0 0 0 0 0 0 0 0 0 0 0 14 0 0 0 0 0 0 0 0 0 0 0 0 0
1 11 2 0 7 6 7 6 2 0 0 0 0 2 1 2 0 0 0 0 0 0 0 0 0 4 2 1 0 0 0 0 0 0 0 0 0 0 0 0 0 0 0 0 0 0 0
0 2 8 0 3 6 7 5 3 0 0 0 0 0 2 0 0 0 0 0 0 0 0 1 6 15 15 4 0 0 0 0 0 0 0 0 0 0 0 0 0 0 0 0 0 0 0
0 0 16 0 0 7 7 8 6 2 0 0 5 4 1 0 0 0 0 0 0 0 0 0 0 3 1 0 0 0 0 0 0 0 0 0 0 0 0 0 0 0 0 0 0 0 0
2 0 20 0 1 7 6 9 4 6 0 0 4 2 4 0 0 0 0 0 0 0 0 0 0 0 0 0 0 0 0 2 0 0 0 0 0 0 0 0 0 0 0 0 0 0 0
3 4 8 2 4 17 9 7 8 6 5 0 1 0 3 5 0 0 0 0 0 0 0 0 0 0 0 0 0 0 0 2 8 6 0 0 0 2 0 0 0 0 0 0 0 0 0
6 5 7 14 0 4 17 16 8 12 6 0 0 0 2 7 0 0 0 0 0 0 0 0 0 0 0 0 0 0 0 0 3 5 31 24 31 6 1 3 0 0 0 0 0 0 0
3 6 6 6 5 0 10 22 19 20 7 0 0 2 0 11 0 0 0 0 0 0 2 0 0 0 0 0 0 0 0 0 0 0 0 0 4 16 7 6 0 0 0 0 0 0 0
10 9 6 5 38 6 11 14 23 28 24 0 0 0 0 25 0 0 0 0 0 0 0 0 0 0 0 0 0 0 0 0 0 0 0 0 0 0 0 0 0 0 0 0 0 0 0

GFSGBSN_con_sbcape_042.txt.gz
CAPE
29 43 34 54 44 56 66 78 76 91 97 92 91 77 87 69 87 103 145 212 172 180 125 45 32 33 80 7 0 0 41 84 0 11 58 13 0 0 0 0 0 0 0 0 0 0 0
49 28 41 46 48 51 67 92 93 94 101 80 92 80 78 87 100 145 222 269 221 224 154 71 65 58 29 2 0 0 0 42 0 169 52 0 2 0 0 0 0 0 0 0 0 0 0
29 36 45 54 55 67 72 85 92 94 92 91 88 99 97 122 168 182 242 244 229 186 169 145 72 57 38 0 0 0 0 107 48 265 62 4 0 0 0 0 0 0 0 0 0 0 0
27 39 38 43 45 61 74 75 70 83 86 118 107 99 121 128 170 223 247 209 188 218 198 135 90 67 11 0 0 0 0 155 116 65 58 8 5 0 0 0 0 0 0 0 0 0 0
20 28 32 46 56 66 61 64 68 60 47 71 125 122 72 76 72 169 170 169 216 254 202 176 36 35 26 2 0 0 0 245 124 66 79 88 6 22 0 0 0 0 0 0 0 0 0
26 30 22 52 58 67 59 63 68 36 33 74 106 17 9 71 105 195 230 251 197 51 51 119 61 16 7 0 0 0 0 68 114 127 118 51 58 8 0 1 0 0 0 0 0 0 0
24 27 27 55 56 58 56 70 17 19 73 91 89 89 37 41 131 202 101 0 0 0 49 0 0 5 25 1 0 0 0 53 67 75 103 20 70 13 7 7 0 0 0 0 0 0 0
21 24 36 35 68 53 71 35 25 61 74 95 163 209 203 99 113 173 4 0 0 1 0 26 0 4 0 3 0 1 0 24 45 36 30 32 15 4 0 0 0 0 0 0 0 0 0
16 21 36 43 41 34 66 38 48 65 81 143 161 166 205 204 114 13 3 0 4 2 6 5 1 11 2 6 2 0 0 42 29 62 59 3 16 19 7 7 14 8 0 0 0 0 0
13 16 24 30 43 34 57 30 38 54 75 102 153 217 123 134 18 3 0 0 10 0 0 1 4 15 9 20 1 0 0 25 24 49 19 0 13 5 2 4 15 1 0 0 0 0 0
12 18 25 26 37 38 44 26 46 39 85 75 104 185 92 54 2 0 16 0 0 1 0 1 10 19 36 0 1 8 9 1 13 2 0 1 6 23 10 1 0 0 0 0 0 0 0
12 23 29 28 23 27 25 29 31 40 42 99 23 48 20 0 0 0 5 0 0 0 0 3 19 7 16 9 45 36 22 1 0 0 0 0 0 0 0 0 0 0 0 0 0 0 0
6 11 19 18 22 19 25 21 16 41 23 57 2 6 0 1 0 0 0 0 0 0 1 3 4 11 7 39 23 13 3 0 4 1 6 4 0 0 0 0 0 0 0 0 0 0 0
6 20 17 12 24 14 22 21 17 29 10 29 4 0 0 1 0 0 0 0 0 0 0 4 4 21 21 18 24 4 5 1 0 0 0 0 1 0 0 0 0 0 0 0 0 0 0
5 15 16 12 15 9 11 13 14 20 24 2 0 0 0 0 2 1 1 0 0 1 2 8 2 22 19 7 9 12 0 0 0 0 0 0 0 0 0 0 0 0 0 0 0 0 0
3 11 16 10 15 8 6 8 12 12 17 1 0 0 0 0 0 0 0 2 4 3 0 0 1 0 0 6 12 2 0 0 0 0 0 0 0 0 0 0 0 0 0 0 0 0 0
7 9 8 15 12 9 5 4 6 5 5 0 0 0 0 0 0 0 0 0 0 0 0 0 0 0 0 0 0 0 0 0 0 0 0 0 0 0 0 0 0 0 0 0 0 0 0
6 13 10 10 9 9 6 3 2 9 6 0 0 0 0 0 0 0 0 0 0 0 0 0 0 0 0 0 0 0 0 0 0 0 0 0 0 0 0 0 0 0 0 0 0 0 0
4 16 10 6 9 7 4 4 1 2 8 0 0 0 0 0 0 0 0 0 0 0 0 0 0 0 0 0 0 0 0 0 0 0 0 0 0 0 0 0 0 0 0 0 0 0 0
1 11 13 7 7 7 4 3 2 0 0 0 0 0 0 0 0 0 0 0 0 0 0 0 0 0 0 0 0 0 0 0 0 0 0 0 0 0 0 0 0 0 0 0 0 0 0
3 5 20 8 10 8 3 3 2 0 0 0 0 0 2 0 0 0 0 0 0 0 0 0 0 0 0 0 0 0 0 0 0 0 0 0 0 0 0 0 0 0 0 0 0 0 0
3 1 17 12 10 7 7 3 3 0 0 0 0 2 0 0 0 0 0 0 0 0 0 0 0 0 0 0 0 0 0 0 0 0 0 0 0 0 0 0 0 0 0 0 0 0 0
4 3 8 10 10 8 6 4 3 2 0 0 0 0 4 0 0 0 0 0 0 0 0 0 1 7 13 6 0 0 0 0 0 0 0 0 0 0 0 0 0 0 0 0 0 0 0
4 5 4 22 5 5 4 7 4 10 0 0 6 4 2 0 0 0 0 0 0 0 0 0 0 3 1 0 0 0 0 0 0 0 0 0 0 0 0 0 0 0 0 0 0 0 0
6 6 8 23 4 2 1 9 5 11 6 0 0 2 4 1 0 0 0 0 0 0 0 0 0 0 0 0 0 0 4 2 0 0 0 0 0 0 0 0 0 0 0 0 0 0 0
7 8 8 8 28 3 0 2 9 9 9 0 1 0 3 8 0 0 0 0 0 0 0 0 0 0 0 0 0 0 0 0 10 12 0 0 0 0 0 0 0 0 0 0 0 0 0
4 3 7 7 10 8 0 0 10 5 10 0 0 0 2 13 1 1 0 1 0 0 0 0 0 0 0 0 0 0 0 0 2 1 22 31 22 0 0 2 0 0 0 0 0 0 0
9 7 22 8 13 49 8 3 1 16 23 0 0 0 0 5 0 0 0 2 0 0 0 0 0 0 0 0 0 0 0 0 0 0 0 0 0 1 0 4 0 0 0 0 0 0 0
3 19 31 32 4 23 35 5 8 8 26 2 0 0 0 0 0 0 0 0 0 0 2 0 0 0 0 0 0 0 0 0 0 1 0 0 0 0 0 0 0 0 0 0 0 0 0

GFSGBSN_con_sbcape_045.txt.gz
CAPE
18 16 29 44 39 38 50 77 66 65 80 89 86 90 99 97 124 119 144 202 197 179 138 130 76 25 25 76 5 0 0 1 51 4 13 12 12 16 9 0 0 0 0 0 0 0 0
30 27 31 36 50 32 58 63 61 65 74 91 82 120 161 151 170 159 193 195 224 239 205 171 122 90 34 70 0 0 0 0 5 26 64 3 2 2 6 0 0 0 0 0 0 0 0
16 29 17 31 37 41 77 61 62 71 73 64 81 125 176 150 128 148 201 236 256 210 193 215 180 94 58 32 0 0 0 11 0 69 201 5 0 0 0 0 0 0 0 0 0 0 0
25 21 28 37 42 50 56 74 53 63 47 42 58 128 156 52 76 77 181 156 163 192 216 172 154 75 17 21 2 0 0 35 20 258 288 56 0 0 0 0 0 0 0 0 0 0 0
21 24 21 36 43 59 59 77 54 20 52 96 148 195 118 7 53 86 173 203 223 289 219 155 72 33 25 62 47 3 0 7 109 157 96 90 10 31 0 0 0 0 0 0 0 0 0
21 13 25 48 59 59 49 76 42 46 68 88 179 229 214 156 26 124 215 279 211 30 73 158 65 10 12 11 5 0 0 9 166 165 152 115 48 9 0 0 0 2 0 0 0 0 0
21 24 18 42 46 40 50 68 40 47 61 95 154 197 216 218 69 102 48 0 0 0 0 0 0 0 48 34 0 1 0 125 97 102 69 63 19 3 6 0 0 0 0 0 0 0 0
16 20 18 20 34 33 48 48 24 56 34 99 144 180 192 185 122 56 0 0 0 0 0 8 0 0 0 0 9 4 0 79 120 28 47 73 13 0 0 0 0 0 0 0 0 0 0
10 15 26 26 31 21 44 29 34 45 49 71 123 136 116 89 75 0 0 0 2 0 0 1 1 11 0 4 6 2 0 18 23 0 0 21 24 1 4 15 7 1 0 0 0 0 0
14 15 19 19 27 24 28 22 34 38 46 40 72 96 93 76 0 0 0 13 4 0 0 0 14 9 0 12 13 0 0 3 7 9 0 2 34 22 12 9 14 8 0 0 0 0 0
12 14 14 16 15 20 23 35 24 38 34 20 6 23 13 1 8 2 14 0 0 0 0 1 20 3 46 9 2 10 14 11 1 0 0 1 37 16 7 0 2 0 0 0 0 0 0
12 15 13 16 16 13 25 19 18 33 19 4 1 0 0 0 0 1 0 0 0 0 0 3 13 16 13 1 31 28 24 0 0 0 0 0 0 1 0 0 0 0 0 0 0 0 0
8 10 14 13 15 13 14 21 15 25 9 9 0 0 0 0 1 0 0 0 0 0 0 2 5 4 5 7 17 11 11 3 0 1 2 1 1 0 0 0 0 0 0 0 0 0 0
6 6 12 12 12 13 10 19 19 18 14 13 0 0 0 0 0 0 0 0 0 1 0 5 12 21 37 2 7 6 5 0 0 0 0 0 2 0 0 0 1 0 0 0 0 0 0
4 12 12 11 13 10 11 11 15 8 11 10 0 0 0 0 0 0 5 0 0 0 0 17 0 0 11 0 10 5 2 0 0 0 0 0 0 0 0 0 0 0 0 0 0 0 0
4 9 12 11 10 10 9 7 9 11 7 2 0 0 0 0 0 0 0 4 5 3 0 0 0 0 6 4 6 2 0 0 0 0 0 0 0 0 0 0 0 0 0 0 0 0 0
3 6 12 9 8 10 7 6 5 10 7 0 0 0 0 0 0 0 0 0 0 0 0 0 0 0 0 1 0 0 0 0 0 0 0 0 0 0 0 0 0 0 0 0 0 0 0
4 7 5 10 9 11 8 5 2 5 4 0 0 0 0 0 0 0 0 0 0 0 0 0 0 0 0 0 0 0 0 0 0 0 0 0 0 0 0 0 0 0 0 0 0 0 0
2 5 9 9 8 10 8 5 3 1 7 0 0 0 0 0 0 0 0 0 0 0 0 0 0 0 0 0 0 0 0 0 0 0 0 0 0 0 1 0 0 0 0 0 0 0 0
2 6 9 10 6 11 10 6 2 0 1 0 0 0 0 0 0 0 0 0 0 0 0 0 0 0 0 0 0 0 0 0 0 0 0 0 0 0 0 0 0 0 0 0 0 0 0
3 6 3 22 10 10 10 6 3 0 0 0 0 0 0 0 0 0 0 0 0 0 0 0 0 0 0 0 0 0 0 0 0 0 0 0 0 0 0 0 0 0 0 0 0 0 0
3 6 4 21 6 9 9 9 5 0 0 0 0 0 1 0 0 0 0 0 0 0 0 0 0 0 0 0 0 0 0 0 0 0 0 0 0 0 0 0 0 0 0 0 0 0 0
2 4 5 7 7 5 3 8 6 1 0 0 0 0 2 0 0 0 0 0 0 0 0 0 0 0 0 0 0 0 0 0 0 0 0 0 0 0 0 0 0 0 0 0 0 0 0
3 4 5 5 21 4 1 4 5 10 0 0 5 5 3 0 0 0 0 0 0 0 0 0 0 4 0 0 0 0 0 0 0 0 0 0 0 0 0 0 0 0 0 0 0 0 0
2 3 4 5 24 17 3 0 6 10 0 0 0 2 6 0 0 0 0 0 0 0 0 0 0 0 0 0 0 0 3 1 0 0 0 0 0 0 0 0 0 0 0 0 0 0 0
5 4 2 5 6 35 4 3 0 9 4 0 0 0 3 17 0 0 0 0 0 0 0 0 0 0 0 0 0 0 0 0 5 0 0 0 0 0 0 0 0 0 0 0 0 0 0
5 4 6 9 11 17 36 8 0 0 6 0 0 0 0 4 0 0 3 1 0 0 0 0 0 0 0 0 0 0 0 0 1 0 17 13 7 0 0 0 0 0 0 0 6 0 0
12 12 17 25 25 17 35 41 8 0 3 0 0 0 0 0 0 0 0 4 0 0 0 0 0 0 0 0 0 0 0 0 0 0 0 1 1 7 0 0 0 0 0 0 0 0 0
33 9 20 25 36 25 25 45 53 10 10 1 0 0 0 0 0 0 0 0 0 0 1 0 0 0 0 0 0 0 0 0 0 1 0 0 0 0 0 0 0 0 0 0 0 0 0

GFSGBSN_con_sbcape_048.txt.gz
CAPE
18 28 32 31 33 44 50 45 42 38 56 77 78 60 75 120 163 167 178 180 199 253 240 234 152 123 59 11 2 1 0 0 322 118 45 25 88 80 25 12 0 0 0 0 0 0 0
19 29 17 27 40 46 41 33 51 58 65 51 58 58 95 165 154 131 137 201 251 248 217 259 185 124 64 10 15 52 0 1 110 137 72 76 21 44 34 26 0 0 0 0 0 0 0
20 19 29 25 35 39 54 28 61 38 23 54 128 150 168 130 50 38 99 141 209 182 168 201 210 133 46 0 77 48 5 0 134 37 97 167 33 45 24 17 2 0 0 0 0 0 0
21 21 22 20 35 31 39 23 61 40 61 91 147 176 196 130 0 11 71 159 202 201 197 154 211 127 24 2 14 22 9 2 230 57 205 231 183 56 27 4 0 1 0 0 0 0 0
17 23 19 30 28 27 33 40 58 60 64 90 148 187 182 185 85 13 89 212 286 276 254 101 93 120 24 111 30 6 24 7 189 99 265 165 180 74 7 14 5 2 0 0 0 0 0
18 12 18 23 27 32 24 59 49 55 62 74 124 159 182 197 171 5 114 217 117 83 214 61 26 87 31 85 102 21 9 46 142 99 208 119 144 88 57 19 0 0 0 0 0 0 0
15 16 18 24 29 32 26 33 46 64 49 78 85 105 127 119 84 12 146 24 11 64 74 0 8 2 63 17 64 2 25 41 112 179 43 62 91 37 23 10 0 0 0 0 0 0 0
11 15 20 21 28 34 26 42 53 45 59 54 31 59 76 74 52 119 72 4 2 2 11 42 0 0 2 0 36 10 28 68 76 26 66 69 31 28 38 25 1 0 0 0 0 0 0
12 11 18 20 21 25 20 39 33 42 45 46 15 25 37 76 67 54 32 15 5 0 23 4 0 0 15 2 18 17 38 53 42 27 51 26 20 13 38 31 11 0 0 0 0 0 0
10 12 16 16 19 20 16 17 22 33 35 27 22 7 0 0 5 23 33 48 0 0 19 0 5 27 2 29 30 7 34 39 1 3 0 5 31 13 3 29 17 8 0 0 0 0 0
6 8 9 13 17 17 11 16 15 26 28 9 6 5 0 0 3 4 9 0 0 0 35 0 8 0 29 11 6 44 41 36 6 3 7 6 12 58 28 7 22 2 0 0 0 0 0
7 7 10 12 13 17 12 13 11 16 24 14 6 1 0 0 0 0 0 0 0 7 4 7 6 26 5 17 31 31 18 14 10 24 14 10 7 0 1 0 9 0 0 0 0 0 1
9 7 8 8 14 15 12 10 8 9 15 9 6 0 0 0 0 1 1 0 4 10 1 7 10 14 9 19 14 23 3 27 43 13 22 7 8 0 0 2 0 0 2 17 16 7 2
7 9 10 9 13 13 13 10 8 7 10 6 7 0 0 0 0 0 3 2 6 2 6 2 19 23 5 11 11 4 2 1 0 0 9 19 11 1 0 0 3 5 7 9 0 0 0
6 8 10 11 10 13 13 9 9 3 19 6 0 0 0 0 0 18 7 6 5 2 1 10 4 12 14 5 11 8 3 1 0 0 1 6 12 0 0 0 0 2 12 0 0 0 0
6 7 7 10 8 8 9 7 8 4 14 2 0 0 0 0 0 2 1 13 17 0 1 0 0 0 4 1 0 2 5 0 0 0 0 0 3 0 0 0 0 0 0 0 0 0 0
5 5 4 10 8 7 7 7 5 5 5 0 0 0 0 0 0 0 3 5 3 0 0 0 0 0 2 2 0 0 0 0 0 0 0 0 0 1 0 0 0 0 0 0 0 0 0
2 3 7 9 8 10 6 7 4 3 6 0 0 0 0 0 0 1 3 0 0 0 0 0 0 0 0 0 0 0 0 0 0 0 0 0 1 5 3 0 0 0 0 0 0 0 0
1 3 3 17 7 8 8 4 4 2 4 4 0 0 0 0 0 0 0 0 0 0 0 0 0 0 0 0 0 0 0 0 0 0 0 0 0 4 6 1 0 0 0 0 0 0 0
1 4 2 5 4 7 6 4 1 0 0 0 0 0 0 0 0 0 0 0 0 0 0 0 0 0 0 0 0 0 0 0 0 0 0 0 0 0 0 0 0 0 0 0 0 0 0
0 3 2 1 14 7 5 5 2 0 0 0 1 1 1 1 0 0 0 0 0 0 0 0 0 0 0 0 0 0 0 0 0 0 0 0 0 0 0 0 0 0 0 0 0 0 0
1 4 4 1 17 6 2 5 3 0 0 0 3 2 0 1 0 0 0 0 0 0 0 0 0 0 0 0 0 0 0 0 0 0 0 0 0 0 0 0 0 0 0 0 0 0 0
1 5 5 4 19 3 0 2 5 0 0 2 4 2 11 0 0 0 0 0 0 0 0 0 0 0 0 0 0 0 0 0 0 0 0 0 0 0 0 0 0 0 0 0 0 0 0
0 2 3 4 4 24 3 0 8 3 0 3 7 3 8 0 0 0 0 0 0 0 0 0 0 8 0 0 0 0 0 0 0 0 0 0 0 0 0 0 0 0 0 0 0 0 0
1 3 3 0 2 14 22 4 1 9 0 0 0 2 5 3 1 0 1 0 0 0 0 0 0 0 0 0 2 5 11 8 1 0 0 0 0 0 0 0 0 0 0 0 0 0 0
0 0 0 0 7 9 29 29 4 1 2 0 0 0 2 3 0 1 1 0 1 0 0 0 0 0 0 22 25 11 8 3 9 5 0 0 3 4 3 1 0 0 0 0 0 16 0
2 3 6 7 21 11 15 46 37 12 1 0 0 0 0 4 0 0 3 2 1 0 0 0 0 0 0 30 25 29 10 0 2 2 15 13 17 19 4 2 0 0 0 0 7 1 0
5 21 21 31 36 30 33 23 56 45 11 0 2 0 0 0 0 0 0 0 0 3 1 1 4 3 0 39 22 7 15 3 1 0 2 2 13 14 14 8 0 0 0 1 1 0 0
6 32 25 21 11 20 34 31 33 38 23 3 5 0 0 0 0 0 0 0 0 0 0 0 5 0 1 22 1 1 1 0 8 13 0 4 0 0 0 0 0 0 6 6 0 0 0

GFSGBSN_con_sbcape_051.txt.gz
CAPE
13 18 28 27 39 48 46 41 44 61 36 16 32 92 176 164 173 166 150 154 156 219 237 287 251 163 74 59 0 88 232 544 433 240 45 30 22 74 26 3 0 0 0 0 0 0 0
12 19 22 22 39 38 49 41 34 55 31 52 87 117 197 225 205 150 90 113 115 199 238 247 251 127 72 50 7 1 31 113 338 245 17 54 11 61 25 23 0 0 1 0 0 0 0
11 20 26 18 30 37 51 37 58 44 31 84 101 121 173 175 74 90 35 35 113 177 170 158 191 139 90 50 78 134 99 33 137 267 13 28 25 118 73 31 16 2 7 1 0 0 0
14 16 20 24 31 28 32 38 35 45 61 88 90 103 139 157 148 71 22 66 133 167 112 159 162 130 58 10 1 29 112 61 108 369 36 112 132 130 55 34 24 9 8 5 0 0 0
9 11 17 21 28 34 30 23 34 60 62 85 80 79 97 117 152 120 15 105 228 219 220 80 70 129 53 116 50 2 126 8 322 329 92 278 302 141 60 48 40 36 0 0 0 0 0
8 13 15 20 24 22 19 38 48 57 59 65 68 57 91 98 85 103 15 94 88 114 213 57 25 92 14 82 115 143 174 7 285 215 323 209 120 102 85 50 7 0 0 0 0 0 0
6 7 13 21 18 20 18 26 37 45 54 53 65 57 38 71 64 11 131 142 196 152 117 33 35 27 19 51 95 46 24 60 236 96 42 130 53 43 4 0 0 0 0 0 0 0 0
5 6 13 15 16 16 14 18 25 39 36 46 61 52 39 69 96 42 101 38 9 42 36 20 4 0 4 1 54 45 62 164 27 35 66 83 35 39 27 25 9 0 0 0 0 0 0
4 6 11 18 18 14 12 18 19 32 25 39 26 27 13 11 7 38 38 28 10 0 51 37 18 17 5 2 26 54 17 35 21 32 30 18 2 24 46 11 24 3 0 0 0 0 0
4 7 10 15 19 14 11 14 16 20 24 27 16 27 0 0 12 34 10 8 3 1 97 22 35 6 19 10 48 27 8 15 0 55 54 22 33 22 38 25 20 16 0 3 0 0 0
5 6 9 14 11 15 10 12 22 12 14 24 11 13 0 0 0 0 0 2 0 9 44 3 6 10 26 19 22 7 11 3 1 2 2 4 11 18 29 37 26 34 3 0 0 0 0
5 4 8 11 17 13 8 7 12 23 15 13 13 5 1 8 1 0 0 0 1 14 50 6 10 27 9 15 29 32 36 20 9 0 1 9 1 0 22 1 22 0 0 0 0 0 5
5 5 7 8 12 13 8 6 5 13 15 9 7 3 0 0 4 2 6 8 6 30 2 4 28 26 9 14 35 15 7 3 5 7 11 6 5 3 0 0 0 0 33 35 31 26 4
3 3 3 9 8 10 11 8 4 6 12 18 4 0 0 1 0 10 16 7 9 13 17 1 14 11 20 9 11 2 22 31 34 32 22 8 5 3 1 0 0 7 37 73 12 8 3
1 3 4 5 5 10 12 7 5 7 22 13 0 0 3 3 5 17 5 7 25 11 2 8 8 2 14 5 3 3 0 14 3 15 19 14 13 7 0 2 1 3 5 0 0 0 0
0 1 3 6 5 8 10 6 5 6 12 10 0 0 0 0 3 3 3 14 15 0 5 6 5 0 4 6 15 9 6 0 0 0 0 0 4 0 0 0 0 5 0 3 1 0 0
1 1 1 8 7 5 6 6 3 4 8 3 0 1 0 0 3 5 1 15 8 3 0 1 3 5 2 4 5 3 0 0 0 0 0 0 0 2 0 1 1 0 0 0 0 0 0
1 1 1 4 4 4 3 6 4 3 8 0 1 9 0 0 14 17 10 8 0 0 0 0 0 3 13 7 5 4 4 2 0 0 0 0 3 5 4 0 0 0 0 0 1 0 0
0 1 0 1 10 1 3 2 3 1 1 9 0 0 0 0 24 8 0 0 0 0 0 0 0 0 0 0 0 0 0 0 0 0 0 0 0 2 2 0 0 0 0 0 0 0 0
0 1 0 0 9 1 1 2 1 0 0 4 0 2 0 0 0 2 0 0 0 0 0 0 0 0 0 0 0 0 0 0 0 0 0 0 0 0 1 0 0 0 0 0 0 0 0
0 0 0 1 5 1 0 1 1 0 0 0 0 3 0 11 4 0 0 0 0 0 0 0 0 0 0 0 0 0 0 0 0 0 0 0 0 0 0 0 0 0 0 0 0 0 0
0 2 3 2 6 1 0 0 1 0 0 0 6 1 2 2 0 0 0 0 0 0 0 0 0 0 0 0 0 0 0 0 0 0 0 0 0 0 0 0 0 0 0 0 0 0 0
0 2 3 3 1 13 1 0 0 1 0 0 5 17 21 1 0 0 5 3 0 0 0 0 0 0 0 0 0 0 0 0 1 0 0 0 0 0 1 0 0 0 0 0 0 0 0
0 0 1 0 0 1 10 1 0 2 0 0 8 10 16 0 2 3 0 0 2 1 1 0 0 5 0 0 0 0 0 0 0 0 0 2 1 0 4 0 0 0 0 0 0 0 0
0 0 0 0 0 0 1 21 7 1 0 1 1 7 14 0 0 0 1 0 0 0 0 0 0 0 0 1 12 11 16 8 9 0 0 4 8 7 8 3 0 0 0 0 0 0 0
0 0 0 0 3 19 17 14 33 15 0 5 0 0 5 3 1 0 2 2 3 8 12 5 0 0 1 27 20 12 5 7 3 14 0 0 6 6 4 4 0 2 0 0 0 1 0
0 0 0 7 15 28 40 16 21 25 7 2 8 0 5 2 0 0 0 4 2 9 4 21 13 5 0 38 25 23 9 5 9 4 5 12 14 12 3 1 0 0 0 0 6 3 0
0 0 7 5 15 20 17 24 19 21 20 9 12 1 5 4 0 0 0 0 0 1 14 0 32 17 41 38 21 15 8 9 9 6 2 3 6 5 10 10 0 0 0 4 5 0 0
0 1 15 4 5 10 0 9 13 15 26 14 17 1 4 20 0 0 0 0 0 0 0 0 5 2 56 47 25 17 10 15 6 5 2 0 0 2 0 0 0 0 6 16 1 0 0

GFSGBSN_con_sbcape_054.txt.gz
CAPE
15 12 24 22 24 17 24 39 27 54 16 30 59 94 129 165 240 207 192 86 111 60 152 199 240 212 79 51 1 0 189 71 322 318 31 45 0 21 11 0 0 0 0 0 0 0 0
12 16 19 20 29 25 40 35 45 22 24 47 53 84 109 140 205 182 123 15 62 75 151 147 173 129 115 78 3 2 92 144 264 229 89 27 0 0 16 13 0 0 0 0 1 0 0
11 16 15 14 17 25 25 30 44 28 43 43 67 94 87 119 194 140 25 29 44 80 109 166 138 97 75 8 31 246 84 37 186 257 129 7 0 81 97 75 6 2 6 1 0 0 0
13 13 12 20 13 18 25 28 51 36 34 48 54 79 82 131 141 140 24 55 87 165 177 156 169 85 14 16 0 27 107 10 31 249 183 34 14 43 80 82 30 14 9 2 0 0 0
10 14 12 15 16 16 29 28 32 31 32 34 57 67 42 83 89 122 16 67 193 236 243 116 74 111 23 202 0 0 2 70 90 220 246 96 206 87 57 25 32 17 4 0 0 0 0
10 16 11 15 17 22 30 21 30 30 33 28 40 57 51 62 77 84 11 114 95 96 196 80 47 19 3 54 9 0 47 85 149 179 177 126 98 66 32 44 21 0 0 0 0 0 0
7 10 10 13 15 21 24 26 26 29 31 30 30 49 41 53 55 69 134 164 149 110 74 3 18 9 11 1 63 27 73 59 317 158 86 62 10 2 0 0 0 0 0 0 0 0 0
7 7 11 12 13 18 20 21 19 22 21 30 30 18 50 17 24 78 118 10 0 0 26 6 15 0 2 8 47 46 106 104 180 47 26 35 11 0 24 22 11 0 0 0 0 0 0
5 5 9 11 12 14 16 23 26 14 11 21 22 5 34 5 0 34 6 6 5 3 40 9 8 28 5 0 6 12 73 59 18 7 15 3 7 1 14 16 9 1 0 0 0 0 0
2 3 6 10 12 8 11 17 24 12 14 13 18 8 3 3 0 0 0 0 5 0 24 4 9 13 48 9 5 30 39 15 14 5 42 31 1 0 19 26 13 3 0 0 3 0 0
2 3 5 8 9 9 11 16 17 17 8 11 14 4 2 11 10 0 0 0 0 0 2 2 0 11 12 36 16 15 2 23 33 12 11 1 2 6 21 19 17 32 18 0 3 0 0
2 2 4 7 8 10 9 12 16 15 5 7 8 5 1 6 12 0 0 2 1 4 2 1 5 15 4 24 6 3 6 9 15 0 0 3 0 3 9 1 11 27 0 0 0 0 1
2 1 3 4 9 10 11 5 11 8 6 3 8 4 1 0 13 1 9 4 1 5 0 4 16 0 5 6 2 3 16 34 14 2 4 3 2 0 0 0 3 6 3 22 29 6 0
1 1 2 5 8 11 10 3 7 5 4 6 1 0 0 0 5 4 9 5 0 6 3 0 7 14 5 2 8 9 9 28 1 0 10 5 0 1 0 0 0 0 0 28 1 1 0
0 2 2 2 6 7 6 4 5 5 9 3 0 0 0 2 1 2 10 1 1 7 0 7 2 4 1 2 0 1 22 1 5 2 2 17 11 8 3 0 0 0 0 0 0 0 0
0 0 1 1 4 5 6 4 3 2 3 0 0 0 0 0 1 0 2 1 3 0 5 1 4 1 0 0 0 0 9 0 0 0 0 0 4 7 3 0 0 0 0 0 0 0 0
0 0 1 1 5 1 4 3 3 1 0 0 0 0 0 0 1 3 0 0 0 0 0 0 1 3 0 1 3 4 5 0 0 0 0 0 0 14 4 4 2 1 5 0 0 0 0
0 0 1 1 4 0 3 1 2 1 4 0 0 7 0 0 2 69 7 0 0 0 0 0 0 1 2 0 0 0 5 0 0 0 0 0 0 1 0 0 0 0 0 0 1 0 0
0 0 2 1 2 0 0 2 1 0 1 5 0 0 0 0 32 14 0 0 0 0 0 0 0 0 0 0 0 0 0 0 0 0 0 0 0 0 0 0 0 0 0 0 0 0 0
0 0 1 1 3 6 1 0 0 0 0 0 0 0 0 1 0 0 4 0 0 0 0 0 0 0 0 0 0 0 0 0 0 0 0 0 0 0 0 0 0 0 0 0 0 0 0
0 0 1 2 2 6 3 3 0 0 0 0 0 0 1 0 2 0 0 1 1 0 0 0 0 0 0 0 0 0 0 0 0 0 0 0 0 0 0 0 0 0 0 0 0 0 0
0 0 0 0 2 3 7 3 0 0 0 0 0 1 1 1 0 0 0 11 2 2 0 0 0 0 0 0 0 0 0 0 0 0 0 0 0 0 0 0 0 0 0 0 0 0 0
0 0 0 0 0 1 5 5 1 0 0 0 0 3 17 0 1 0 0 0 12 1 0 0 0 0 0 1 0 0 0 0 0 0 0 0 0 0 0 0 0 0 0 0 0 0 0
0 0 0 0 0 1 2 5 8 0 0 0 0 4 6 0 0 0 0 0 0 1 2 1 0 0 0 0 0 0 0 0 0 0 0 0 0 0 0 0 0 0 0 0 0 0 0
0 0 0 0 1 3 3 3 18 7 0 1 0 0 2 0 0 0 0 0 0 0 0 4 0 0 0 0 3 2 4 1 3 0 0 0 0 0 0 0 0 0 0 0 0 0 0
0 0 0 0 0 10 14 1 2 20 0 0 1 0 0 0 0 0 0 0 0 0 8 13 0 0 0 14 6 9 1 4 2 2 0 0 0 0 4 0 0 0 0 0 0 0 0
0 0 0 1 4 0 0 0 7 11 7 0 5 0 0 0 0 0 0 0 2 1 2 4 6 1 0 16 9 4 7 1 1 3 4 6 5 4 0 3 0 0 0 0 1 0 0
0 0 2 15 5 0 0 0 6 7 21 10 10 3 0 0 0 0 0 0 0 0 8 0 7 11 18 16 9 7 0 1 0 2 0 0 0 2 4 6 0 0 0 0 0 0 0
0 0 0 18 7 0 0 0 23 23 17 15 14 5 1 7 0 0 0 0 0 0 0 0 3 2 7 20 10 9 1 2 0 5 0 0 0 0 0 0 0 0 0 0 0 0 0

GFSGBSN_con_sbcape_057.txt.gz
CAPE
10 12 16 17 19 22 23 38 40 40 44 43 60 72 87 96 115 168 188 112 87 123 27 93 165 172 85 24 0 0 0 46 12 194 56 17 0 82 17 32 17 1 0 0 0 0 0
8 13 15 18 23 28 27 23 35 54 46 44 67 58 53 72 106 164 88 35 45 101 126 119 98 117 51 2 3 0 0 12 92 184 82 9 0 0 73 52 1 0 0 1 2 1 0
10 9 13 18 22 21 24 20 29 37 43 55 48 59 23 64 97 130 59 22 91 145 60 98 128 86 39 2 23 0 118 27 67 88 92 0 0 24 24 12 0 0 29 2 0 0 0
9 9 11 8 11 22 21 14 16 35 44 52 37 46 22 55 49 94 30 71 130 211 232 248 151 79 12 16 0 0 50 17 7 31 89 59 0 1 43 1 3 14 11 5 0 0 0
7 6 10 13 17 21 17 13 15 32 40 42 37 34 16 40 26 54 5 66 183 211 216 203 70 48 35 179 1 0 0 0 18 38 189 155 36 28 19 22 5 38 0 0 0 0 0
7 6 9 11 15 19 16 12 14 14 31 31 38 16 19 10 0 2 42 137 68 93 111 98 106 17 7 29 22 1 16 2 49 144 133 126 50 34 20 0 1 0 0 0 0 0 0
5 6 8 10 12 14 13 12 10 21 19 21 26 13 11 6 9 30 7 0 0 0 2 0 17 14 7 25 92 39 3 28 64 153 34 44 5 0 0 0 0 0 0 0 0 0 0
3 5 8 10 10 12 13 14 10 16 19 10 18 9 12 0 7 6 0 0 2 0 1 9 24 1 3 20 22 3 3 33 50 17 14 18 4 0 0 1 2 0 0 0 0 0 0
2 4 6 10 9 11 13 7 17 12 16 14 5 7 6 5 0 0 0 0 1 0 0 3 0 2 0 0 0 22 40 22 8 13 5 7 1 0 0 1 0 0 0 0 0 0 0
2 3 4 7 10 11 11 17 11 10 10 12 8 8 3 1 0 0 0 0 0 0 0 10 5 10 4 0 2 34 37 11 32 33 24 30 0 0 0 0 0 0 0 0 0 0 0
1 2 3 5 10 7 6 10 12 10 7 9 12 4 1 4 0 0 0 0 0 0 0 0 1 15 1 0 4 0 22 39 24 0 0 10 2 17 7 0 2 0 2 0 0 0 0
0 0 1 5 6 8 6 7 12 11 6 8 10 2 0 0 0 0 0 0 0 0 0 0 4 0 3 1 37 4 5 3 0 0 0 1 0 0 7 12 13 1 0 2 0 0 0
0 0 0 3 7 7 5 3 7 8 1 4 4 3 0 0 0 0 0 0 0 0 0 3 6 11 6 6 7 14 25 1 2 5 0 1 1 0 0 0 0 0 0 12 6 6 0
0 0 0 1 6 7 4 2 5 8 2 6 0 0 0 0 0 0 0 0 0 0 0 0 5 3 2 6 8 1 21 0 0 0 0 0 1 0 0 4 1 0 0 0 0 0 0
0 0 0 1 5 5 5 7 3 10 6 0 0 0 0 0 0 0 1 0 0 0 0 0 0 5 0 0 1 17 4 16 1 0 0 1 1 2 1 1 0 0 0 0 0 0 0
0 0 0 1 3 5 5 5 3 8 3 0 0 0 0 0 0 0 0 0 0 0 0 0 0 0 0 1 0 2 4 0 6 0 0 0 5 9 3 0 0 0 0 0 0 0 0
0 0 0 0 1 3 3 3 2 2 4 0 0 0 0 0 0 0 0 0 0 0 0 0 0 2 0 1 0 2 1 0 0 0 0 0 0 17 3 8 2 0 0 0 0 0 0
0 0 0 1 2 4 4 1 1 3 6 0 0 0 0 0 0 0 0 0 0 0 0 0 0 1 0 0 0 0 0 0 0 0 0 0 0 1 0 0 0 0 0 0 0 0 0
0 0 0 1 2 4 3 0 0 0 3 0 0 0 0 0 1 0 0 0 0 0 0 0 0 0 0 0 0 0 0 0 0 0 0 0 0 0 0 0 0 1 0 0 0 0 0
0 0 0 1 2 4 3 1 0 0 0 0 0 0 0 0 0 0 0 0 0 0 0 0 0 0 0 0 0 0 0 0 0 0 0 0 0 0 0 0 0 0 0 0 0 0 0
0 0 0 0 1 1 2 2 0 0 0 0 0 0 0 0 0 0 0 1 0 1 0 0 0 0 0 0 0 0 0 0 0 0 0 0 0 0 0 0 0 0 0 0 0 0 0
0 0 0 0 0 1 1 5 2 0 0 0 0 0 0 0 0 0 0 0 0 3 0 0 0 0 0 0 0 0 0 0 0 0 0 0 0 0 0 0 0 0 0 0 0 0 0
0 0 0 0 0 3 1 3 2 0 0 0 0 0 2 0 0 0 0 0 0 0 1 0 0 0 0 0 0 0 0 0 0 0 0 0 0 0 0 0 0 0 0 0 0 0 0
0 0 0 0 0 1 5 1 2 0 0 0 0 0 0 0 0 0 0 0 0 0 0 0 0 1 0 0 0 0 0 0 0 0 0 0 0 0 0 0 0 0 0 0 0 0 0
0 0 0 0 0 1 1 1 4 0 0 0 0 0 0 0 0 0 0 0 0 0 0 0 0 0 0 0 0 0 0 0 0 0 0 0 0 0 0 0 0 0 0 0 0 0 0
0 0 0 0 0 0 0 1 1 5 0 0 0 0 0 0 0 0 0 0 0 0 0 4 0 0 0 2 5 1 0 0 0 2 0 0 0 0 0 0 0 0 0 0 0 0 0
0 0 1 0 0 1 0 0 5 1 0 0 0 0 0 0 0 0 0 0 0 0 0 0 0 0 0 0 0 0 0 0 0 0 0 2 0 1 1 0 0 0 0 0 0 0 0
0 2 3 0 0 2 0 0 13 15 0 0 0 0 0 0 0 0 0 0 0 0 0 0 0 0 0 0 0 0 0 0 0 0 0 0 0 0 6 3 0 0 0 0 0 0 0
1 0 1 0 0 0 0 0 10 27 1 6 0 0 0 0 0 0 0 0 0 0 0 0 1 0 2 0 0 0 0 0 0 0 0 0 0 0 0 0 0 0 0 0 0 0 0

GFSGBSN_con_sbcape_060.txt.gz
CAPE
7 14 16 13 21 21 25 22 28 33 37 51 54 54 31 67 82 154 143 122 63 96 25 39 91 115 14 1 0 0 20 5 47 19 144 0 0 40 40 31 74 1 0 0 8 11 9
8 10 13 10 10 18 23 26 24 37 36 51 64 45 25 35 57 119 51 64 115 174 124 89 61 88 9 5 0 0 0 0 29 11 102 37 0 8 55 35 71 2 0 7 0 4 43
6 6 14 15 17 16 23 21 12 26 35 42 62 38 18 31 33 36 10 73 132 166 76 56 140 55 14 0 0 0 0 58 1 33 75 36 0 63 1 40 0 0 39 4 0 0 0
4 4 8 10 12 11 17 17 16 20 22 26 54 27 25 4 19 1 0 30 104 176 211 244 157 64 5 0 0 0 0 27 26 117 76 93 7 7 9 0 0 0 30 6 0 0 0
2 4 5 10 10 8 16 15 16 19 13 24 34 29 19 1 3 0 4 36 85 91 137 200 36 13 1 83 36 3 0 17 49 78 8 150 17 13 17 0 0 4 0 0 0 0 0
2 2 3 8 7 11 13 18 14 18 18 8 22 22 7 18 0 2 69 64 79 18 46 100 85 13 28 49 7 51 55 21 3 40 16 219 48 18 0 1 3 0 0 0 0 0 0
2 1 1 7 8 11 15 8 10 20 15 16 10 15 9 11 0 0 0 0 0 0 0 0 3 0 0 18 39 78 8 6 2 79 31 44 17 0 0 0 0 0 0 0 0 0 0
2 2 1 4 9 10 15 8 10 17 24 17 13 10 8 6 0 0 0 0 0 0 0 0 1 32 40 0 37 2 4 0 45 38 19 41 24 0 0 0 0 0 0 0 0 0 0
1 2 2 5 7 7 8 14 14 10 18 14 11 4 9 5 1 0 0 0 0 0 0 3 4 3 0 0 6 5 0 1 14 14 5 1 1 0 14 0 0 0 0 0 0 0 0
0 1 1 4 6 7 7 12 12 15 19 13 12 8 2 8 0 0 0 0 0 0 0 11 2 15 7 0 19 11 33 41 1 20 5 14 0 0 4 1 0 0 0 0 0 0 0
0 0 1 4 6 8 5 7 12 13 15 9 10 5 4 8 0 0 0 0 0 0 0 1 0 0 0 0 0 39 14 49 12 7 0 17 1 0 0 2 0 0 0 0 0 0 0
0 0 1 3 7 6 5 4 11 8 9 3 5 3 0 0 0 0 0 0 0 0 0 0 0 0 1 0 1 0 2 28 1 0 0 0 0 0 3 6 14 0 0 0 0 0 2
0 0 0 2 7 6 3 3 6 7 8 6 1 1 0 0 0 0 0 0 0 0 0 1 18 1 2 6 3 0 8 3 3 0 0 0 0 0 0 19 4 0 0 1 14 2 0
0 0 0 2 5 5 2 3 5 8 4 7 0 0 0 0 0 0 0 0 0 0 0 0 8 6 8 6 1 7 1 0 0 0 0 1 0 0 0 0 0 4 0 0 0 0 0
0 0 0 1 3 3 2 5 5 4 5 4 0 0 0 0 0 0 0 0 0 0 0 0 0 1 8 12 0 10 0 0 0 0 0 0 1 0 0 0 0 0 0 0 0 0 0
0 0 0 0 1 3 3 5 4 2 1 0 0 0 0 0 0 0 0 0 0 0 0 0 0 0 0 2 5 1 0 0 0 0 0 0 3 2 3 2 0 0 0 0 1 0 0
0 0 0 0 1 4 3 2 2 1 0 0 0 0 0 0 0 0 0 0 0 0 0 0 0 0 0 0 0 2 0 3 0 0 0 0 0 7 9 9 4 1 1 0 0 0 0
0 0 0 1 1 2 2 1 0 0 0 0 0 0 0 0 0 0 0 0 0 0 0 0 0 0 0 0 0 0 0 0 0 0 0 0 0 6 1 1 0 0 0 0 0 0 0
0 0 0 1 0 1 2 0 0 0 0 0 0 0 0 0 0 0 0 0 0 0 0 0 0 0 0 0 0 0 0 0 0 0 0 0 0 0 1 0 0 4 0 0 0 0 0
0 0 0 0 0 0 1 0 0 0 0 0 0 0 0 0 0 0 0 0 0 0 0 0 0 0 0 0 0 0 0 0 0 0 0 0 0 0 0 0 0 0 0 0 0 0 0
0 0 0 0 0 0 0 1 0 0 0 0 0 0 0 0 0 0 0 0 0 0 0 0 0 0 0 0 0 0 0 0 0 0 0 0 0 0 0 0 0 0 0 0 0 0 0
0 0 0 0 0 0 1 0 0 0 0 0 0 0 0 0 0 0 0 0 2 1 0 0 0 0 0 0 0 0 0 0 0 0 0 0 0 0 0 0 0 0 0 0 0 0 0
0 0 0 0 0 0 2 0 0 0 0 0 0 0 0 0 0 0 0 0 0 0 6 0 0 0 0 0 0 0 0 0 0 0 0 0 0 0 0 0 0 0 0 0 0 0 0
0 0 0 0 0 0 0 2 2 0 0 0 0 0 0 0 0 0 0 0 0 0 0 0 0 0 0 0 0 0 0 0 0 0 0 0 0 0 0 0 0 0 0 0 0 0 0
0 0 0 0 0 0 0 2 6 1 0 0 0 0 0 0 0 0 0 0 0 0 0 0 1 0 0 0 0 0 0 0 0 0 0 0 0 0 0 0 0 0 0 0 0 0 0
0 0 0 0 0 0 0 0 8 1 0 0 0 0 0 0 0 0 0 0 0 0 0 3 0 0 0 0 2 0 0 0 0 0 0 0 0 0 0 0 0 0 0 0 0 0 0
1 0 0 0 0 0 0 1 14 3 2 0 0 0 0 0 0 0 0 0 0 0 0 2 0 0 0 0 2 0 0 0 0 0 0 0 0 2 3 1 0 0 0 0 0 0 0
1 0 0 0 3 0 0 0 11 13 0 0 0 0 0 0 0 0 0 0 0 0 0 0 0 1 0 0 0 0 0 0 0 0 0 0 0 0 7 2 0 0 0 0 0 0 0
1 1 0 7 11 0 0 1 1 20 2 0 0 0 0 0 0 0 0 0 0 0 0 0 3 5 7 2 0 0 0 0 0 0 0 0 0 0 0 0 0 0 0 0 0 0 0

GFSGBSN_con_sbcape_063.txt.gz
CAPE
8 6 9 10 15 14 20 19 13 27 42 45 64 46 21 26 32 4 1 31 121 121 20 34 35 106 10 4 0 0 7 1 4 0 6 9 0 2 24 29 38 11 3 21 35 0 2
6 7 7 6 9 12 17 19 16 14 30 39 49 34 21 10 19 6 0 49 143 144 141 102 68 135 0 0 0 1 0 0 7 70 11 22 0 0 57 86 149 12 1 38 6 1 28
5 7 7 8 10 14 9 12 13 19 17 37 27 38 24 14 9 3 0 11 48 113 54 68 149 15 0 0 0 0 0 0 13 80 0 56 0 56 1 14 1 29 1 0 0 0 1
3 6 5 7 9 12 12 27 22 18 26 12 33 38 27 19 4 2 7 23 59 155 164 199 149 4 0 0 0 0 0 0 54 37 2 19 17 37 2 0 0 11 9 2 0 0 0
1 4 6 6 8 9 12 12 15 33 28 21 13 29 31 10 9 5 43 138 72 59 94 132 4 0 0 36 61 12 4 0 18 67 18 80 23 34 5 0 0 6 0 0 0 0 2
0 2 5 5 7 11 13 11 19 20 21 16 11 14 20 8 22 19 8 51 54 3 2 43 34 0 0 9 42 49 53 32 0 78 46 104 60 11 0 0 1 0 0 0 0 0 0
0 2 4 5 5 9 13 16 12 13 24 10 18 5 8 4 10 21 0 0 0 0 0 0 0 0 0 9 50 81 17 6 0 44 20 63 12 4 0 0 0 0 0 0 0 0 0
0 1 3 4 5 8 9 14 14 8 16 11 13 6 4 8 2 10 0 0 0 0 0 3 3 2 1 0 62 9 0 0 0 9 0 27 6 0 1 1 0 0 0 0 0 0 0
0 1 2 3 4 7 7 9 14 15 9 18 14 8 4 4 2 0 0 0 0 0 0 1 5 0 0 0 42 2 0 0 10 9 6 2 5 4 13 5 0 0 0 0 0 0 0
0 0 1 2 5 6 5 8 11 15 14 19 12 4 3 1 0 0 0 0 0 0 0 9 4 4 11 0 25 0 0 13 12 5 21 16 10 19 14 6 0 0 0 0 0 0 0
0 0 0 2 4 7 4 8 8 12 14 8 9 2 0 1 0 0 0 0 0 0 0 0 0 0 0 0 0 8 15 45 10 19 1 6 0 3 0 0 0 0 0 0 0 0 0
0 0 0 2 3 3 6 4 6 6 9 6 9 6 1 0 0 0 0 0 0 0 0 0 0 0 0 1 3 1 9 31 30 4 0 0 0 0 0 0 0 0 0 0 0 0 0
0 0 0 2 2 3 4 2 3 5 6 3 3 0 0 0 0 0 0 0 0 0 0 1 25 3 3 4 10 5 8 12 3 0 3 0 0 0 0 11 1 0 0 0 5 0 0
0 0 0 1 2 3 2 1 1 6 3 10 0 0 0 0 0 0 0 0 0 0 0 0 3 0 6 2 7 8 2 2 0 0 0 1 7 0 0 0 0 0 0 0 1 0 0
0 0 0 1 0 1 3 2 2 4 8 4 0 0 0 0 0 0 0 0 0 0 0 0 1 1 2 2 0 0 0 0 0 0 0 0 0 0 0 0 0 2 8 0 0 0 0
0 0 0 0 0 1 2 3 4 4 5 0 0 0 0 0 0 0 0 0 0 0 0 0 0 0 0 3 1 0 0 0 0 0 0 0 2 0 0 0 0 0 0 0 0 0 0
0 0 0 0 0 0 1 2 3 2 1 0 0 0 0 0 0 0 0 0 0 0 0 0 0 0 0 0 0 0 0 0 0 0 0 0 0 2 12 10 3 5 1 0 0 0 0
0 0 0 0 0 0 0 0 0 1 1 0 0 0 0 0 0 0 0 0 0 0 0 0 0 0 0 0 0 0 0 0 0 0 0 0 0 1 2 0 0 2 10 0 0 0 0
0 0 0 0 0 0 0 0 0 1 0 0 0 0 0 0 0 0 0 0 0 0 0 0 0 0 0 0 0 0 0 0 0 0 0 0 0 0 2 0 0 8 0 0 0 0 0
0 0 0 0 0 0 0 0 0 0 0 0 0 0 0 0 0 0 0 0 0 0 0 0 0 0 0 0 0 0 0 0 0 0 0 0 0 0 0 0 0 0 3 0 0 0 0
0 0 0 0 0 0 0 0 0 0 0 0 0 0 0 0 0 0 0 0 0 0 0 0 0 0 0 0 0 0 0 0 0 0 0 0 0 0 0 0 0 0 0 0 0 0 0
0 0 0 0 0 0 0 0 0 0 0 0 0 0 0 0 0 0 0 0 0 0 0 0 0 0 0 0 0 0 0 0 0 0 0 0 0 0 0 0 0 0 0 0 0 0 0
0 0 0 0 0 0 0 0 0 0 0 0 0 0 0 0 0 0 0 0 0 0 1 0 0 0 0 0 0 0 0 0 0 0 0 0 0 0 0 0 0 0 0 0 0 0 0
0 0 0 0 0 0 0 0 0 0 0 0 0 0 0 0 0 0 0 0 0 0 0 0 0 0 0 0 0 0 0 0 0 0 0 0 0 0 0 0 0 0 0 0 0 0 0
0 0 0 0 0 0 0 0 0 0 0 0 0 0 0 0 0 0 0 0 0 0 0 0 0 0 0 0 0 0 0 0 0 0 0 0 0 0 0 0 0 0 0 0 0 0 0
0 0 0 0 0 0 0 1 0 0 0 0 0 0 0 0 0 0 0 0 0 0 0 0 0 0 0 0 0 0 0 0 0 0 0 0 0 0 0 0 0 0 0 0 0 0 0
1 0 0 0 0 0 0 0 0 0 0 0 0 0 0 0 0 0 0 0 0 0 0 0 0 0 0 0 7 2 0 0 0 0 0 0 0 0 0 1 0 0 0 0 0 0 0
1 0 1 0 0 0 0 0 1 0 0 0 0 0 0 0 0 0 0 0 0 0 0 0 1 4 0 0 9 0 0 0 0 0 0 0 1 2 5 10 0 0 0 0 0 0 0
1 4 2 1 0 0 0 0 1 0 0 0 0 0 0 3 0 0 0 0 0 0 0 0 1 14 11 6 0 0 0 0 0 0 0 0 0 0 0 0 0 0 0 0 0 0 0

GFSGBSN_con_sbcape_066.txt.gz
CAPE
3 5 9 10 11 8 17 9 11 15 17 30 39 46 22 28 17 4 5 9 50 74 82 59 33 128 1 0 0 0 11 44 36 113 57 30 12 4 9 15 18 11 2 28 43 6 0
3 3 7 9 14 5 16 9 19 20 13 17 34 52 24 28 8 6 1 6 17 26 10 64 40 101 0 0 0 0 0 0 0 6 9 30 23 0 10 33 64 2 10 20 41 20 4
2 1 5 7 10 8 6 16 20 30 38 16 17 33 49 22 14 10 6 7 19 55 4 18 102 0 0 0 0 0 0 0 0 0 50 8 8 17 15 60 12 8 105 100 63 16 25
3 1 3 6 11 14 6 13 21 29 31 27 18 26 30 23 21 5 3 69 95 26 64 121 108 0 0 0 0 0 0 0 1 13 49 13 48 12 7 1 13 50 18 54 0 11 1
2 2 1 2 8 9 8 12 11 11 30 28 13 9 18 31 16 21 1 22 101 26 18 74 0 0 0 3 76 0 0 13 18 79 108 53 49 11 0 14 14 45 4 0 0 5 0
1 1 1 2 5 11 16 13 16 10 22 28 13 15 8 21 12 24 3 0 8 0 0 5 23 0 0 0 51 42 132 38 33 84 20 13 30 16 0 2 0 0 0 0 0 0 0
0 0 1 2 3 7 14 14 14 14 22 24 6 17 6 6 6 17 0 0 0 0 0 0 0 1 1 11 34 50 37 9 1 39 2 0 24 6 0 0 0 0 0 0 0 0 0
0 0 1 2 3 5 10 15 9 11 11 17 13 13 6 5 3 9 0 0 0 0 0 0 5 0 1 0 28 10 12 1 25 15 5 6 8 0 2 0 0 0 0 0 0 0 0
0 0 0 2 3 3 7 10 10 9 13 6 14 7 10 4 4 0 0 0 0 0 0 3 7 0 2 1 37 1 0 0 5 8 7 4 0 4 33 0 1 0 0 0 0 0 0
0 0 0 1 2 3 5 7 9 11 12 15 12 6 11 0 0 0 0 0 0 0 0 3 2 4 17 0 12 1 2 0 4 18 9 4 9 9 43 11 0 0 0 0 0 0 0
0 0 0 1 1 2 3 6 8 10 7 12 10 6 7 6 0 0 0 0 0 0 0 0 0 0 1 1 7 7 2 0 0 25 3 4 5 5 24 9 1 0 0 0 0 0 0
0 0 0 0 0 1 2 4 6 8 5 5 6 7 1 0 0 0 0 0 0 0 0 0 4 0 1 4 2 0 5 14 10 21 1 1 0 0 7 0 0 0 0 0 0 0 0
0 0 0 0 0 0 3 5 3 6 5 3 2 0 0 0 0 0 0 0 0 0 0 0 6 0 6 9 10 1 8 4 3 1 0 3 0 0 0 9 2 0 0 0 0 0 0
0 0 0 0 0 1 3 7 4 6 2 2 0 0 0 0 0 0 0 0 0 0 0 0 16 1 6 6 10 4 26 10 0 0 0 0 35 0 0 0 2 0 0 0 0 0 0
0 0 0 0 0 2 3 6 7 4 1 1 0 0 0 0 0 0 0 0 0 0 0 0 3 3 6 0 0 0 0 0 0 0 0 0 2 0 0 0 0 0 0 0 0 0 0
0 0 0 0 0 2 2 5 6 3 0 0 0 0 0 0 0 0 0 0 0 0 0 0 0 0 0 0 0 0 0 0 0 0 0 0 1 0 0 0 0 0 0 0 0 0 0
0 0 0 0 0 1 2 2 4 2 0 0 0 0 0 0 0 0 0 0 0 0 0 0 0 0 0 0 0 0 0 0 0 0 0 0 0 4 0 0 0 1 0 0 0 0 0
0 0 0 0 0 0 0 1 2 0 0 0 0 0 0 0 0 0 0 0 0 0 0 0 0 0 0 0 0 0 0 0 0 0 0 0 0 1 2 0 0 0 0 0 0 0 0
0 0 0 0 0 0 0 0 1 0 0 0 0 0 0 0 0 0 0 0 0 0 0 0 0 0 0 0 0 0 0 0 0 0 0 0 0 1 2 0 0 6 3 2 0 0 0
0 0 0 0 0 0 0 0 1 0 0 0 0 0 0 0 0 0 0 0 0 0 0 0 0 0 0 0 0 0 0 0 0 0 0 0 0 0 0 0 0 4 0 0 0 6 3
0 0 0 0 0 0 0 0 0 0 0 0 0 0 0 0 0 0 0 0 0 0 0 0 0 0 0 0 0 0 0 0 0 0 0 0 0 0 0 0 0 0 0 0 0 0 1
0 0 0 0 0 0 0 0 0 0 0 0 0 0 0 0 0 0 0 0 0 0 0 0 0 0 0 0 0 0 0 0 0 0 0 0 0 0 0 0 0 0 0 0 0 0 0
0 0 0 0 0 0 0 0 0 0 0 0 0 0 0 0 0 0 0 0 0 0 0 0 0 0 0 0 0 0 0 0 0 0 0 0 0 0 0 0 0 0 0 0 0 0 0
0 0 0 0 0 0 0 0 0 0 0 0 0 0 0 0 0 0 0 0 0 0 0 0 0 0 0 0 0 0 0 0 0 0 0 0 0 0 0 0 0 0 0 0 0 0 0
0 0 0 0 0 0 0 0 0 0 0 0 0 0 0 0 0 0 0 0 0 0 0 0 0 0 0 0 0 0 0 0 0 0 0 0 0 0 0 0 0 0 0 0 0 0 0
0 1 1 0 0 0 0 0 0 0 0 0 0 0 0 0 0 0 0 0 0 0 0 0 0 0 0 0 0 0 0 0 0 0 0 0 0 0 0 0 0 0 0 0 0 0 0
1 2 1 0 0 0 0 0 0 0 0 0 0 0 0 0 0 0 0 0 0 0 0 0 0 0 0 3 10 2 0 0 0 0 0 0 0 0 0 0 0 0 0 0 0 0 0
8 3 4 1 0 0 0 0 0 0 0 0 0 0 0 0 0 0 0 0 0 0 0 0 0 3 4 0 4 0 0 0 0 0 0 0 0 0 0 3 0 0 0 0 0 0 0
11 6 3 2 0 0 0 0 1 0 0 0 0 0 0 0 0 0 0 0 0 0 0 0 0 8 12 9 0 0 0 0 0 0 0 0 0 0 0 0 0 0 0 0 0 0 0

GFSGBSN_con_sbcape_069.txt.gz
CAPE
4 7 9 6 11 6 15 14 23 21 34 13 16 22 35 15 7 8 6 9 12 10 4 25 17 97 10 0 0 0 1 4 68 94 85 145 77 3 2 17 32 15 59 30 101 7 0
4 5 8 5 9 6 13 13 19 28 33 35 15 17 27 28 18 7 10 9 12 17 0 6 78 29 0 0 0 0 0 0 82 13 49 39 62 3 9 33 39 3 14 60 100 60 22
2 3 5 6 8 10 9 13 5 22 21 34 15 10 22 41 17 29 8 11 90 59 53 48 83 0 0 0 0 0 0 0 0 0 0 15 8 51 2 47 25 11 50 60 94 81 49
1 1 3 7 5 10 7 10 13 6 22 26 15 12 13 23 29 20 18 6 63 61 1 112 93 0 0 0 0 0 0 0 8 48 0 34 12 44 5 2 42 27 28 31 73 89 1
1 1 1 4 6 9 7 12 12 11 19 24 20 8 12 17 23 18 30 18 25 27 7 60 0 0 0 1 30 0 6 39 55 167 55 84 37 39 2 38 30 48 0 0 21 33 1
1 1 1 2 3 7 7 7 8 12 12 22 17 12 11 15 19 8 23 0 0 0 0 0 0 0 0 0 16 50 53 73 66 149 141 82 3 23 0 7 2 0 0 0 0 17 13
0 1 0 1 2 6 8 9 8 14 6 14 16 4 6 10 14 7 0 0 0 0 0 0 0 0 0 22 44 84 60 0 65 99 29 3 2 0 0 0 0 0 0 0 0 0 2
0 1 0 0 1 3 8 8 8 10 11 18 8 4 3 10 6 7 0 0 0 0 0 0 0 0 3 15 4 32 20 40 1 18 0 3 3 0 0 0 0 0 0 0 0 0 0
0 0 0 0 0 1 5 8 9 8 9 8 5 4 2 11 0 0 0 0 0 0 0 2 9 2 19 4 34 7 4 0 2 7 0 0 3 0 1 0 2 0 0 0 0 0 0
0 0 0 0 0 1 3 8 8 7 5 4 7 7 13 1 0 0 0 0 0 0 0 8 9 3 28 1 38 1 5 11 17 23 10 0 6 2 0 0 3 0 0 0 0 0 0
0 0 0 0 0 1 2 7 6 5 9 14 9 6 6 0 0 0 0 0 0 0 0 0 0 0 19 8 11 35 8 43 18 8 2 6 3 18 5 12 0 0 0 0 0 0 0
0 0 0 0 0 1 2 6 4 5 6 10 6 3 1 0 0 0 0 0 0 0 0 0 0 0 7 12 20 4 51 3 30 1 4 11 0 4 6 0 1 0 0 0 0 0 0
0 0 0 0 0 0 2 6 3 4 4 7 4 1 0 0 0 0 0 0 0 0 0 0 10 0 17 19 16 12 11 0 10 6 0 12 16 0 0 13 0 0 0 0 4 0 0
0 0 0 0 0 0 2 2 3 2 2 4 0 0 0 0 0 0 0 0 0 0 0 0 21 5 7 12 11 19 6 5 1 0 4 2 30 0 0 0 2 0 0 0 0 0 0
0 0 0 0 0 0 0 2 1 2 2 2 0 0 0 0 0 0 0 0 0 0 0 0 6 0 1 1 5 6 0 2 0 0 0 0 6 0 0 0 0 1 0 0 0 0 0
0 0 0 0 0 0 0 0 1 1 1 0 0 0 0 0 0 0 0 0 0 0 0 0 0 0 0 1 0 0 0 0 0 0 0 0 0 0 0 0 0 0 0 0 0 0 0
0 0 0 0 0 0 0 0 0 0 0 0 0 0 0 0 0 0 0 0 0 0 0 0 0 0 0 0 0 0 0 0 0 0 0 0 0 2 0 0 6 0 0 0 0 0 0
0 0 0 0 0 0 0 0 0 0 0 0 0 0 0 0 0 0 0 0 0 0 0 0 0 0 0 0 0 0 0 0 0 0 0 0 0 1 0 0 0 0 0 0 0 0 0
0 0 0 0 0 0 0 0 0 0 0 0 0 0 0 0 0 0 0 0 0 0 0 0 0 0 0 0 0 0 0 0 0 0 0 0 0 0 1 0 0 0 0 0 0 0 0
0 0 0 0 0 0 0 0 0 0 0 0 0 0 0 0 0 0 0 0 0 0 0 0 0 0 0 0 0 0 0 0 0 0 0 0 0 0 0 0 0 0 0 0 0 2 0
0 0 0 0 0 0 0 0 0 0 0 0 0 0 0 0 0 0 0 0 0 0 0 0 0 0 0 0 0 0 0 0 0 0 0 0 0 0 0 0 0 0 0 0 3 0 1
0 0 0 0 0 0 0 0 0 0 0 0 0 0 0 0 0 0 0 0 0 0 0 0 0 0 0 0 0 0 0 0 0 0 0 0 0 0 0 0 0 0 0 0 0 0 0
0 0 0 0 0 0 0 0 0 0 0 0 0 0 0 0 0 0 0 0 0 0 0 0 0 0 0 0 0 0 0 0 0 0 0 0 0 0 0 0 0 0 0 0 0 0 0
3 1 1 0 0 0 0 0 0 0 0 0 0 0 0 0 0 0 0 0 0 0 0 0 0 0 0 0 0 0 0 0 0 0 0 0 0 0 0 0 0 0 0 0 0 0 0
5 1 1 0 0 0 0 0 0 0 0 0 0 0 0 0 0 0 0 0 0 0 0 0 0 0 0 0 0 0 0 0 0 0 0 0 0 0 0 0 0 0 0 0 0 0 0
6 2 1 0 0 0 0 0 0 0 0 0 0 0 0 0 0 0 0 0 0 0 0 0 0 0 0 0 0 0 0 0 0 0 0 0 0 0 0 0 0 0 0 0 0 0 0
7 3 2 0 0 0 0 0 0 0 0 0 0 0 0 0 0 0 0 0 0 0 0 0 0 0 0 0 0 0 0 0 0 0 0 0 0 0 0 0 0 0 0 0 0 0 0
8 9 1 0 0 0 1 0 0 0 0 0 0 0 0 0 0 0 0 0 0 0 0 0 0 0 3 2 2 0 0 0 0 0 0 0 0 0 0 0 0 0 0 0 0 0 0
10 12 3 0 0 0 1 0 0 0 0 0 0 0 0 0 0 0 0 0 0 0 0 0 0 1 8 7 3 0 0 0 0 0 0 0 0 0 0 0 0 0 0 0 0 0 0

GFSGBSN_con_sbcape_072.txt.gz
CAPE
7 5 6 7 3 4 7 13 15 25 27 36 29 12 18 34 17 16 4 8 11 10 0 1 21 54 4 0 0 0 0 22 82 24 60 114 142 137 79 55 94 109 92 116 96 119 81
6 5 5 3 3 3 6 8 10 12 24 27 40 20 10 26 30 9 17 5 29 36 0 0 30 3 0 0 0 0 0 5 134 61 130 110 127 67 26 46 127 40 92 159 130 148 86
6 4 5 2 2 3 4 5 11 14 12 35 33 23 13 7 26 15 21 2 11 38 0 0 1 0 0 0 0 0 0 0 117 126 198 69 144 73 0 4 100 88 137 182 137 170 100
6 4 4 1 2 1 4 3 11 13 12 25 33 23 20 10 14 13 13 8 6 29 0 6 8 0 0 0 0 0 0 0 34 65 0 1 36 97 100 72 105 127 124 125 202 164 78
6 2 4 0 1 1 2 3 9 12 14 22 29 22 21 8 13 12 6 19 1 10 0 0 1 8 1 0 26 2 33 1 24 76 5 86 43 48 111 108 99 117 48 49 76 172 77
6 2 2 0 0 1 1 4 8 10 12 19 23 21 3 11 12 5 11 0 0 0 0 0 0 0 7 16 44 54 20 60 60 69 27 112 0 10 62 114 21 6 33 26 40 109 58
6 2 1 0 0 0 1 2 7 8 11 18 19 16 7 9 13 2 0 0 0 0 0 0 2 0 3 0 94 102 78 73 48 9 31 2 5 6 15 25 4 7 25 19 26 96 75
4 4 1 0 0 0 1 2 5 6 11 13 18 14 8 12 8 3 0 0 0 0 0 0 2 11 4 2 24 70 63 65 23 2 6 13 11 4 19 30 6 35 29 51 71 178 171
2 4 1 0 0 0 0 1 3 5 6 9 14 9 10 13 4 0 0 0 0 0 0 0 9 24 35 20 37 4 41 40 7 14 7 7 11 1 39 30 26 27 20 25 7 126 50
5 3 1 0 0 0 1 1 1 4 7 7 7 5 8 2 1 0 0 0 0 0 7 13 16 7 37 20 46 5 12 0 7 16 20 11 8 0 46 19 34 17 16 9 46 79 2
6 2 0 0 0 0 0 0 1 3 5 6 4 4 5 2 0 0 0 0 0 0 7 0 7 0 36 13 13 30 69 34 17 16 2 3 10 33 52 29 30 8 0 7 4 1 1
6 2 0 0 0 0 0 0 1 1 3 8 5 3 1 1 0 0 0 0 0 2 3 0 3 5 17 38 20 14 92 36 30 7 21 9 7 41 40 13 10 0 0 3 6 22 10
5 2 0 0 0 0 0 0 0 1 2 4 4 5 1 0 0 0 0 0 6 3 0 0 11 5 37 0 8 38 29 23 16 33 23 21 20 13 14 16 4 11 18 33 22 37 8
4 1 0 0 0 0 0 0 0 0 2 2 0 4 0 0 0 0 0 0 1 0 3 0 20 8 25 31 12 27 12 17 0 5 26 41 75 28 0 29 10 41 26 12 3 6 6
4 1 0 0 0 0 0 0 0 0 1 0 0 0 0 0 0 0 0 1 0 0 0 4 23 16 14 8 10 19 10 14 3 7 17 10 21 3 0 9 12 13 14 0 0 0 0
6 0 0 0 0 0 0 0 0 0 0 0 0 1 4 0 0 0 1 0 0 0 0 0 0 0 0 3 17 16 12 0 0 0 0 0 21 2 1 6 5 20 0 7 3 0 0
6 0 0 0 0 0 0 0 0 0 0 0 0 7 2 0 0 0 6 0 0 0 0 0 0 0 0 2 1 1 0 0 0 0 0 0 0 15 4 5 33 9 6 0 1 0 1
6 0 0 0 0 0 0 0 0 0 0 0 0 0 1 0 3 1 2 0 0 0 0 0 0 0 0 0 0 0 0 0 0 0 0 0 1 13 10 0 0 4 22 12 22 1 0
5 0 0 0 0 0 0 0 0 0 0 0 0 3 0 0 8 1 0 0 0 0 0 0 0 0 0 0 0 0 0 0 0 0 0 0 0 9 4 0 0 6 6 0 0 0 1
3 0 0 0 0 0 0 0 0 0 0 0 0 0 0 0 0 0 0 0 0 0 0 0 0 0 0 0 0 0 0 0 0 0 0 0 0 0 0 0 0 2 2 3 0 26 1
4 0 0 0 0 0 0 0 0 0 0 0 0 0 0 3 0 0 0 0 0 0 0 0 0 0 0 3 0 0 0 0 0 0 0 0 0 0 0 0 0 0 0 0 2 0 6
8 3 0 0 0 0 0 0 0 0 0 0 0 0 0 0 0 0 0 0 0 0 0 0 0 0 0 0 0 0 0 0 0 0 0 0 1 0 0 0 0 0 0 0 0 0 0
11 5 0 0 0 0 0 0 0 0 0 0 0 0 0 0 0 0 0 0 0 0 0 0 0 0 0 0 0 0 0 0 0 0 0 5 0 0 1 0 0 0 0 0 0 0 0
10 6 0 0 0 0 0 0 0 0 0 0 0 0 0 0 0 0 0 0 0 0 0 0 1 0 0 0 0 0 0 0 0 0 0 0 2 0 1 0 1 0 0 0 0 0 0
9 5 1 0 0 0 0 0 0 0 0 0 0 0 0 0 0 0 0 0 0 0 0 0 1 0 0 0 0 0 0 0 0 0 0 0 0 0 2 0 0 0 0 0 0 0 0
13 5 2 0 0 0 0 0 0 0 0 0 0 0 0 0 0 0 0 0 0 0 0 0 0 0 0 14 14 31 13 1 0 0 0 0 0 6 0 0 0 0 0 0 0 0 0
17 13 4 0 0 0 0 0 0 0 0 0 0 0 0 0 0 0 0 0 0 0 0 0 0 0 0 0 18 24 11 0 0 0 1 4 1 15 6 11 0 0 0 0 0 0 0
17 14 5 3 0 0 0 0 0 0 0 0 1 0 0 0 0 0 0 0 0 0 0 0 0 1 3 23 58 13 0 0 0 0 0 3 10 15 22 26 1 0 0 0 0 0 0
14 10 7 6 2 1 0 0 0 0 0 0 0 0 0 0 0 0 0 0 0 0 0 0 1 3 5 1 10 1 0 0 0 8 0 2 0 0 0 0 0 0 0 0 0 0 0

GFSGBSN_con_sbcape_075.txt.gz
CAPE
7 5 6 3 2 1 4 4 8 4 8 16 29 41 16 11 35 30 26 9 8 49 9 0 2 0 27 14 0 0 10 8 65 92 17 88 129 114 94 13 62 146 112 87 55 27 31
8 8 3 3 0 2 2 4 4 4 6 14 27 40 21 15 12 38 20 33 4 36 3 0 10 0 7 4 0 3 0 4 76 95 40 83 66 84 55 39 42 21 38 49 133 22 78
9 9 3 4 0 3 1 3 4 7 4 10 25 32 24 18 16 24 25 33 5 17 18 0 0 0 6 5 0 3 0 6 165 106 78 122 106 89 63 57 28 85 108 112 118 10 81
18 9 5 3 1 1 1 2 3 8 6 8 21 23 25 16 13 18 18 21 26 9 2 0 11 13 19 1 2 1 0 1 139 168 51 40 53 77 92 80 99 118 153 100 68 49 125
103 8 6 3 1 0 1 1 2 6 5 7 22 19 21 13 17 15 9 17 14 0 0 0 8 21 26 19 30 16 9 12 100 97 30 22 52 54 62 64 84 97 52 65 90 135 93
118 13 5 4 2 0 1 1 1 3 6 8 17 16 15 14 15 18 3 4 0 0 0 1 1 50 10 19 83 34 19 21 86 118 79 63 1 90 44 135 53 26 36 21 42 89 76
114 6 6 3 3 1 0 1 2 1 5 7 14 14 16 15 12 15 5 0 1 1 0 0 8 9 1 3 77 105 30 8 94 54 45 19 7 6 8 45 14 0 0 49 39 83 103
112 3 6 3 3 1 0 0 2 1 4 7 10 11 13 14 13 3 4 0 0 0 7 0 11 15 6 2 54 154 93 61 74 63 1 16 9 2 15 38 5 49 38 60 55 47 95
101 6 6 4 2 1 0 0 1 0 2 5 8 6 8 12 6 4 0 0 0 0 4 14 10 18 13 0 73 93 130 90 3 4 1 23 13 4 7 18 3 22 46 74 63 62 73
87 14 7 6 1 1 0 0 1 0 1 4 6 8 9 4 0 1 0 0 0 0 5 14 18 3 38 45 12 8 95 42 2 0 3 20 13 3 19 34 13 34 28 51 53 93 10
71 10 6 6 1 0 0 0 1 1 0 3 6 6 7 0 3 1 0 0 0 0 9 9 7 4 40 21 30 29 44 23 0 7 44 19 10 15 87 16 27 9 43 53 51 103 55
56 28 6 5 0 0 0 0 0 0 0 0 1 3 1 2 2 0 0 0 0 10 1 2 10 15 14 26 32 56 25 21 35 43 60 18 10 21 45 44 35 33 65 41 51 38 21
45 4 5 3 0 0 0 0 0 0 0 0 0 4 1 0 2 0 0 6 7 13 0 4 22 6 11 0 0 30 39 14 47 34 101 20 21 26 28 47 41 50 62 48 29 26 12
51 0 4 2 1 0 0 0 0 0 0 0 0 1 0 2 0 0 0 4 4 1 1 1 27 19 20 0 0 24 15 41 33 15 3 30 109 27 27 8 9 34 54 23 1 4 2
46 0 4 2 0 0 0 0 0 0 0 0 0 9 3 4 0 0 2 18 10 1 0 9 31 25 21 13 13 22 30 23 3 12 50 33 22 15 37 23 63 40 40 0 1 0 10
28 0 5 4 0 0 0 0 0 0 0 0 4 9 10 6 0 2 1 1 1 0 0 5 9 14 6 7 15 16 5 1 4 4 0 13 13 5 29 35 24 36 24 6 4 0 0
7 2 6 2 0 0 0 0 0 0 0 0 9 6 11 0 0 5 1 1 0 0 0 9 8 3 0 11 12 22 27 0 10 1 0 19 17 16 44 41 32 19 1 20 12 5 12
1 4 8 3 1 0 0 0 0 0 0 0 9 10 5 1 16 4 2 0 0 0 0 0 0 15 8 15 12 17 22 16 2 0 0 0 9 10 25 7 1 11 27 25 24 7 0
0 8 10 4 1 0 0 0 0 0 0 1 1 4 0 2 2 11 0 0 0 0 0 0 0 0 4 15 16 8 1 0 3 0 1 0 10 5 9 3 0 0 3 11 29 21 30
1 9 11 4 2 0 0 0 0 0 0 0 0 3 4 3 6 0 3 2 1 0 0 0 0 0 1 2 0 2 0 0 0 0 0 0 1 8 22 1 0 1 0 9 16 43 1
3 8 11 4 0 0 0 0 0 0 0 0 0 0 0 5 1 0 0 1 8 0 0 0 0 1 5 6 9 10 0 0 0 0 0 0 3 0 0 0 0 0 1 3 6 0 37
5 11 11 5 0 0 0 0 0 0 0 0 0 0 0 0 0 0 0 2 14 0 0 0 0 0 0 14 1 13 5 8 11 0 0 0 0 0 0 0 0 0 0 0 3 3 10
6 13 12 3 0 0 0 0 0 0 0 0 0 0 0 0 0 0 0 8 7 0 0 0 0 0 7 0 0 0 0 0 1 9 12 33 0 0 19 0 0 0 0 0 0 0 0
9 18 9 5 0 0 0 0 0 0 0 0 0 0 0 0 0 0 0 0 0 0 3 0 4 7 0 0 0 0 0 0 0 0 1 35 21 18 18 0 3 0 0 0 0 0 0
14 20 8 9 0 0 0 0 0 0 0 0 0 0 0 0 0 0 0 0 0 0 0 1 0 0 0 0 0 4 4 5 0 0 0 1 27 15 20 9 0 0 0 0 0 0 0
22 20 12 9 2 0 0 0 0 0 0 0 0 0 0 0 0 0 0 0 0 0 0 0 0 0 0 26 29 18 21 9 3 0 0 0 0 3 5 8 1 0 0 0 0 0 0
27 22 15 5 0 0 0 0 0 0 0 0 0 0 0 0 0 0 0 0 0 0 0 0 0 3 0 15 19 34 21 1 3 7 3 5 14 18 20 2 5 0 0 0 0 0 0
17 15 20 9 3 1 0 0 0 0 0 0 0 0 0 0 0 0 0 0 0 0 0 0 1 5 6 3 3 24 11 4 0 4 8 13 13 19 12 33 11 0 0 0 4 0 0
16 19 15 6 3 1 0 0 0 0 0 0 0 0 0 0 0 0 0 0 0 0 0 0 0 0 0 2 2 1 3 0 4 9 0 7 25 9 11 13 0 0 0 0 0 0 0

GFSGBSN_con_sbcape_078.txt.gz
CAPE
13 9 9 2 4 2 0 2 2 3 3 13 13 19 27 32 13 9 43 18 28 7 28 0 2 0 0 12 0 14 28 8 16 51 66 22 105 81 51 3 79 54 75 64 43 17 10
76 33 11 4 4 2 1 0 5 3 5 7 10 17 27 34 18 14 21 25 29 3 24 2 0 0 2 4 0 5 19 0 45 56 80 52 49 79 9 7 41 69 43 74 13 1 0
89 89 42 10 3 4 0 0 1 6 7 7 8 17 19 29 15 12 16 24 16 10 7 0 0 0 7 0 0 4 12 1 94 112 127 99 105 112 67 64 8 64 99 81 31 46 0
115 85 80 10 6 3 0 0 0 4 9 6 10 14 24 22 9 13 20 12 4 20 1 0 0 0 15 0 0 2 6 0 45 250 188 103 135 75 45 37 25 97 55 14 14 48 39
112 74 98 22 11 4 1 0 0 4 7 6 8 12 17 11 4 11 21 1 5 1 0 0 0 25 13 0 4 4 0 32 81 91 203 102 60 78 36 32 40 49 15 18 52 2 0
92 104 72 43 4 4 1 0 0 3 6 6 7 10 16 15 13 10 6 0 0 0 0 0 3 12 13 6 15 8 0 0 28 69 111 65 6 8 9 69 8 5 0 22 10 15 1
94 93 44 8 5 4 2 0 0 2 5 5 6 6 11 11 11 17 0 0 0 0 0 0 0 11 23 1 30 26 1 0 57 12 35 4 9 26 2 0 13 0 0 0 0 86 69
109 75 73 11 7 5 1 0 0 1 2 4 6 6 7 14 14 7 0 0 0 0 3 0 1 8 4 0 26 37 2 18 21 28 0 3 16 1 13 1 9 0 0 2 31 93 50
29 71 65 38 5 6 1 0 0 1 1 3 5 4 6 13 6 0 0 0 0 0 2 7 0 7 8 3 74 33 41 25 12 5 0 4 1 3 4 37 9 0 0 4 0 21 23
33 83 51 56 6 7 2 0 0 0 0 1 3 3 6 5 0 2 0 0 0 0 3 9 8 1 8 0 2 28 86 48 1 13 0 1 10 2 0 6 17 5 5 32 9 30 43
36 23 43 49 1 8 4 0 0 0 0 0 3 3 4 0 3 1 0 0 0 0 0 1 0 0 8 6 0 0 35 51 1 0 2 6 2 0 18 2 23 17 0 10 54 57 24
21 37 25 60 1 8 4 0 0 0 0 0 0 2 4 0 1 0 0 0 0 1 0 0 14 10 5 22 11 3 12 0 10 0 0 14 6 8 82 46 2 1 24 4 26 29 2
60 29 10 70 1 4 5 0 0 0 0 0 0 1 0 2 6 0 0 0 4 3 0 0 4 4 3 1 5 13 9 6 16 1 16 54 36 16 21 17 21 19 8 2 4 1 0
97 45 15 54 0 6 7 0 0 0 0 0 0 1 0 0 0 0 0 3 0 0 0 2 6 1 7 0 12 21 11 1 32 55 0 0 6 20 3 24 16 9 0 2 0 0 0
57 66 27 34 1 8 7 1 0 0 0 0 3 2 6 0 0 1 6 1 11 0 0 8 3 16 3 1 2 23 8 10 58 10 38 6 3 0 8 12 13 20 18 0 0 0 0
106 69 33 29 4 12 7 3 1 0 0 0 0 5 4 10 1 6 1 0 1 0 0 13 24 19 14 2 5 5 6 2 15 4 0 0 0 0 8 17 9 13 3 0 0 0 0
87 33 34 27 5 11 6 5 1 0 0 0 2 10 8 0 0 17 0 0 3 0 0 5 9 9 2 5 1 6 3 0 2 0 0 0 0 3 13 17 0 0 4 6 4 0 12
59 96 47 24 6 10 11 12 1 0 0 0 5 11 1 0 22 3 1 0 0 0 0 0 1 11 2 11 10 7 0 0 5 0 0 0 1 4 11 0 0 6 15 3 3 4 0
51 16 56 14 9 13 15 19 1 0 0 0 6 4 0 1 2 1 0 0 0 0 0 0 1 0 6 15 10 7 2 0 0 0 0 0 1 1 2 0 0 0 17 33 1 0 0
48 24 23 10 9 14 19 10 2 0 0 0 0 5 6 7 1 0 1 0 0 0 0 0 0 0 0 5 2 9 0 0 0 0 0 0 0 2 0 0 0 0 0 0 1 0 0
37 23 24 8 12 12 20 3 2 1 0 0 0 0 0 4 2 0 0 1 2 0 0 0 0 0 3 8 7 10 0 0 0 0 0 0 0 0 0 0 0 0 0 0 0 0 0
51 45 44 9 14 9 19 1 2 2 0 0 0 0 0 0 0 0 0 0 3 0 0 0 0 0 0 0 0 7 0 1 1 0 0 0 0 0 0 0 0 0 0 0 0 0 0
55 28 25 12 14 11 15 3 2 1 1 0 0 0 0 0 0 0 0 0 3 2 0 0 0 0 0 0 0 0 0 0 0 2 1 1 0 0 2 0 0 0 0 0 0 0 0
43 37 7 18 16 11 11 3 1 1 0 0 0 0 0 0 0 0 0 0 0 0 1 0 0 0 0 0 0 0 0 0 0 0 1 13 0 0 1 0 0 0 0 0 0 0 0
37 29 16 18 11 9 6 0 0 1 0 0 0 0 0 0 0 0 0 0 0 0 0 0 0 0 0 0 0 1 0 0 0 0 0 15 5 0 4 0 0 0 0 0 0 0 0
39 38 20 16 11 7 2 0 0 3 0 0 0 0 0 0 0 0 0 0 0 0 0 0 0 0 0 8 4 6 0 0 0 0 0 0 0 2 2 0 0 0 0 0 0 0 0
11 57 25 14 12 4 0 0 0 2 0 0 0 0 0 0 0 0 0 0 0 0 0 0 0 0 0 3 1 9 6 0 0 0 0 0 1 0 0 7 0 0 0 0 0 0 0
10 28 22 13 9 2 0 0 0 0 0 0 0 0 0 0 0 0 0 0 0 0 0 0 0 0 2 0 1 0 1 0 0 0 0 0 1 1 0 9 0 0 0 0 0 0 0
20 19 15 14 16 0 0 0 0 0 0 0 0 0 0 0 0 0 0 0 0 0 0 0 0 0 0 0 0 0 0 0 0 0 0 0 1 2 0 0 0 0 0 0 0 0 0

GFSGBSN_con_sbcape_081.txt.gz
CAPE
116 114 77 22 9 6 3 1 1 1 4 8 10 10 20 20 29 9 13 19 23 35 4 28 3 0 0 0 3 0 53 10 0 9 72 90 29 114 78 0 58 9 72 41 14 36 11
170 124 100 78 39 7 8 2 2 0 1 9 13 9 21 20 25 9 10 9 25 27 5 30 1 0 0 0 0 0 7 22 0 7 0 29 57 17 35 5 28 22 16 47 29 25 1
172 187 157 121 65 13 8 2 1 0 0 3 11 12 18 21 18 10 10 16 18 7 20 20 0 0 6 2 0 0 16 1 0 80 4 97 97 83 44 31 0 69 39 0 9 1 8
27 191 219 167 104 46 6 2 1 0 0 3 7 10 15 22 13 8 10 21 3 4 12 9 0 0 17 0 0 0 6 26 166 151 207 153 103 107 51 1 31 98 76 37 14 59 9
17 16 167 207 166 80 7 3 1 0 0 2 5 8 14 14 11 6 4 14 0 4 0 0 0 4 5 1 0 0 0 0 113 175 161 18 41 33 25 32 54 41 1 20 7 24 12
9 17 20 118 158 100 9 5 0 0 0 2 4 5 8 15 9 13 11 0 0 0 0 0 1 9 2 2 2 0 0 0 25 63 14 6 2 1 9 40 32 30 26 23 26 0 19
10 9 23 17 141 102 27 7 0 0 0 2 3 5 5 8 9 14 0 0 0 0 0 0 2 2 9 0 10 2 0 0 11 0 0 1 4 0 0 1 0 2 5 21 30 30 0
12 21 16 21 25 117 47 8 3 0 0 1 3 3 2 5 8 10 0 0 0 0 0 0 0 1 0 0 5 2 0 0 0 2 0 0 3 4 3 0 6 0 5 2 30 63 23
10 18 28 15 31 88 74 7 7 0 0 1 0 1 0 2 3 0 0 0 0 0 0 1 0 0 0 0 3 1 2 1 4 0 0 0 6 3 6 3 1 1 0 1 0 32 2
42 13 20 28 9 17 75 7 7 1 0 0 0 2 0 5 0 0 0 0 0 0 0 1 2 0 0 0 0 0 29 36 0 0 0 0 0 8 36 4 3 3 0 0 12 17 19
25 36 28 40 23 14 34 4 9 4 1 0 0 1 0 3 0 0 0 0 0 0 0 5 0 0 12 0 0 0 19 32 0 0 0 0 42 20 22 10 0 3 0 0 1 18 3
27 42 80 37 39 25 32 4 10 7 5 0 0 0 1 0 0 0 0 0 0 0 0 1 3 1 2 4 9 9 55 0 0 0 0 0 15 14 37 23 1 0 2 16 4 0 5
115 49 73 66 51 36 33 3 8 12 5 0 0 0 0 1 1 0 0 0 0 0 0 0 0 3 3 3 12 1 8 1 11 0 0 49 27 41 47 12 5 4 0 1 0 0 0
174 131 112 125 69 10 34 6 9 10 9 0 0 0 0 1 0 0 0 0 0 0 0 0 0 0 2 0 7 3 5 0 0 2 3 0 0 2 8 8 0 4 0 0 0 0 0
179 182 202 198 74 5 30 11 10 15 10 0 1 0 0 0 0 0 6 0 0 0 0 0 0 1 5 13 1 21 6 1 14 0 1 0 2 1 1 0 0 0 0 0 0 0 0
222 216 233 105 39 28 51 12 13 16 3 3 0 1 3 0 0 5 1 0 0 0 0 0 7 8 14 1 1 3 9 3 10 1 0 0 0 0 2 0 0 0 0 0 0 0 0
156 70 104 57 51 42 46 18 15 17 1 8 0 3 1 0 1 12 0 0 0 0 0 1 9 17 5 1 0 1 0 0 0 0 0 0 0 0 1 0 0 0 3 0 0 0 0
82 67 81 148 82 26 21 21 17 12 3 1 0 2 1 0 4 5 0 0 0 0 0 0 1 11 3 0 0 0 0 0 0 0 0 0 0 0 0 0 0 0 0 1 0 0 0
90 79 96 133 96 27 19 25 18 20 8 0 0 4 0 2 1 1 0 0 0 0 0 0 0 0 6 9 10 1 0 0 0 0 0 0 0 0 2 0 0 0 0 1 0 0 0
106 67 70 75 83 38 19 23 21 18 0 0 0 1 3 11 1 0 0 0 0 0 0 0 0 0 0 13 1 0 0 0 0 0 0 0 0 0 0 0 0 0 0 0 0 0 0
84 117 46 52 95 15 19 19 26 4 0 0 0 0 0 2 0 0 0 0 0 0 0 0 0 0 0 0 7 0 0 0 0 0 0 0 0 0 0 0 0 0 0 0 0 0 0
119 89 33 48 83 19 18 22 15 2 2 0 0 0 0 0 0 0 0 0 0 0 0 0 0 0 0 0 0 0 0 0 0 0 0 0 0 0 0 0 0 0 0 0 0 0 0
92 48 42 32 37 25 17 21 9 3 0 0 0 0 0 0 0 0 0 0 0 0 0 0 0 0 0 0 0 0 0 0 0 0 0 0 0 0 0 0 0 0 0 0 0 0 0
75 38 40 16 53 18 16 22 15 2 0 0 0 0 0 0 0 0 0 0 0 0 0 0 0 0 0 0 0 0 0 0 0 0 0 0 0 0 0 0 0 0 0 0 0 0 0
26 44 29 19 5 18 20 22 9 2 0 0 0 0 0 0 0 0 0 0 0 0 0 0 0 0 0 0 0 0 0 0 0 0 0 7 0 1 0 0 0 0 0 0 0 0 0
10 46 46 39 12 13 23 14 6 1 0 0 0 0 0 0 0 0 0 0 0 0 0 0 0 0 0 0 0 0 0 0 0 0 0 0 0 0 0 0 0 0 0 0 0 0 0
26 44 40 29 14 17 15 18 5 1 0 0 0 0 0 0 0 0 0 0 0 0 0 0 0 0 0 0 0 0 0 0 0 0 0 0 0 0 0 0 0 0 0 0 0 0 0
20 18 28 23 18 18 16 12 1 7 0 0 0 0 0 0 0 0 0 0 0 0 0 0 0 0 0 0 0 0 0 0 0 0 0 0 0 0 0 7 2 0 0 0 0 0 0
13 8 33 24 14 16 18 0 1 7 0 0 0 0 0 0 0 0 0 0 0 0 0 0 0 0 0 0 0 0 0 0 0 0 0 0 0 0 0 0 0 0 0 0 0 0 0

GFSGBSN_con_sbcape_084.txt.gz
CAPE
28 73 123 156 149 161 86 10 8 5 1 3 6 7 6 9 18 23 10 15 12 29 32 1 33 6 0 0 0 0 41 20 8 8 31 34 105 118 71 11 12 86 123 80 49 34 13
21 25 23 49 157 168 163 57 10 6 1 1 5 6 7 7 14 12 10 6 9 20 16 5 34 4 0 0 0 0 11 10 5 0 1 89 104 101 51 26 0 7 28 18 48 15 0
11 13 17 21 5 142 149 140 9 9 3 1 4 4 6 7 9 11 8 11 19 8 2 28 36 3 2 0 0 0 0 13 4 0 2 5 32 63 92 29 0 38 55 17 2 31 10
14 13 11 14 24 12 72 116 8 9 5 5 3 2 6 7 3 6 6 10 13 1 2 15 32 0 0 0 0 0 0 54 61 34 21 99 144 159 58 4 9 34 84 19 35 91 23
12 18 18 15 13 17 20 88 23 7 6 5 5 1 4 6 4 3 9 8 3 0 2 1 2 5 0 0 0 0 0 0 63 118 89 67 51 45 38 23 44 34 9 6 31 6 43
24 16 11 16 19 7 21 18 75 7 9 8 3 0 2 3 0 2 2 1 0 0 0 0 0 0 0 0 0 0 0 0 31 36 2 1 0 3 4 34 23 6 6 8 28 14 5
32 18 10 9 16 41 11 22 47 11 8 10 8 2 0 0 0 2 0 0 0 0 0 0 0 0 0 0 0 0 0 0 2 0 0 0 12 5 0 9 32 4 0 0 0 11 3
19 32 37 29 7 17 47 13 15 47 8 14 11 7 0 0 0 2 0 0 0 0 0 0 0 0 0 0 0 0 0 0 0 0 0 0 3 2 11 20 3 7 5 5 22 28 12
5 10 22 31 39 7 24 34 29 36 9 17 15 7 0 0 0 0 0 0 0 0 0 0 0 0 0 0 0 0 9 0 0 0 0 3 1 0 12 5 10 1 0 0 3 26 29
30 17 10 4 17 30 26 56 18 40 7 15 15 0 0 0 0 0 0 0 0 0 0 0 0 0 0 0 0 0 12 0 0 0 0 1 5 22 0 0 2 18 0 0 31 30 40
34 26 30 26 27 34 27 42 29 37 5 11 19 1 0 0 0 0 0 0 0 0 0 0 0 0 0 0 0 0 0 1 0 0 0 0 38 25 0 1 0 16 6 2 35 1 0
62 55 53 91 30 43 97 24 50 16 9 9 19 1 0 0 0 0 0 0 0 0 0 1 0 0 0 8 11 9 12 0 0 0 0 20 19 16 26 13 0 4 4 0 1 4 0
85 78 102 136 115 51 92 61 88 7 12 11 14 1 0 0 0 0 0 0 0 1 0 0 0 0 1 8 9 1 14 0 0 0 0 25 27 17 28 13 20 0 0 0 0 0 0
104 156 129 128 124 108 84 112 117 20 16 23 13 1 0 0 0 0 0 0 0 0 0 0 0 0 0 1 2 17 15 1 0 0 26 2 2 19 17 9 3 10 0 0 0 0 0
196 249 256 241 223 123 64 77 44 32 36 28 17 0 0 0 0 0 0 0 0 0 0 5 0 0 7 0 4 6 0 0 0 0 0 0 7 1 6 1 0 0 0 0 0 0 0
304 316 239 258 188 160 78 65 47 51 39 32 0 0 0 0 0 1 0 0 0 0 0 0 0 0 0 0 0 3 0 0 1 0 0 0 2 0 2 0 0 0 0 0 0 0 0
305 206 194 194 120 60 69 70 84 65 49 36 0 0 0 0 1 8 0 0 0 0 0 1 0 6 9 0 0 0 0 0 0 0 0 0 0 0 0 0 0 0 0 0 0 0 0
198 166 124 101 64 101 99 122 64 58 50 4 0 1 0 1 2 3 0 0 0 0 0 0 0 4 0 0 0 3 0 0 0 0 0 0 0 0 0 0 0 0 0 0 0 0 0
132 107 105 144 86 83 71 69 80 42 34 0 0 2 0 5 1 3 0 0 0 0 0 0 0 0 4 0 2 0 0 0 0 0 0 0 0 1 2 0 0 0 0 0 0 0 0
87 83 100 99 88 57 37 69 29 35 22 0 0 1 2 18 1 1 0 0 1 0 0 0 0 0 0 9 0 0 0 0 0 0 0 0 0 0 0 0 0 0 0 0 0 0 0
69 62 67 108 55 36 47 94 33 36 7 0 0 0 0 3 3 0 0 0 0 0 0 0 0 0 0 1 0 0 0 0 0 0 0 0 0 0 0 0 0 0 0 0 0 0 0
63 57 37 67 34 31 48 55 30 33 9 0 0 0 0 0 0 0 1 0 0 0 0 0 0 0 0 0 0 0 0 0 0 0 0 0 0 0 0 0 0 0 0 0 0 0 0
50 37 23 39 38 47 41 32 31 8 1 0 0 0 0 0 0 0 0 0 0 0 0 0 0 0 0 0 0 0 0 0 0 0 0 0 0 0 0 0 0 0 0 0 0 0 0
40 26 37 32 30 45 54 22 32 16 0 0 0 0 0 0 0 0 0 0 0 0 0 0 0 0 0 0 0 0 0 0 0 0 0 0 0 0 0 0 0 0 0 0 0 0 0
32 14 22 29 58 38 52 24 27 50 0 0 0 0 0 0 0 0 0 0 0 0 0 0 0 0 0 0 0 0 0 0 0 0 0 0 0 0 0 0 0 0 0 0 0 0 0
19 15 3 6 36 53 25 21 46 53 0 0 0 0 0 0 0 0 0 0 0 0 0 0 0 0 0 0 0 0 0 0 0 0 0 0 0 0 3 0 0 0 0 0 0 0 0
14 7 1 14 18 35 13 23 41 58 0 0 0 0 0 0 0 0 0 0 0 0 0 0 0 0 0 0 0 0 0 0 0 0 0 0 0 0 0 0 0 0 0 0 0 0 0
8 1 13 4 13 20 23 33 25 45 0 0 0 0 0 0 0 0 0 0 0 0 0 0 0 0 0 0 0 0 0 0 0 0 0 0 0 0 0 0 0 0 0 0 0 0 0
1 7 9 15 17 18 20 19 22 16 0 0 0 0 0 0 0 0 0 0 0 0 0 0 0 0 0 0 0 0 0 0 0 0 0 0 0 0 0 0 0 0 0 0 0 0 0

GFSGBSN_con_sbcape_087.txt.gz
CAPE
10 10 14 16 18 23 12 152 126 37 11 12 9 12 11 10 12 17 6 7 5 7 38 37 14 33 0 0 0 0 0 45 2 1 1 44 91 53 44 33 30 48 0 30 255 95 9
8 7 11 13 19 19 20 27 75 121 30 15 12 15 11 7 10 14 5 8 10 16 25 25 19 12 1 0 0 0 0 8 13 9 0 32 43 80 43 71 15 32 90 30 231 73 2
8 12 11 9 11 11 13 15 43 28 77 20 11 15 11 10 15 10 9 3 6 26 9 25 26 3 2 0 0 0 0 15 3 32 0 5 47 127 58 54 6 14 74 19 173 3 12
8 9 17 17 13 9 22 24 24 27 127 26 9 18 19 9 8 15 5 3 1 8 4 19 8 0 1 0 0 0 0 20 59 5 0 46 53 45 93 31 68 73 26 2 91 13 2
29 32 19 23 26 17 11 30 30 17 21 21 11 18 18 5 11 15 3 6 1 2 5 4 0 1 0 0 0 0 0 2 62 22 9 107 63 36 117 36 33 55 12 5 24 1 13
33 29 35 26 12 14 19 16 30 28 11 42 5 18 19 2 6 3 2 2 0 0 0 0 0 1 0 0 0 0 0 0 25 1 0 31 42 4 5 36 2 3 3 8 6 32 35
27 28 27 29 24 14 8 11 18 11 12 41 6 16 16 1 3 0 2 0 0 0 0 0 0 0 0 0 0 0 0 0 4 8 5 0 2 1 34 9 0 0 0 2 19 43 17
12 7 8 16 27 26 16 13 8 18 21 1 11 9 15 0 1 6 0 0 0 0 0 0 0 0 0 0 0 0 0 0 0 0 0 0 1 6 2 61 25 19 39 62 46 46 12
14 14 10 10 11 18 30 23 12 8 7 12 33 14 20 0 2 0 0 0 0 0 0 0 0 0 0 0 0 0 0 0 0 0 0 0 5 1 19 53 40 10 28 30 30 43 30
8 7 6 9 4 5 9 35 20 14 13 25 36 19 21 5 0 0 0 0 0 0 0 0 0 0 0 0 0 0 0 0 0 0 0 0 2 11 8 11 4 41 0 11 66 18 97
69 54 39 37 12 2 6 11 29 13 23 20 40 20 31 19 0 0 0 0 0 0 0 0 0 0 2 0 0 0 0 0 0 0 0 0 1 11 3 2 0 28 0 0 16 0 13
80 73 81 115 53 20 8 4 14 34 26 53 41 20 43 32 0 0 0 0 0 0 0 0 0 0 3 1 12 0 2 0 0 0 2 33 7 2 16 17 3 0 4 11 10 7 1
104 96 112 80 82 85 22 46 23 48 47 92 56 27 33 2 0 0 0 0 0 1 0 0 0 0 0 23 5 2 1 0 0 0 8 13 15 12 25 32 0 1 0 0 0 0 0
113 200 192 80 259 226 115 123 90 88 51 77 47 32 35 6 0 0 0 0 0 0 0 0 0 0 1 6 5 25 0 0 0 1 11 0 1 14 4 6 2 21 0 0 0 0 0
211 339 386 76 272 202 130 146 155 82 42 70 79 23 20 0 0 0 0 0 0 0 0 0 0 0 0 2 16 4 0 0 0 0 0 1 24 0 23 13 1 0 0 0 0 0 0
295 345 379 315 273 201 191 165 86 76 43 100 6 27 10 0 0 0 0 0 0 0 0 0 0 0 0 0 4 1 0 0 0 0 0 0 1 3 1 0 0 0 0 0 0 0 0
327 260 263 214 153 150 171 125 63 42 67 70 11 19 10 0 0 0 0 0 0 0 0 0 0 0 0 0 0 0 0 0 0 0 0 0 0 0 0 0 0 0 0 0 0 0 0
264 245 126 104 134 78 69 70 47 90 67 85 23 2 2 0 0 0 0 0 0 0 0 0 0 0 0 0 3 10 0 0 0 0 0 0 0 0 0 0 0 0 0 0 0 0 0
196 157 106 130 137 60 50 90 47 57 61 23 17 12 0 5 0 0 0 0 0 0 0 0 0 0 0 0 3 2 0 0 0 0 0 0 0 0 0 0 0 0 0 0 0 0 0
233 94 78 106 109 83 70 82 52 88 75 4 4 1 8 22 0 0 0 0 2 0 0 0 0 0 0 0 0 0 0 0 0 0 0 0 0 0 0 0 0 0 0 0 0 0 0
149 101 43 51 114 64 67 31 27 42 65 0 0 1 0 2 9 0 0 0 0 0 0 0 0 0 0 0 0 0 0 0 0 0 0 0 0 0 0 0 0 0 0 0 0 0 0
130 65 36 34 62 70 13 6 29 24 70 0 0 0 0 0 0 0 1 0 0 0 0 0 0 0 0 0 0 0 0 0 0 0 0 0 0 0 0 0 0 0 0 0 0 0 0
69 42 29 28 51 21 6 15 53 73 7 0 0 0 0 1 0 0 0 0 0 0 0 0 0 0 0 0 0 0 0 0 0 0 0 0 0 0 0 0 0 0 0 0 0 0 0
61 36 26 45 54 21 17 22 20 76 0 0 0 0 0 1 0 0 0 0 0 0 0 0 0 0 0 0 0 0 0 0 0 0 0 0 0 0 0 0 0 0 0 0 0 0 0
27 17 29 43 23 21 27 32 27 10 0 0 0 0 0 0 0 0 0 0 0 0 0 0 0 0 0 0 0 0 0 0 0 0 0 0 0 0 0 0 0 0 0 0 0 0 0
9 13 21 8 9 29 36 40 51 22 0 0 0 0 0 0 0 0 0 0 0 0 0 0 0 0 0 0 0 0 0 0 0 0 0 0 0 0 0 0 0 0 0 0 0 0 0
6 8 7 2 16 7 40 18 24 0 0 0 0 0 0 0 0 0 0 0 0 0 0 0 0 0 0 0 0 0 0 0 0 0 0 0 0 0 0 0 0 0 0 0 0 0 0
4 2 2 12 9 4 41 18 34 0 0 0 0 0 0 0 0 0 0 0 0 0 0 0 0 0 0 0 0 0 0 0 0 0 0 0 0 0 0 4 0 0 0 0 0 0 0
1 3 19 8 4 13 14 17 32 0 0 0 0 0 0 0 0 0 0 0 0 0 0 0 0 0 0 0 0 0 0 0 0 0 0 0 0 0 0 0 0 0 0 0 0 0 0

GFSGBSN_con_sbcape_090.txt.gz
CAPE
17 14 10 9 9 12 17 19 17 6 51 76 97 9 9 18 19 14 11 19 20 9 6 22 28 21 0 0 0 0 0 2 10 5 1 1 31 46 24 101 71 59 0 26 11 20 15
27 24 20 19 22 18 15 13 16 11 15 21 138 5 4 18 15 15 16 14 12 16 36 5 23 7 0 0 0 0 0 0 16 19 3 3 28 62 37 28 24 21 3 10 25 4 32
35 25 20 17 15 22 15 17 12 20 13 14 18 12 2 18 17 21 18 16 10 24 31 0 22 3 0 0 0 0 0 1 17 32 52 2 19 52 46 93 13 1 54 54 0 4 172
49 43 43 38 25 21 21 21 20 9 7 21 0 26 4 14 17 22 16 15 1 27 25 6 16 0 0 0 0 0 0 6 24 0 0 14 26 0 12 2 60 23 58 60 2 0 30
35 27 29 33 33 31 22 19 16 11 9 3 16 41 7 10 18 14 12 10 7 24 30 29 1 0 0 0 0 0 0 1 34 0 1 51 39 8 3 13 27 51 19 42 2 1 70
25 21 19 22 26 27 36 35 22 15 8 0 12 13 10 10 16 20 0 15 8 10 5 1 0 0 0 0 0 0 0 0 17 0 0 13 5 4 27 2 1 4 14 7 4 37 11
51 48 34 24 33 37 37 38 35 12 6 3 3 16 14 14 19 3 0 0 0 0 0 0 0 0 0 0 0 0 0 0 6 5 1 2 3 4 11 1 0 1 16 0 2 10 9
48 40 41 52 45 45 39 37 35 33 10 6 20 21 22 10 19 14 0 0 0 0 0 0 0 0 0 0 0 0 0 0 0 0 0 0 8 4 43 32 13 46 33 41 28 20 10
42 49 36 41 41 44 35 34 29 50 24 5 1 28 20 12 16 7 0 0 0 0 0 0 0 0 0 0 0 0 0 0 0 0 0 0 1 2 20 72 42 19 2 3 3 13 33
24 33 26 34 29 43 40 35 31 33 42 9 0 14 24 14 3 0 0 0 0 0 0 0 0 0 0 0 0 0 0 0 0 0 0 0 3 11 4 2 12 39 4 58 45 6 5
71 76 80 82 90 74 103 42 26 19 40 61 4 26 40 2 0 4 0 0 0 0 0 0 0 0 1 0 0 0 0 0 0 0 0 1 17 13 8 4 1 35 1 38 8 16 13
88 87 94 101 107 103 81 27 75 8 40 54 39 21 31 23 0 1 0 0 0 0 0 0 0 0 12 4 11 0 0 0 0 0 12 6 3 2 20 20 4 4 2 12 1 3 2
82 77 79 110 161 221 212 62 135 38 21 20 42 19 17 10 2 2 0 0 0 0 0 0 0 0 0 5 3 2 0 0 0 5 43 4 10 1 23 10 0 51 2 0 0 0 0
102 92 107 171 280 288 105 139 168 86 42 32 34 45 0 0 0 0 0 0 0 0 0 0 0 0 0 1 1 10 0 0 0 0 0 0 0 1 6 7 0 2 0 0 0 0 0
92 111 162 239 198 193 209 277 221 147 121 124 98 6 3 0 5 0 2 0 0 0 0 0 0 0 0 0 0 0 0 0 0 0 0 0 1 13 0 11 4 2 0 0 0 0 0
100 139 224 212 184 156 172 210 201 178 131 127 39 42 9 0 0 2 2 0 0 0 0 0 0 0 0 0 0 2 0 0 0 0 0 0 1 5 5 0 0 0 0 0 0 0 0
146 180 254 271 97 82 74 108 138 112 149 64 47 46 26 2 2 14 4 0 0 0 0 0 0 0 0 0 0 0 0 0 0 0 0 0 0 0 0 0 0 0 0 0 0 0 0
111 130 218 236 74 65 56 48 46 41 34 41 41 23 10 4 3 5 2 0 0 0 0 0 0 0 0 0 0 0 0 0 0 0 0 0 0 0 0 0 0 0 0 0 0 0 0
125 240 195 191 68 83 60 40 55 50 65 54 72 45 7 14 0 2 0 0 0 0 0 0 0 0 0 0 0 0 0 0 0 0 0 0 0 0 0 0 0 0 0 0 0 0 0
202 277 222 86 80 76 94 49 32 66 35 22 32 1 18 14 2 0 0 0 0 0 0 0 0 0 0 0 0 0 0 0 0 0 0 0 0 0 0 0 0 0 0 0 0 0 0
107 129 95 51 52 55 30 48 71 57 48 5 6 3 0 0 5 0 0 0 0 0 0 0 0 0 1 0 0 0 0 0 0 0 0 0 0 0 0 0 0 0 0 0 0 0 0
181 130 69 48 36 27 44 37 20 28 3 0 0 0 0 1 1 0 0 0 0 0 0 0 0 0 0 0 0 0 0 0 0 0 0 0 0 0 0 0 0 0 0 0 0 0 0
102 52 59 30 42 42 53 20 16 2 0 0 0 0 0 1 0 0 0 0 1 0 0 0 0 0 0 0 0 0 0 0 0 0 0 0 0 0 0 0 0 0 0 0 0 0 0
36 36 20 11 38 41 22 12 28 5 0 0 0 0 0 0 0 0 0 0 0 0 0 0 0 0 0 0 0 0 0 0 0 0 0 0 0 0 0 0 0 0 0 0 0 0 0
30 22 12 18 18 17 14 25 56 0 0 0 0 0 0 0 0 0 0 0 0 0 0 0 0 0 0 0 0 0 0 0 0 0 0 0 0 0 0 0 0 0 0 0 0 0 0
30 26 17 2 4 21 16 56 4 0 0 0 0 0 0 0 0 0 0 0 0 0 0 0 0 0 0 0 0 0 0 0 0 0 0 0 0 0 0 0 0 0 0 0 0 0 0
17 10 4 2 4 11 40 7 0 0 0 0 0 0 0 0 0 0 0 0 0 0 0 0 0 0 0 0 0 0 0 0 0 0 0 1 2 0 0 1 0 0 0 0 0 0 0
8 7 2 2 1 3 57 1 0 0 0 0 0 0 0 0 0 0 0 0 0 0 0 0 0 0 0 0 0 0 0 0 0 0 0 0 0 0 0 1 0 0 0 0 0 0 0
4 2 0 1 0 4 19 2 0 0 0 0 0 0 0 0 0 0 0 0 0 0 0 0 0 0 0 0 0 0 0 0 0 0 0 0 0 0 0 0 0 0 0 0 0 0 0

GFSGBSN_con_sbcape_093.txt.gz
CAPE
23 20 19 19 19 15 15 13 12 11 16 9 18 8 30 4 6 7 11 0 12 7 16 6 25 32 0 0 0 0 0 0 0 0 0 0 3 15 10 0 6 47 0 64 66 19 145
38 29 38 40 33 26 20 18 20 19 26 18 7 4 4 20 10 6 6 6 13 7 15 29 12 11 0 0 0 0 0 0 0 0 1 4 1 27 19 3 41 56 66 45 91 97 119
54 52 26 41 44 48 30 23 22 19 18 16 11 2 3 15 9 12 9 22 10 1 18 23 9 22 0 0 0 0 0 0 0 17 24 20 3 31 27 17 31 0 0 75 68 99 89
31 52 62 62 60 47 43 43 32 25 16 13 8 6 3 48 11 9 12 13 0 7 7 9 31 1 0 0 0 0 0 0 11 0 0 3 13 21 21 0 5 6 23 40 75 82 0
30 52 79 77 75 74 60 51 42 29 22 13 7 9 10 12 9 14 9 2 1 10 13 21 12 3 0 0 0 0 0 0 33 1 2 28 38 20 0 0 15 50 36 36 97 0 20
26 57 75 83 73 82 78 66 41 36 46 18 4 11 8 17 7 6 13 8 8 1 0 3 4 11 0 0 0 0 0 0 11 0 0 29 1 5 2 9 22 1 28 46 70 42 0
35 69 71 69 76 68 75 68 72 59 41 29 4 5 4 36 6 12 1 0 0 0 0 0 0 0 0 0 0 0 0 0 11 7 2 0 4 0 3 0 1 8 39 21 126 44 7
50 55 64 67 75 73 72 75 65 66 38 49 1 5 2 44 11 0 0 0 0 0 0 0 0 0 0 0 0 0 0 0 0 0 0 3 11 3 1 0 21 54 95 86 49 4 0
68 65 68 67 64 74 82 84 85 75 61 32 6 2 17 67 9 5 0 0 1 0 0 0 0 0 0 0 0 0 0 0 0 0 0 0 0 4 52 36 24 21 34 24 6 9 0
38 56 78 80 88 105 89 116 131 106 75 22 32 3 35 19 0 0 0 0 0 0 0 0 1 0 0 0 0 0 0 0 0 0 0 0 7 11 6 5 1 46 31 28 9 0 11
66 85 86 94 99 94 77 116 191 203 110 31 35 19 27 19 0 0 1 0 0 0 0 0 0 0 0 0 0 0 0 0 0 0 0 19 27 22 0 8 6 42 21 35 2 21 0
71 83 91 98 100 118 114 203 82 233 75 58 31 40 27 56 4 2 0 0 0 0 0 2 0 0 9 0 9 0 0 0 0 0 4 11 2 2 14 1 28 12 4 0 0 0 1
60 88 101 106 117 147 234 97 24 77 100 71 42 43 27 43 13 1 0 1 0 0 0 2 0 0 0 1 4 0 0 0 0 2 7 1 8 1 20 4 0 0 2 15 0 0 0
102 94 96 107 136 185 239 72 96 94 119 90 56 36 10 0 34 0 0 3 0 0 0 0 0 0 0 0 1 0 0 0 0 0 0 0 0 1 0 6 6 5 0 0 0 0 2
103 100 99 150 179 277 43 131 104 133 177 112 55 1 11 12 8 0 0 0 0 0 0 0 0 0 1 14 0 0 0 0 0 0 0 0 5 12 0 4 0 0 0 0 0 0 0
105 131 141 163 240 242 36 83 91 114 150 95 24 8 1 24 0 0 5 1 0 0 0 0 0 0 0 0 0 0 0 0 0 0 0 0 0 3 5 1 0 0 0 0 0 0 0
126 141 174 198 288 169 107 48 66 95 86 23 10 20 48 13 12 3 1 0 0 0 0 0 0 0 0 0 0 0 0 0 0 0 0 0 0 6 0 0 0 0 0 0 0 0 0
83 153 190 218 206 126 70 43 47 59 42 0 17 49 48 31 2 6 3 0 0 0 0 0 0 0 0 0 0 0 0 0 0 0 0 0 0 2 0 0 0 0 0 0 0 0 0
245 231 206 115 141 65 26 38 67 56 32 10 13 0 41 28 3 19 5 0 0 0 0 0 0 0 0 0 0 0 0 0 0 0 0 0 0 0 0 0 0 0 0 0 0 0 0
175 201 172 132 61 83 58 41 55 61 54 16 28 0 15 18 4 0 7 1 0 0 0 0 0 0 0 0 0 0 0 0 0 0 0 0 0 0 0 0 0 0 0 0 0 0 0
96 92 46 42 46 30 17 56 55 64 21 40 9 0 3 2 12 3 0 0 0 4 0 0 0 0 0 0 0 0 0 0 0 0 0 0 0 0 0 0 0 0 0 0 0 0 0
47 50 34 32 24 20 38 24 28 27 57 18 0 2 0 0 3 3 6 0 1 0 0 0 0 0 0 0 0 0 0 0 0 0 0 0 0 0 0 0 0 0 0 0 0 0 0
25 24 31 41 36 7 5 8 43 16 0 0 0 0 0 9 7 6 0 0 4 1 0 0 0 0 0 0 0 0 0 0 0 0 0 0 0 0 0 0 0 0 0 0 0 0 0
22 21 23 24 22 10 8 30 75 11 0 0 0 0 0 6 4 0 0 0 0 0 0 0 0 0 0 0 0 0 0 0 0 0 0 0 0 0 0 0 0 0 0 0 0 0 0
10 8 11 16 21 22 14 31 12 0 0 0 0 0 0 0 0 0 0 0 0 0 0 0 0 0 0 0 0 0 0 0 0 0 0 0 0 0 0 0 0 0 0 0 0 0 0
6 7 9 12 17 9 23 6 1 0 0 0 0 0 0 0 0 0 0 0 0 0 0 0 0 0 0 0 0 0 0 0 0 0 0 0 0 0 0 0 0 0 0 0 0 0 0
9 9 13 11 52 6 27 1 0 0 0 0 0 0 0 0 0 0 0 0 0 0 0 0 0 0 0 0 0 0 0 0 0 0 1 0 0 0 0 0 0 0 0 0 0 0 0
8 10 15 25 5 6 2 0 0 0 0 0 0 0 0 0 0 0 0 0 0 0 0 0 0 0 0 0 0 0 0 0 0 0 0 0 0 0 0 0 0 0 0 0 0 0 0
3 6 9 26 16 3 0 0 0 0 0 0 0 0 0 0 0 0 0 0 0 0 0 0 0 0 0 0 0 0 0 0 0 0 0 0 0 0 0 0 0 0 0 0 0 0 0

GFSGBSN_con_sbcape_096.txt.gz
CAPE
44 31 44 50 54 47 33 36 26 23 27 26 16 17 12 13 25 30 8 8 4 3 2 0 1 7 0 0 0 0 0 0 0 0 1 6 27 18 34 17 24 11 0 1 1 0 26
34 24 49 54 59 68 56 35 30 30 25 24 24 19 12 8 13 46 7 10 13 0 0 0 3 1 1 0 0 0 0 0 0 0 1 10 15 12 23 40 44 12 16 5 2 3 65
33 39 48 66 77 65 68 64 57 42 29 32 21 16 11 3 9 61 13 17 25 0 0 7 12 16 0 0 0 0 0 0 0 5 16 21 22 13 18 22 26 26 23 30 63 15 100
41 53 56 58 60 73 79 72 63 68 59 33 21 11 10 2 6 86 12 17 0 0 5 12 15 2 4 0 0 0 0 0 28 7 0 16 4 9 23 20 18 0 24 31 25 62 103
40 57 72 81 78 70 78 84 70 61 54 46 16 6 6 0 7 14 11 6 1 4 21 26 8 0 0 0 0 0 0 0 28 20 24 10 16 28 30 23 4 4 127 38 93 97 159
48 74 74 77 74 96 92 92 100 86 72 63 4 2 3 0 11 16 0 19 8 18 17 22 2 1 0 0 0 0 0 0 9 6 31 34 35 41 20 13 1 48 114 93 97 143 121
54 56 65 77 88 93 106 107 104 108 94 74 16 0 1 5 36 4 6 0 0 4 4 0 0 0 0 0 0 0 0 4 21 44 26 8 23 3 14 4 0 2 44 85 104 114 90
47 50 72 71 77 88 108 100 104 96 91 85 31 2 1 10 121 5 0 0 0 0 0 0 0 0 0 0 0 0 0 6 2 18 17 16 8 16 8 10 7 14 48 92 118 47 16
39 43 52 74 89 109 119 120 102 98 118 111 35 12 0 97 35 16 1 3 0 0 0 0 0 0 0 0 0 0 0 0 0 5 12 14 4 1 21 13 33 100 19 68 29 15 4
25 36 47 78 104 116 124 124 121 133 140 190 60 19 3 90 9 3 7 1 0 0 3 0 6 2 0 0 0 0 0 0 0 2 0 5 4 19 18 9 80 45 15 62 13 28 52
19 22 48 86 134 128 115 146 173 157 76 84 102 58 30 22 71 11 0 0 5 0 4 1 0 0 2 0 0 0 0 0 0 1 10 12 30 36 6 18 27 48 73 43 16 16 36
20 52 121 139 152 131 144 201 178 3 13 49 56 52 40 107 69 15 0 0 0 13 3 15 3 6 15 2 18 0 0 0 0 3 8 13 1 10 33 11 20 89 57 70 73 33 29
45 61 129 162 161 192 254 316 114 61 1 47 67 70 58 39 47 0 0 9 25 9 0 14 3 7 6 26 19 0 0 0 9 105 45 2 7 1 18 8 24 9 62 43 36 44 13
30 107 137 227 189 287 197 106 50 117 59 64 63 65 64 36 79 4 2 13 9 0 0 0 2 10 8 12 3 1 0 0 0 3 7 4 12 3 0 19 7 2 8 21 3 12 11
67 97 224 96 203 254 209 72 75 46 82 47 59 154 142 102 52 32 7 42 12 0 0 8 17 10 21 10 11 6 0 0 0 3 25 8 32 6 7 26 7 11 0 0 1 5 10
75 184 292 238 117 207 47 0 76 42 95 41 144 59 5 99 56 11 31 18 6 0 0 0 1 9 8 5 6 1 0 0 11 0 0 6 26 6 13 6 1 1 0 0 0 1 8
70 155 186 247 134 141 62 83 81 101 75 0 40 33 11 77 38 6 33 17 1 0 0 0 0 1 0 4 1 0 0 0 0 4 0 0 1 12 0 4 3 0 0 0 0 0 1
50 79 75 85 71 84 70 88 70 73 2 0 16 34 30 29 3 7 14 5 2 0 0 9 0 0 0 0 0 0 0 0 0 0 0 0 0 7 0 0 0 0 0 0 0 0 0
44 71 53 52 58 32 45 29 47 48 3 9 15 21 48 28 33 55 8 5 1 0 6 30 18 0 0 0 2 2 0 0 0 0 0 0 0 11 5 0 0 0 0 0 0 0 0
35 38 64 67 72 31 32 4 5 32 5 7 5 8 19 19 5 1 24 15 2 1 1 3 0 0 0 0 0 0 0 0 0 0 0 0 0 0 0 0 0 0 0 0 0 4 0
30 28 32 24 57 39 36 31 30 5 10 4 8 6 5 24 18 7 9 12 0 7 0 0 1 0 0 0 0 0 0 0 0 0 0 0 0 0 0 0 0 0 0 0 0 0 0
24 20 17 23 32 30 22 15 31 47 16 25 4 19 7 20 4 8 11 13 0 2 9 0 7 1 0 0 0 0 0 0 0 0 0 0 0 0 0 0 0 0 0 0 0 0 0
22 15 17 18 16 19 44 66 22 17 15 15 0 0 0 9 7 14 1 0 0 1 0 0 0 1 0 0 0 0 0 0 0 0 0 0 0 0 0 0 0 0 0 0 0 0 0
13 6 7 9 13 10 17 52 47 17 6 0 0 0 0 10 4 3 0 0 0 0 1 0 0 4 0 0 0 0 0 0 0 0 0 0 0 0 0 0 0 0 0 0 0 0 0
5 6 5 5 6 9 7 12 5 0 0 0 0 0 0 2 5 2 0 0 0 0 0 0 0 0 0 0 0 0 0 0 0 0 0 0 0 0 0 0 0 0 0 0 0 0 0
7 4 2 7 18 6 3 2 0 0 0 0 0 0 0 0 0 0 4 0 0 0 0 1 0 0 0 0 0 0 0 0 0 0 0 0 0 0 0 0 0 0 0 0 0 0 0
4 2 2 7 13 0 1 1 0 0 0 0 0 0 0 0 0 0 7 2 0 0 1 0 0 0 0 0 0 0 0 0 0 0 6 1 1 0 0 0 0 0 0 0 0 0 0
1 1 2 8 3 2 3 0 0 0 0 0 0 0 0 0 0 0 0 0 0 0 1 0 0 1 0 4 0 0 0 0 0 0 0 1 1 1 0 0 0 0 0 0 0 0 0
0 0 2 6 0 0 0 0 0 0 0 0 0 0 0 0 0 0 0 0 0 0 0 0 0 0 0 0 0 0 0 0 0 0 0 0 0 0 0 0 0 0 0 0 0 0 0

GFSGBSN_con_sbcape_099.txt.gz
CAPE
36 36 41 48 54 62 63 48 27 12 5 27 41 31 26 25 11 11 31 57 5 7 0 0 0 7 0 0 0 0 0 0 0 0 4 8 12 25 36 15 8 21 4 5 1 0 2
37 48 56 58 59 51 65 67 65 56 45 23 1 22 17 13 10 5 9 59 8 17 0 0 15 10 10 1 0 0 0 0 0 0 11 3 11 6 21 36 29 23 28 18 9 4 2
31 34 46 50 46 53 67 69 79 77 73 55 18 6 9 9 8 4 12 18 13 6 0 13 25 14 2 0 0 0 0 0 0 2 20 11 16 11 27 19 4 28 27 26 7 10 14
40 40 40 50 71 63 73 76 101 86 87 75 40 11 4 4 3 1 80 9 18 0 5 30 19 22 1 0 0 0 0 0 0 3 8 9 28 29 16 15 21 21 16 7 0 10 18
35 42 43 30 50 83 99 115 107 113 110 85 73 46 8 0 2 13 25 4 0 1 26 38 27 14 7 0 0 0 0 0 17 22 19 6 30 19 18 35 29 20 13 2 1 21 49
38 33 32 35 35 89 101 124 137 144 125 114 97 98 25 0 0 36 7 29 51 34 36 32 23 7 0 0 0 0 0 0 6 38 26 21 30 37 41 24 9 10 21 27 126 36 32
38 29 21 43 58 72 118 123 131 160 164 162 127 107 50 9 0 37 17 10 19 2 10 0 0 3 0 0 0 0 0 0 9 21 32 23 26 22 8 13 3 15 9 3 21 1 27
67 41 54 39 65 87 107 136 175 182 203 180 190 141 37 23 276 211 6 2 0 0 1 0 3 21 1 0 0 0 0 4 12 10 34 31 10 5 9 23 12 16 10 1 102 89 14
73 63 70 73 100 112 156 205 245 269 282 217 179 101 35 39 103 13 21 0 0 0 2 4 9 12 5 0 1 0 0 3 4 11 17 25 17 21 13 5 14 10 10 33 61 47 64
130 84 28 22 90 141 234 263 249 266 301 234 96 129 25 166 96 46 24 2 0 1 29 9 14 12 0 1 0 0 0 3 0 6 18 23 18 24 25 11 10 61 29 8 4 39 56
96 53 7 35 102 198 256 217 242 140 118 97 22 64 33 17 165 111 30 27 22 5 25 8 15 1 10 6 0 0 0 6 4 13 16 35 26 28 41 59 27 42 26 9 0 1 11
58 23 19 79 144 213 190 272 90 69 65 10 49 70 48 31 87 124 1 6 3 30 15 32 11 12 19 8 1 1 0 0 5 10 12 8 17 15 37 19 14 0 35 28 26 30 77
45 13 39 128 192 147 52 276 86 0 57 25 18 50 22 22 64 115 33 2 45 36 0 19 13 18 13 16 12 2 0 13 8 168 15 27 21 7 18 4 7 40 7 52 56 27 30
1 14 67 95 79 140 100 21 63 23 39 52 80 35 7 8 77 23 8 13 46 6 9 5 9 8 18 17 19 6 5 17 0 7 40 31 48 2 8 12 11 13 10 66 23 32 19
6 42 69 67 63 68 36 23 64 70 39 79 43 137 79 42 46 7 21 53 70 15 0 12 7 15 11 7 15 8 2 20 20 21 12 32 36 4 10 1 2 27 22 0 11 10 1
23 39 41 67 56 36 65 72 77 74 62 42 231 141 57 49 71 39 24 13 45 0 4 1 11 17 7 5 5 3 11 5 26 0 3 39 95 3 13 19 1 5 0 4 11 19 2
45 34 47 72 64 37 43 42 65 62 3 0 117 35 46 91 35 41 35 50 7 1 0 8 17 17 10 0 4 15 6 0 3 15 3 9 7 22 6 13 9 6 2 0 0 0 3
52 34 50 61 48 49 58 17 57 27 0 2 36 24 15 47 38 47 84 23 2 4 0 8 15 19 17 10 16 18 14 10 1 4 3 1 8 20 0 0 0 0 0 0 0 0 0
45 29 31 16 34 36 32 32 43 0 0 6 38 11 31 40 52 50 9 9 4 6 25 29 27 23 3 26 13 12 19 0 0 1 2 0 2 15 6 0 0 1 0 0 0 0 0
44 15 20 20 23 33 14 0 5 2 0 1 13 23 4 7 7 9 33 29 5 0 5 8 17 1 27 29 1 9 13 0 0 0 0 0 1 1 5 2 0 0 0 0 0 1 0
32 13 13 18 8 19 38 23 0 0 0 7 11 24 10 25 16 16 14 9 6 4 12 14 15 13 24 11 2 3 0 0 0 0 0 0 1 0 0 0 0 0 0 0 0 0 0
16 7 8 11 22 28 12 44 20 0 0 11 1 8 9 16 9 14 3 5 4 5 13 23 16 12 19 9 3 0 0 0 0 0 0 0 5 0 0 0 0 0 0 0 0 0 0
11 4 7 10 16 18 15 1 16 13 1 9 7 0 4 13 8 9 4 8 3 4 1 0 6 18 11 0 0 0 0 0 0 0 0 0 0 0 0 0 0 0 0 0 0 0 0
5 2 5 7 12 13 12 2 6 6 0 1 1 3 8 9 10 2 0 0 1 0 5 0 0 19 0 0 0 0 0 0 0 0 0 0 0 0 0 0 0 0 0 0 0 0 0
1 3 4 7 8 0 8 1 5 0 0 0 0 0 3 1 0 1 0 0 0 0 0 0 0 0 0 0 6 0 0 0 0 0 0 0 0 0 1 0 0 0 0 0 0 0 0
1 4 2 11 3 0 1 1 0 0 0 0 0 0 0 0 0 0 0 0 0 0 2 0 0 0 0 0 2 4 1 0 0 0 0 0 0 0 0 0 0 0 0 0 0 0 0
0 0 2 11 0 0 8 4 0 0 0 0 0 0 0 0 0 0 0 0 0 0 12 0 0 0 0 8 5 1 0 0 0 1 2 4 0 1 0 0 0 0 0 0 0 0 0
0 0 0 8 1 0 0 0 0 0 0 0 0 0 0 0 0 0 0 0 0 0 12 0 3 0 9 19 5 2 0 0 0 0 0 0 0 0 0 0 0 0 0 0 0 0 0
0 0 0 9 0 0 0 0 0 0 0 0 0 0 0 0 0 0 0 0 0 0 0 0 1 0 6 14 0 0 0 0 0 0 0 0 0 0 0 0 0 0 0 0 0 0 0

GFSGBSN_con_sbcape_102.txt.gz
CAPE
42 38 36 29 42 46 46 47 54 65 59 64 59 53 17 21 20 13 12 12 36 32 10 0 0 0 0 0 0 0 0 0 0 0 0 2 5 5 2 3 5 1 0 0 0 0 0
50 37 37 34 37 46 63 55 52 51 75 73 69 63 45 12 17 8 6 10 48 30 6 0 0 20 0 0 0 0 0 0 0 0 1 6 3 5 9 2 7 0 1 0 3 7 0
36 41 37 27 31 24 40 65 72 61 63 83 95 97 54 28 13 4 1 10 135 19 0 2 16 11 11 0 0 0 0 0 0 0 4 9 8 6 9 1 4 9 3 0 0 1 0
34 28 36 38 28 24 14 37 71 93 97 88 86 104 92 55 12 1 2 131 48 4 0 35 31 22 4 0 0 0 0 0 0 0 1 3 4 11 13 0 0 0 19 8 0 0 0
64 68 48 29 29 21 19 71 76 83 113 88 49 91 112 78 22 0 120 119 23 1 0 56 1 23 0 0 0 0 0 0 1 13 11 4 8 6 6 11 1 0 0 1 0 0 0
98 102 89 75 80 30 9 80 112 156 142 98 61 58 120 99 21 3 68 50 49 50 36 31 10 17 0 0 0 0 0 0 3 23 26 8 2 10 22 28 0 1 5 7 0 1 1
147 160 123 79 56 65 25 96 101 104 250 292 240 130 140 108 33 161 61 16 7 10 2 0 0 1 1 0 0 0 0 0 2 4 9 16 20 1 0 1 6 0 13 6 0 3 3
158 167 24 21 52 44 94 141 190 166 63 183 229 178 112 77 231 299 41 16 12 0 3 0 1 4 3 0 0 0 0 0 7 13 19 7 0 0 4 3 16 27 16 0 0 35 0
169 45 5 4 36 52 184 210 248 217 116 173 211 162 85 63 165 42 28 17 0 0 12 7 0 10 1 0 2 0 0 1 2 14 11 26 0 0 4 5 28 7 8 0 18 0 11
60 41 12 38 47 80 83 171 279 161 49 25 5 38 53 49 12 101 19 4 0 11 4 3 2 3 2 9 0 1 0 7 2 0 7 3 0 0 21 31 33 4 13 20 16 10 55
52 13 43 47 18 58 90 70 74 202 30 8 3 40 87 24 118 91 53 1 12 18 20 17 9 8 11 0 0 0 0 4 0 8 1 0 21 2 4 19 14 0 6 6 19 11 2
3 29 47 23 26 42 64 108 7 1 2 10 13 8 25 11 45 84 22 6 4 22 7 15 3 25 4 4 0 0 0 0 0 2 3 0 0 7 24 21 9 3 0 0 0 6 2
2 34 32 27 71 75 35 93 42 9 0 0 28 18 14 35 84 79 20 0 23 13 5 2 8 1 9 4 3 0 0 0 2 5 0 5 4 17 2 1 0 7 25 2 4 4 2
4 31 44 73 57 73 95 141 81 34 63 45 17 8 1 28 69 24 2 6 10 8 38 10 1 12 20 13 10 0 1 0 0 4 8 8 6 0 0 9 8 20 7 4 4 1 26
12 23 50 65 32 28 75 105 56 34 15 17 5 63 53 54 65 18 6 7 17 27 0 4 16 8 5 1 0 0 0 2 22 7 53 23 12 8 1 8 5 7 4 0 2 0 1
14 19 39 47 29 20 6 14 13 4 5 0 136 63 39 55 22 1 2 43 18 5 2 0 19 5 0 0 0 0 0 10 16 4 0 15 14 2 2 2 0 1 0 0 0 3 10
16 16 23 26 29 14 16 3 0 0 0 0 38 7 47 56 8 0 8 27 9 0 0 6 27 6 0 0 0 3 11 15 2 11 2 6 3 3 4 9 0 0 0 0 0 0 0
21 24 18 21 26 15 0 0 0 0 0 0 17 10 42 35 0 1 33 16 1 1 0 0 31 25 3 0 4 12 19 12 1 6 4 2 5 1 1 0 0 0 0 0 0 0 0
17 20 15 16 22 26 2 0 0 0 0 2 16 6 19 22 4 4 8 1 1 0 19 10 8 0 0 11 0 10 6 0 0 0 0 0 0 3 1 0 0 0 0 0 0 0 0
22 17 8 16 17 38 31 1 0 0 0 0 9 10 5 6 1 5 0 0 0 0 9 2 0 0 11 6 0 0 0 0 0 0 0 0 0 0 0 0 0 0 0 0 0 0 0
16 16 10 10 14 40 45 32 1 0 0 0 3 4 1 9 25 0 0 0 1 1 6 0 0 3 12 3 0 1 0 0 0 0 0 0 0 0 0 0 0 0 0 0 0 0 0
7 10 8 12 30 37 30 39 19 0 0 0 4 3 7 3 0 1 0 0 1 1 3 1 17 4 1 0 3 0 0 0 0 0 0 0 0 0 0 0 0 0 0 0 0 0 0
3 5 5 10 23 31 14 22 33 0 0 0 0 0 2 6 0 1 0 1 0 0 0 0 0 8 0 0 0 0 0 0 0 0 0 0 0 0 0 0 0 0 0 0 0 0 0
2 3 3 7 22 8 0 4 17 0 0 2 0 2 0 3 0 0 0 0 0 0 0 0 0 0 0 0 0 0 0 0 0 0 0 0 0 0 0 0 0 0 0 0 0 0 0
1 2 2 10 21 0 1 5 1 0 0 0 0 0 3 0 0 0 0 0 0 0 0 0 0 0 0 0 0 0 0 0 0 0 0 0 0 0 0 0 0 0 0 0 0 0 0
1 1 1 14 17 0 0 0 0 0 0 0 0 0 0 0 0 0 0 0 0 0 0 0 0 0 0 0 0 0 0 0 0 0 0 0 0 0 0 0 0 0 0 0 0 0 0
1 1 0 12 19 0 0 0 0 0 0 0 0 0 0 0 0 0 0 0 0 0 0 0 0 0 0 0 0 0 0 0 0 0 0 0 0 0 0 0 0 0 0 0 0 0 0
1 0 0 4 9 0 0 0 0 0 0 0 0 0 0 0 0 0 0 0 0 0 0 0 0 0 0 0 0 0 0 0 0 0 0 0 0 0 0 0 0 0 0 0 0 0 0
1 0 0 0 10 2 0 0 0 0 0 0 0 0 0 0 0 0 0 0 0 0 0 0 0 0 0 0 0 0 0 0 0 0 0 0 0 0 0 0 0 0 0 0 0 0 0

GFSGBSN_con_sbcape_105.txt.gz
CAPE
35 38 52 65 74 63 61 52 76 98 114 108 107 115 92 86 55 21 17 10 14 37 101 13 0 3 2 0 0 0 0 15 0 0 0 0 0 2 0 0 0 0 0 0 0 0 0
66 68 63 62 48 50 49 48 21 58 102 139 131 117 108 81 70 37 12 4 7 34 147 29 17 16 0 0 0 0 0 0 0 0 0 0 0 6 0 0 0 0 0 0 0 0 0
94 77 86 93 81 58 47 32 32 59 80 114 152 147 110 53 72 52 21 9 12 131 157 16 67 0 0 0 0 0 0 0 0 0 0 15 10 9 1 0 1 4 0 0 0 0 0
99 131 147 164 171 116 82 46 31 28 155 145 138 120 92 65 82 39 22 158 207 169 59 49 104 3 0 0 0 0 0 0 0 0 4 2 0 13 2 1 0 0 0 0 0 0 0
147 175 234 309 37 15 38 80 34 99 182 172 137 186 80 51 85 23 20 85 209 93 9 56 21 9 1 0 0 0 0 0 0 2 7 12 1 7 1 0 0 0 0 0 0 0 0
160 133 6 35 13 24 26 49 89 172 263 213 0 66 57 34 72 34 40 68 109 104 33 14 4 0 0 0 0 0 0 0 17 45 37 11 2 0 10 1 0 0 0 0 0 0 7
32 66 14 12 21 58 69 51 64 166 248 162 104 158 68 72 68 73 61 16 0 0 12 3 0 2 0 0 0 0 0 0 2 32 18 37 0 0 0 0 0 0 0 0 0 0 13
64 44 17 40 59 64 54 84 136 136 229 105 125 164 71 77 80 329 4 14 6 0 3 2 1 9 4 0 0 0 0 0 4 2 23 12 3 0 0 0 0 0 12 0 0 0 5
70 6 58 49 86 100 101 116 170 145 147 34 26 30 24 14 22 35 2 14 9 0 9 20 8 10 3 2 4 0 0 0 11 3 0 1 0 0 0 1 10 5 10 0 0 0 0
2 31 71 62 86 65 114 27 15 41 104 19 1 25 13 6 0 0 0 6 4 4 0 7 8 7 6 11 10 0 0 1 0 0 0 0 0 0 1 4 15 4 0 5 18 4 3
2 50 46 58 81 90 163 87 18 40 17 16 1 22 0 3 2 27 20 0 7 14 0 20 9 13 20 11 0 0 0 0 0 0 1 0 16 1 0 0 6 0 0 0 0 47 2
8 44 57 34 41 122 150 95 23 31 50 38 9 31 25 0 0 16 1 5 0 1 0 8 4 11 9 6 0 1 0 0 0 0 0 0 0 0 0 1 8 3 3 0 0 10 5
12 40 60 38 16 64 97 60 31 47 21 36 30 28 5 23 11 1 0 0 0 0 22 0 9 3 6 0 0 0 0 0 0 0 0 0 0 1 2 0 0 4 10 0 0 1 3
12 37 45 31 14 37 40 41 13 1 3 18 15 17 0 6 0 0 0 0 0 17 0 2 0 6 18 3 13 0 0 0 0 0 0 0 0 0 0 6 9 3 18 4 0 2 4
13 33 33 20 16 28 19 29 4 0 0 0 0 0 0 0 0 0 0 1 10 27 2 4 8 0 0 0 0 0 0 0 1 0 2 2 2 5 2 4 5 7 13 5 3 10 1
10 35 20 33 22 24 25 21 18 0 0 0 0 0 0 2 0 0 0 26 8 2 0 3 9 0 0 0 0 0 0 3 18 8 0 5 2 0 0 0 0 1 0 1 3 0 3
11 23 16 18 31 41 28 0 13 7 0 0 0 0 0 0 0 0 5 11 3 0 0 5 0 0 0 0 0 0 1 1 4 9 1 4 4 1 1 0 0 0 0 0 0 0 0
10 13 19 15 14 32 41 27 0 0 0 0 0 0 0 0 0 0 1 1 0 0 0 0 2 0 0 0 0 3 14 2 1 1 10 2 1 0 0 0 0 0 0 0 0 0 0
9 8 10 10 33 49 42 59 4 0 0 0 0 1 0 0 0 0 0 0 0 0 0 0 0 0 0 0 0 5 0 0 0 3 0 0 0 0 0 0 0 0 0 0 0 0 0
4 6 5 6 6 33 49 39 12 0 0 0 0 0 0 0 0 0 0 0 0 0 0 0 0 0 0 0 0 0 0 0 0 0 0 0 0 0 0 0 0 0 0 0 0 0 0
3 4 6 6 23 31 37 32 10 0 0 0 0 0 0 0 0 0 0 0 0 0 0 0 0 0 0 0 0 0 0 0 0 0 0 0 0 0 0 0 0 0 0 0 0 0 0
2 2 4 11 17 31 27 4 4 0 0 0 0 0 0 0 0 0 0 0 0 0 0 0 0 0 0 0 0 0 0 0 0 0 0 0 0 0 0 0 0 0 0 0 0 0 0
1 2 3 15 13 9 0 0 0 0 0 0 0 0 0 0 0 0 0 0 0 0 0 0 0 0 0 0 0 0 0 0 0 0 0 0 0 0 0 0 0 0 0 0 0 0 0
0 1 3 13 26 0 2 6 0 0 0 0 0 0 0 0 0 0 0 0 0 0 0 0 0 0 0 0 0 0 0 0 0 0 0 0 0 0 0 0 0 0 0 0 0 0 0
0 1 1 6 25 0 0 1 0 0 0 0 0 0 0 0 0 0 0 0 0 0 0 0 0 0 0 0 0 0 0 0 0 0 0 0 0 0 0 0 0 0 0 0 0 0 0
0 0 0 4 12 1 0 0 0 0 0 0 0 0 0 0 0 0 0 0 0 0 0 0 0 0 0 0 0 0 0 0 0 0 0 0 0 0 0 0 0 0 0 0 0 0 0
0 0 0 2 6 0 0 0 0 0 0 0 0 0 0 0 0 0 0 0 0 0 0 0 0 0 0 0 0 0 0 0 0 0 0 0 0 0 0 0 0 0 0 0 0 0 0
0 0 0 0 1 4 0 0 0 0 0 0 0 0 0 0 0 0 0 0 0 0 0 0 0 0 0 0 0 0 0 0 0 0 0 0 0 0 0 0 0 0 0 0 0 0 0
0 0 0 0 1 0 0 0 0 0 0 0 0 0 0 0 0 0 0 0 0 0 0 0 0 0 0 0 0 0 0 0 0 0 0 0 0 0 0 0 0 0 0 0 0 0 0

GFSGBSN_con_sbcape_108.txt.gz
CAPE
95 123 135 157 177 187 144 91 67 66 98 120 157 199 177 163 163 105 50 24 1 0 3 89 61 16 2 0 0 0 4 10 0 0 0 0 0 0 0 0 0 0 0 0 0 0 0
121 145 169 222 256 275 223 172 120 90 49 34 105 173 170 164 133 137 46 23 7 3 30 158 14 55 4 0 0 0 0 0 0 0 0 0 0 0 0 0 0 0 0 0 0 0 0
106 143 143 63 45 27 12 133 161 42 171 79 147 141 154 139 112 113 35 15 14 59 32 119 64 36 21 0 0 0 0 0 0 0 0 0 4 0 0 0 0 0 0 0 0 0 0
145 57 111 103 123 117 106 80 92 99 91 112 97 103 99 208 103 74 8 1 122 160 82 94 104 0 30 7 0 0 0 0 0 0 0 4 0 0 9 0 0 0 0 0 0 0 0
51 141 90 25 69 107 138 145 122 106 132 174 182 112 76 18 53 64 6 1 223 261 211 125 4 6 8 6 1 0 0 0 0 2 7 22 0 2 1 0 0 0 0 0 0 0 0
135 103 24 107 125 205 228 223 249 185 175 232 65 45 62 34 29 59 67 4 115 121 35 1 8 16 2 0 0 0 0 0 4 20 23 15 8 1 2 1 0 0 0 0 0 0 0
111 15 104 92 144 200 214 147 326 227 186 150 110 97 32 52 78 57 67 0 0 4 9 11 0 0 0 0 0 0 0 0 28 29 0 14 0 0 0 0 0 0 0 0 0 0 0
9 44 74 107 159 216 211 151 108 126 150 54 48 62 99 59 225 265 4 45 0 0 4 2 6 0 2 2 0 0 0 0 6 0 7 3 6 0 0 0 0 0 2 1 0 0 0
8 52 63 110 145 207 202 93 113 37 112 40 17 3 24 32 44 14 2 9 0 4 7 13 9 21 10 6 1 0 0 0 1 0 0 0 0 0 0 0 5 11 1 0 0 0 0
18 38 79 91 105 169 132 59 135 84 20 15 20 7 12 18 1 0 1 17 0 0 0 19 14 11 6 0 0 0 0 0 1 0 0 0 0 0 0 0 5 11 0 1 15 23 3
31 34 42 70 48 111 107 57 84 85 35 45 36 11 22 0 0 21 3 0 0 0 0 14 12 4 4 8 0 0 0 0 0 0 2 0 0 11 0 0 9 4 0 0 0 1 1
35 25 37 44 27 26 62 60 29 39 23 34 33 2 3 0 0 0 0 0 0 0 0 6 2 20 5 8 0 1 0 0 0 0 0 0 0 0 0 1 9 3 2 0 0 13 5
29 16 37 28 22 15 39 38 28 14 4 2 2 1 0 0 0 0 0 0 0 0 15 8 10 0 0 0 0 0 0 0 0 0 0 0 0 0 0 1 0 2 9 0 0 1 0
25 15 14 24 31 7 11 30 41 22 1 12 3 0 0 0 0 0 0 0 0 4 1 0 0 0 0 0 0 0 0 0 0 0 0 0 0 0 0 0 6 0 7 0 0 0 0
23 29 10 8 18 42 5 0 7 9 10 10 0 0 0 0 0 0 0 0 25 7 0 0 0 0 0 0 0 0 0 0 0 0 0 3 0 4 0 5 3 3 14 7 5 4 1
13 17 10 4 3 15 38 4 0 0 4 8 0 0 0 0 0 0 0 8 6 1 0 0 0 0 0 0 0 0 0 3 19 4 1 1 3 0 1 0 0 0 4 18 6 0 0
5 10 12 6 0 3 24 33 2 0 0 0 0 0 0 0 0 0 1 4 1 0 0 0 0 0 0 0 0 0 3 1 22 7 1 1 5 0 0 0 0 1 7 4 0 0 0
1 6 8 5 1 0 2 16 4 0 0 0 0 0 0 0 0 0 1 0 0 0 0 0 0 0 0 0 0 11 18 2 1 4 0 0 0 0 0 0 0 0 0 0 0 0 0
0 5 5 13 11 0 0 0 4 0 0 0 0 0 0 0 0 0 0 0 0 0 0 0 0 0 0 0 0 0 0 0 0 0 0 0 0 0 0 0 0 0 0 0 0 0 0
0 4 5 5 32 22 8 0 0 0 0 0 0 0 0 0 0 0 0 0 0 0 0 0 0 0 0 0 0 0 0 0 0 0 0 0 0 0 0 0 0 0 0 0 0 0 0
0 3 5 4 18 32 21 0 0 0 0 0 0 0 0 0 0 0 0 0 0 0 0 0 0 0 0 0 0 0 0 0 0 0 0 0 0 0 0 0 0 0 0 0 0 0 0
0 1 4 5 9 33 22 0 0 0 0 0 0 0 0 0 0 0 0 0 0 0 0 0 0 0 0 0 0 0 0 0 0 0 0 0 0 0 0 0 0 0 0 0 0 0 0
0 0 3 2 1 7 11 1 0 0 0 0 0 0 0 0 0 0 0 0 0 0 0 0 0 0 0 0 0 0 0 0 0 0 0 0 0 0 0 0 0 0 0 0 0 0 0
0 0 0 0 2 0 14 9 0 0 0 0 0 0 0 0 0 0 0 0 0 0 0 0 0 0 0 0 0 0 0 0 0 0 0 0 0 0 0 0 0 0 0 0 0 0 0
0 0 0 2 0 3 7 0 0 0 0 0 0 0 0 0 0 0 0 0 0 0 0 0 0 0 0 0 0 0 0 0 0 0 0 0 0 0 0 0 0 0 0 0 0 0 0
0 0 0 1 0 0 1 0 0 0 0 0 0 0 0 0 0 0 0 0 0 0 0 0 0 0 0 0 0 0 0 0 0 0 0 0 0 0 0 0 0 0 0 0 0 0 0
0 0 0 0 0 0 0 0 0 0 0 0 0 0 0 0 0 0 0 0 0 0 0 0 0 0 0 0 0 0 0 0 0 0 0 0 0 0 0 0 0 0 0 0 0 0 0
0 0 0 0 0 0 0 0 0 0 0 0 0 0 0 0 0 0 0 0 0 0 0 0 0 0 0 0 0 0 0 0 0 0 0 0 0 0 0 0 0 0 0 0 0 0 0
0 0 0 0 0 0 0 0 0 0 0 0 0 0 0 0 0 0 0 0 0 0 0 0 0 0 0 0 0 0 0 0 0 0 0 0 0 0 0 0 0 0 0 0 0 0 0

GFSGBSN_con_sbcape_111.txt.gz
CAPE
136 155 162 158 154 152 133 109 94 177 114 141 130 87 74 130 186 179 139 65 31 0 0 4 65 35 0 0 0 0 42 21 0 0 0 0 0 0 0 0 0 0 0 0 0 0 0
150 105 141 41 30 56 120 190 196 86 144 182 159 121 99 98 172 127 50 57 41 35 8 21 176 67 0 0 0 0 0 0 0 0 0 0 0 0 0 0 0 0 0 0 0 0 0
123 124 23 62 126 173 258 297 278 265 203 158 136 81 69 18 71 108 80 54 23 5 31 54 165 4 0 0 0 1 0 0 0 0 0 0 0 0 0 0 0 0 0 0 0 0 0
101 18 70 86 137 199 254 233 253 295 231 144 118 58 35 28 91 126 34 14 0 105 81 65 52 5 3 0 0 0 0 0 0 0 0 0 0 0 1 0 0 0 0 0 0 0 0
11 47 46 92 136 149 213 231 235 284 234 152 118 39 53 154 22 15 63 1 104 364 142 138 14 14 11 14 1 0 0 0 0 0 1 0 0 0 1 1 0 0 0 0 0 0 0
24 61 53 72 100 121 116 164 162 169 232 156 76 48 49 60 50 69 17 4 44 30 28 16 28 2 6 0 1 1 0 0 0 0 7 4 3 3 0 1 0 0 0 0 0 0 0
48 63 42 30 57 60 47 178 120 134 182 68 119 108 26 54 58 63 0 0 0 0 44 6 2 5 5 1 0 1 0 0 8 1 0 1 0 0 0 0 0 0 0 0 0 0 0
51 51 32 24 45 49 39 92 75 50 61 18 2 39 24 64 206 51 0 0 0 0 3 18 0 0 1 5 5 0 0 0 0 0 1 10 0 0 0 0 0 0 3 0 0 0 0
29 42 28 23 28 27 13 70 53 56 47 8 2 7 1 9 10 3 8 11 16 5 4 5 20 15 12 8 0 0 0 0 0 0 0 0 0 0 0 0 0 0 2 1 0 0 0
17 42 25 26 21 19 5 26 52 66 53 32 14 0 1 1 0 0 1 3 0 0 0 5 8 1 15 6 0 0 0 0 1 0 0 0 0 0 0 0 0 3 0 2 2 20 1
18 39 29 22 11 12 3 2 22 58 60 39 26 37 0 0 0 4 2 0 0 0 0 18 12 0 4 0 0 1 0 0 0 0 0 0 0 7 2 0 0 0 0 0 1 19 0
21 19 33 25 6 4 2 0 0 22 51 69 11 0 0 0 0 2 0 0 0 0 0 4 3 10 3 1 0 0 0 0 0 0 0 0 0 0 0 0 0 1 0 0 0 8 2
14 8 30 22 8 0 0 0 0 0 15 74 18 0 0 0 0 0 0 0 0 0 5 24 4 0 0 0 0 0 0 0 0 0 0 0 0 0 0 0 0 4 21 0 0 1 0
6 9 16 27 11 2 0 0 0 0 0 14 0 0 0 0 0 0 0 0 0 5 3 1 0 0 0 0 0 0 0 0 0 0 0 0 0 0 0 2 5 1 5 1 0 0 0
6 11 9 21 21 3 0 1 0 0 0 0 0 0 0 0 0 0 0 0 8 1 0 0 0 0 0 0 0 0 0 0 0 0 0 2 0 0 0 1 3 2 23 8 6 2 2
3 8 19 17 25 10 2 0 0 0 0 0 0 0 0 0 0 0 0 7 1 0 0 0 0 0 0 0 0 0 0 0 3 2 0 12 1 0 1 0 0 1 9 11 8 0 0
0 5 11 13 18 18 6 1 0 0 0 0 0 0 0 0 0 0 0 1 0 0 0 0 0 0 0 0 0 0 3 0 9 10 8 2 1 0 0 0 0 7 12 19 12 0 0
0 3 5 2 22 23 14 3 0 0 0 0 0 0 0 0 0 0 0 0 0 0 0 0 0 0 0 0 7 8 17 1 0 0 0 0 1 0 0 0 0 0 0 0 0 0 0
0 2 3 3 15 26 21 7 0 0 0 0 0 0 0 0 0 0 0 0 0 0 0 0 0 0 0 0 0 0 0 0 0 0 0 0 0 0 0 0 0 0 0 0 0 0 0
0 1 4 4 13 25 28 12 0 0 0 0 0 0 0 0 0 0 0 0 0 0 0 0 0 0 0 0 0 0 0 0 0 0 0 0 0 0 0 0 0 0 0 0 0 0 0
0 0 2 2 3 19 23 4 0 0 0 0 0 0 0 0 0 0 0 0 0 0 0 0 0 0 0 0 0 0 0 0 0 0 0 0 0 0 0 0 0 0 0 0 0 0 0
0 0 1 3 10 10 2 0 0 0 0 0 0 0 0 0 0 0 0 0 0 0 0 0 0 0 0 0 0 0 0 0 0 0 0 0 0 0 0 0 0 0 0 0 0 0 0
0 0 0 2 8 14 0 0 0 0 0 0 0 0 0 0 0 0 0 0 0 0 0 0 0 0 0 0 0 0 0 0 0 0 0 0 0 0 0 0 0 0 0 0 0 0 0
0 0 0 1 7 2 0 0 0 0 0 0 0 0 0 0 0 0 0 0 0 0 0 0 0 0 0 0 0 0 0 0 0 0 0 0 0 0 0 0 0 0 0 0 0 0 0
0 0 0 0 0 3 4 0 0 0 0 0 0 0 0 0 0 0 0 0 0 0 0 0 0 0 0 0 0 0 0 0 0 0 0 0 0 0 0 0 0 0 0 0 0 0 0
0 0 0 0 0 0 0 0 0 0 0 0 0 0 0 0 0 0 0 0 0 0 0 0 0 0 0 0 0 0 0 0 0 0 0 0 0 0 0 0 0 0 0 0 0 0 0
0 0 0 0 0 0 0 0 0 0 0 0 0 0 0 0 0 0 0 0 0 0 0 0 0 0 0 0 0 0 0 0 0 0 0 0 0 0 0 0 0 0 0 0 0 0 0
0 0 0 0 0 0 0 0 0 0 0 0 0 0 0 0 0 0 0 0 0 0 0 0 0 0 0 0 0 0 0 0 0 0 0 0 0 0 0 0 0 0 0 0 0 0 0
0 0 0 0 0 0 0 0 0 0 0 0 0 0 0 0 0 0 0 0 0 0 0 0 0 0 0 0 0 0 0 0 0 0 0 0 0 0 0 0 0 0 0 0 0 0 0

GFSGBSN_con_sbcape_114.txt.gz
CAPE
70 5 34 81 105 149 226 264 276 282 295 145 125 90 109 129 72 103 145 117 105 43 1 0 9 103 0 0 0 0 77 20 0 0 0 0 0 0 0 0 0 0 0 0 0 0 0
3 25 43 86 84 105 147 226 298 271 274 285 120 115 53 51 4 23 67 77 81 33 10 1 43 1 0 0 0 0 0 0 0 0 0 0 0 0 0 0 0 0 0 0 0 0 0
16 52 72 68 40 37 108 169 259 270 351 211 147 45 2 20 5 28 56 47 30 3 21 27 60 39 8 3 0 0 0 0 0 0 0 0 0 0 0 0 0 0 0 0 0 0 0
35 58 48 43 33 38 149 245 192 252 310 231 74 37 36 15 11 59 82 18 7 0 31 55 111 16 23 5 0 0 0 0 0 0 0 0 0 0 0 0 0 0 0 0 0 0 0
36 48 50 28 38 76 105 131 199 215 228 125 42 18 57 104 27 0 53 59 376 317 130 96 23 7 10 4 8 0 0 0 0 0 0 0 0 0 0 0 0 0 0 0 0 0 0
38 52 29 27 27 54 35 29 131 167 129 170 116 21 27 89 97 125 58 25 138 26 27 24 22 0 15 4 0 0 0 0 0 0 0 0 0 0 0 0 0 0 0 0 0 0 0
32 55 27 19 16 27 38 57 36 50 36 68 47 43 113 159 18 8 0 0 3 14 36 4 0 4 17 0 4 7 0 0 0 0 0 0 0 0 0 0 0 0 0 0 0 0 0
18 46 20 18 10 8 17 29 42 39 30 63 52 38 50 166 45 48 0 0 1 5 16 23 11 10 9 3 3 3 0 0 3 0 0 0 0 0 0 0 0 0 0 0 0 0 0
5 51 29 22 9 4 3 15 29 28 13 71 89 32 42 37 11 3 1 4 4 5 4 16 32 21 11 6 6 2 0 0 0 0 0 0 0 0 0 0 0 0 0 0 0 0 0
3 54 46 22 10 1 0 0 0 0 0 4 38 31 19 0 0 0 8 3 2 0 0 5 14 3 23 13 2 0 0 0 0 0 0 0 0 0 0 0 0 0 0 0 1 6 4
18 1 56 27 12 2 0 0 0 0 0 0 0 14 0 0 0 3 1 0 0 0 0 20 15 0 7 0 0 0 0 0 0 0 0 0 0 0 0 0 0 0 0 0 0 9 1
18 5 26 36 26 4 0 0 0 0 0 0 0 0 0 0 0 0 0 0 0 0 0 0 12 2 0 0 0 0 0 0 0 0 0 0 0 0 0 0 0 0 0 0 0 18 1
9 14 1 37 46 34 5 0 0 0 0 0 0 0 0 0 0 0 0 0 0 0 1 0 0 0 0 0 0 0 0 0 0 0 0 0 0 0 0 0 0 0 12 0 0 0 0
5 15 5 10 36 36 37 11 0 0 0 0 0 0 0 0 0 0 0 0 0 8 8 0 0 0 0 0 0 0 0 0 0 0 0 0 0 0 0 0 1 2 10 1 0 0 0
5 9 15 0 25 33 19 23 0 0 0 0 0 0 0 0 0 0 0 0 3 5 0 0 0 0 0 0 0 0 0 0 0 0 0 0 0 0 0 0 0 5 26 7 7 1 1
0 5 11 7 0 28 24 10 2 0 0 0 0 0 0 0 0 0 0 10 0 0 0 0 0 0 0 0 0 0 0 0 0 0 0 1 4 0 0 0 0 1 7 28 9 0 0
0 3 3 7 0 7 15 12 6 0 0 0 0 0 0 0 0 0 0 0 0 0 0 0 0 0 0 0 0 0 0 0 1 16 10 3 2 0 0 0 0 11 20 23 20 0 0
0 0 5 2 3 9 15 1 0 0 0 0 0 0 0 0 0 0 0 0 0 0 0 0 0 0 0 0 1 13 5 0 0 0 0 0 6 0 0 0 0 0 0 2 0 0 0
0 0 2 5 0 6 21 10 0 0 0 0 0 0 0 0 0 0 0 0 0 0 0 0 0 0 0 0 0 0 0 0 0 0 0 0 0 0 0 0 0 0 0 0 0 0 0
0 0 0 5 8 6 7 12 0 0 0 0 0 0 0 0 0 0 0 0 0 0 0 0 0 0 0 0 0 0 0 0 0 0 0 0 0 0 0 0 0 0 0 0 0 0 0
0 0 0 1 7 11 13 0 0 0 0 0 0 0 0 0 0 0 0 0 0 0 0 0 0 0 0 0 0 0 0 0 0 0 0 0 0 0 0 0 0 0 0 0 0 0 0
0 0 0 0 6 6 12 0 0 0 0 0 0 0 0 0 0 0 0 0 0 0 0 0 0 0 0 0 0 0 0 0 0 0 0 0 0 0 0 0 0 0 0 0 0 0 0
1 0 0 0 2 7 0 0 0 0 0 0 0 0 0 0 0 0 0 0 0 0 0 0 0 0 0 0 0 0 0 0 0 0 0 0 0 0 0 0 0 0 0 0 0 0 0
1 0 0 0 5 3 2 0 0 0 0 0 0 0 0 0 0 0 0 0 0 0 0 0 0 0 0 0 0 0 0 0 0 0 0 0 0 0 0 0 0 0 0 0 0 0 0
10 0 0 0 7 3 3 0 0 0 0 0 0 0 0 0 0 0 0 0 0 0 0 0 0 0 0 0 0 0 0 0 0 0 0 0 0 0 0 0 0 0 0 0 0 0 0
21 0 0 0 2 0 2 0 0 0 0 0 0 0 0 0 0 0 0 0 0 0 0 0 0 0 0 0 0 0 0 0 0 0 0 0 0 0 0 0 0 0 0 0 0 0 0
20 0 0 0 0 0 0 0 0 0 0 0 0 0 0 0 0 0 0 0 0 0 0 0 0 0 0 0 0 0 0 0 0 0 0 0 0 0 0 0 0 0 0 0 0 0 0
14 1 0 0 0 0 0 0 0 0 0 0 0 0 0 0 0 0 0 0 0 0 0 0 0 0 0 0 0 0 0 0 0 0 0 0 0 0 0 0 0 0 0 0 0 0 0
14 2 0 0 0 0 0 0 0 0 0 0 0 0 0 0 0 0 0 0 0 0 0 0 0 0 0 0 0 0 0 0 0 0 0 0 0 0 0 0 0 0 0 0 0 0 0

GFSGBSN_con_sbcape_117.txt.gz
CAPE
41 41 41 38 36 39 170 240 238 269 306 293 210 125 95 64 67 35 60 87 106 76 0 0 0 59 0 0 0 0 34 0 0 0 0 0 0 0 0 0 0 0 0 0 0 0 0
38 44 49 30 36 66 115 125 245 292 306 273 139 58 36 35 42 12 25 37 57 67 8 0 119 21 0 0 0 0 0 0 0 0 0 0 0 0 0 0 0 0 0 0 0 0 0
39 42 48 30 45 36 39 108 138 199 196 117 38 17 27 21 19 45 58 78 62 52 14 34 88 8 7 3 3 0 0 0 0 0 0 0 0 0 0 0 0 0 0 0 0 0 0
33 40 29 21 40 48 29 24 56 40 176 115 51 92 70 20 32 41 34 21 4 13 0 5 90 14 8 10 4 0 0 0 0 0 0 0 0 0 0 0 0 0 0 0 0 0 0
39 48 35 27 32 47 27 21 20 13 8 28 83 129 97 117 9 61 153 382 388 85 70 85 4 6 21 19 6 0 0 0 0 0 0 0 0 0 0 0 0 0 0 0 0 0 0
42 39 41 32 37 24 25 39 31 14 23 10 41 119 109 184 193 114 207 16 21 0 0 0 8 2 3 23 0 0 0 0 0 0 0 0 0 0 0 0 0 0 0 0 0 0 0
40 44 32 35 21 15 19 17 7 24 47 12 30 58 102 34 7 1 0 0 0 0 0 0 5 11 15 8 11 8 0 0 0 0 0 0 0 0 0 0 0 0 0 0 0 0 0
20 35 16 36 23 26 17 18 10 8 35 14 21 59 36 41 30 2 0 0 10 2 2 16 10 26 23 11 6 3 0 0 0 0 0 0 0 0 0 0 0 0 0 0 0 0 0
10 26 36 20 27 22 17 4 2 1 6 11 0 15 39 20 6 0 0 19 4 12 2 9 28 17 22 10 2 1 0 0 0 0 0 0 0 0 0 0 0 0 0 0 0 0 0
17 14 31 30 18 19 18 10 1 0 0 0 0 0 1 0 0 0 1 0 0 0 0 7 16 7 15 2 0 0 0 0 0 0 0 0 0 0 0 0 0 0 0 0 0 11 0
9 16 15 21 32 25 16 10 6 0 0 0 0 0 0 0 0 0 0 0 0 0 0 9 17 1 2 0 0 0 0 0 0 0 0 0 0 0 0 0 0 0 0 0 0 17 12
8 15 10 14 22 31 31 26 6 3 0 0 0 0 0 0 0 0 0 0 0 0 0 2 3 0 0 0 0 0 0 0 0 0 0 0 0 0 0 0 0 0 0 0 0 0 12
2 10 20 12 6 13 24 28 19 3 0 0 0 0 0 0 0 0 0 0 0 0 0 0 0 0 0 0 0 0 0 0 0 0 0 0 0 0 0 0 0 0 2 0 0 3 0
0 4 16 15 17 9 11 24 12 7 0 0 0 0 0 0 0 0 0 0 0 7 1 0 0 0 0 0 0 0 0 0 0 0 0 0 0 0 0 0 0 0 0 0 0 0 0
1 0 4 18 15 19 15 14 5 11 12 0 0 0 0 0 0 0 0 0 11 2 0 0 0 0 0 0 0 0 0 0 0 0 0 0 0 0 0 0 0 5 23 2 15 1 2
5 0 1 8 6 18 16 5 6 0 9 0 0 0 0 0 0 0 0 2 0 0 0 0 0 0 0 0 0 0 0 0 0 0 0 2 0 0 0 0 0 4 5 32 11 0 0
3 3 0 6 6 8 20 5 0 1 0 0 0 0 0 0 0 0 0 0 0 0 0 0 0 0 0 0 0 0 0 0 4 10 0 2 1 0 0 0 4 9 14 12 24 9 1
2 3 0 1 4 1 4 20 0 0 0 0 0 0 0 0 0 0 0 0 0 0 0 0 0 0 0 0 0 7 2 0 0 0 0 0 2 1 0 0 0 0 1 3 1 1 0
0 2 2 0 2 10 4 5 0 0 0 0 0 0 0 0 0 0 0 0 0 0 0 0 0 0 0 0 0 0 0 0 0 0 0 0 0 0 0 0 0 0 0 0 0 0 0
4 0 0 0 0 9 10 9 10 0 0 0 0 0 0 0 0 0 0 0 0 0 0 0 0 0 0 0 0 0 0 0 0 0 0 0 0 0 0 0 0 0 0 0 0 0 0
12 0 0 0 0 5 8 7 1 0 0 0 0 0 0 0 0 0 0 0 0 0 0 0 0 0 0 0 0 0 0 0 0 0 0 0 0 0 0 0 0 0 0 0 0 0 0
16 0 0 0 0 3 7 4 0 0 0 0 0 0 0 0 0 0 0 0 0 0 0 0 0 0 0 0 0 0 0 0 0 0 0 0 0 0 0 0 0 0 0 0 0 0 0
5 4 0 0 0 4 11 3 0 0 0 0 0 0 0 0 0 0 0 0 0 0 0 0 0 0 0 0 0 0 0 0 0 0 0 0 0 0 0 0 0 0 0 0 0 0 0
6 6 0 0 0 2 5 4 0 0 0 0 0 0 0 0 0 0 0 0 0 0 0 0 0 0 0 0 0 0 0 0 0 0 0 0 0 0 0 0 0 0 0 0 0 0 0
10 5 0 0 0 0 6 7 0 0 0 0 0 0 0 0 0 0 0 0 0 0 0 0 0 0 0 0 0 0 0 0 0 0 0 0 0 0 0 0 0 0 0 0 0 0 0
7 10 1 0 0 0 2 1 0 0 0 0 0 0 0 0 0 0 0 0 0 0 0 0 0 0 0 0 0 0 0 0 0 0 0 0 0 0 0 0 0 0 0 0 0 0 0
7 13 3 0 0 0 0 0 0 0 0 0 0 0 0 0 0 0 0 0 0 0 0 0 0 0 0 0 0 0 0 0 0 0 0 0 0 0 0 0 0 0 0 0 0 0 0
5 9 11 0 0 0 0 0 0 0 0 0 0 0 0 0 0 0 0 0 0 0 0 0 0 0 0 0 0 0 0 0 0 0 0 0 0 0 0 0 0 0 0 0 0 0 0
4 4 12 0 0 0 0 0 0 0 0 0 0 0 0 0 0 0 0 0 0 0 0 0 0 0 0 0 0 0 0 0 0 0 0 0 0 0 0 0 0 0 0 0 0 0 0